<?xml version="1.0" encoding="UTF-8" standalone="no" ?>
<gpx xmlns="http://www.topografix.com/GPX/1/1" xmlns:xsi="http://www.w3.org/2001/XMLSchema-instance" xsi:schemaLocation="http://www.topografix.com/GPX/1/1 http://www.topografix.com/GPX/1/1/gpx.xsd" version="1.1" creator="VisuGPX - https://www.visugpx.com">
  <metadata>
    <name>69km St Germain L'Aiguiller édité par cth85.com</name>
    <desc><![CDATA[Les Herbiers / St Paul
Les Roche  / Le Boupère
Meilleraie / Puy Germon D 114
Les Ahayes / Les Vielle Maison
St Germain L’Aiguiller
La Tamponnière /  Boisselière
A/ g L’Aubonière / Réaumur
D752 /  Moulin de la Garde
Bujaudière / Maison Neuve
Coureaux / Laterie / Pouzauges
Lac Linaudière/ La Maison Neuve
La Boctière / Chagnais 
Bois Serin / Les Brosses
Chalonnière / Croix Barat
Les Herbiers]]></desc>
  </metadata>
  <trk>
    <name><![CDATA[69km St Germain L'Aiguiller édité par cth85.com_1]]></name>
    <extensions>
      <line xmlns="http://www.topografix.com/GPX/gpx_style/0/2">
        <color>0000FF</color>
        <width>4</width>
      </line>
    </extensions>
    <trkseg>
      <trkpt lat="46.86138" lon="-1.00731">
        <ele>115.7</ele>
        <time>2026-03-26T08:36:27.000Z</time>
        <extensions>
          <visugpx:TrkExtension xmlns:visugpx="https://www.visugpx.com/editgpx/">
            <visugpx:node>39</visugpx:node>
            </visugpx:TrkExtension>
        </extensions>
      </trkpt>
      <trkpt lat="46.86095" lon="-1.00769">
        <ele>114.9</ele>
        <time>2026-03-26T08:36:33.969Z</time>
      </trkpt>
      <trkpt lat="46.86055" lon="-1.00814">
        <ele>113.9</ele>
        <time>2026-03-26T08:36:40.742Z</time>
      </trkpt>
      <trkpt lat="46.86" lon="-1.00891">
        <ele>112.3</ele>
        <time>2026-03-26T08:36:50.861Z</time>
      </trkpt>
      <trkpt lat="46.85979" lon="-1.00923">
        <ele>112.3</ele>
        <time>2026-03-26T08:36:55.718Z</time>
      </trkpt>
      <trkpt lat="46.85963" lon="-1.00951">
        <ele>112.7</ele>
        <time>2026-03-26T08:37:00.410Z</time>
      </trkpt>
      <trkpt lat="46.85958" lon="-1.00971">
        <ele>112.8</ele>
        <time>2026-03-26T08:37:02.903Z</time>
      </trkpt>
      <trkpt lat="46.85958" lon="-1.00974">
        <ele>112.8</ele>
        <time>2026-03-26T08:37:03.232Z</time>
      </trkpt>
      <trkpt lat="46.85959" lon="-1.00976">
        <ele>112.9</ele>
        <time>2026-03-26T08:37:03.764Z</time>
      </trkpt>
      <trkpt lat="46.85958" lon="-1.00979">
        <ele>112.9</ele>
        <time>2026-03-26T08:37:04.129Z</time>
      </trkpt>
      <trkpt lat="46.85956" lon="-1.00983">
        <ele>112.9</ele>
        <time>2026-03-26T08:37:04.672Z</time>
      </trkpt>
      <trkpt lat="46.85954" lon="-1.00984">
        <ele>112.9</ele>
        <time>2026-03-26T08:37:05.010Z</time>
      </trkpt>
      <trkpt lat="46.85952" lon="-1.00985">
        <ele>112.9</ele>
        <time>2026-03-26T08:37:05.349Z</time>
      </trkpt>
      <trkpt lat="46.85947" lon="-1.00981">
        <ele>112.9</ele>
        <time>2026-03-26T08:37:06.262Z</time>
      </trkpt>
      <trkpt lat="46.85947" lon="-1.00979">
        <ele>112.9</ele>
        <time>2026-03-26T08:37:06.481Z</time>
      </trkpt>
      <trkpt lat="46.85931" lon="-1.0097">
        <ele>112.9</ele>
        <time>2026-03-26T08:37:09.226Z</time>
      </trkpt>
      <trkpt lat="46.85901" lon="-1.00956">
        <ele>112.9</ele>
        <time>2026-03-26T08:37:14.269Z</time>
      </trkpt>
      <trkpt lat="46.85879" lon="-1.00945">
        <ele>112.8</ele>
        <time>2026-03-26T08:37:17.846Z</time>
      </trkpt>
      <trkpt lat="46.85865" lon="-1.00942">
        <ele>112.8</ele>
        <time>2026-03-26T08:37:20.112Z</time>
      </trkpt>
      <trkpt lat="46.85858" lon="-1.00941">
        <ele>112.8</ele>
        <time>2026-03-26T08:37:21.238Z</time>
      </trkpt>
      <trkpt lat="46.85855" lon="-1.00943">
        <ele>112.8</ele>
        <time>2026-03-26T08:37:21.766Z</time>
      </trkpt>
      <trkpt lat="46.8585" lon="-1.00943">
        <ele>112.7</ele>
        <time>2026-03-26T08:37:22.436Z</time>
      </trkpt>
      <trkpt lat="46.85843" lon="-1.00939">
        <ele>112.8</ele>
        <time>2026-03-26T08:37:23.810Z</time>
      </trkpt>
      <trkpt lat="46.8584" lon="-1.00934">
        <ele>112.8</ele>
        <time>2026-03-26T08:37:24.538Z</time>
      </trkpt>
      <trkpt lat="46.85838" lon="-1.00928">
        <ele>112.9</ele>
        <time>2026-03-26T08:37:25.453Z</time>
      </trkpt>
      <trkpt lat="46.85838" lon="-1.00922">
        <ele>112.9</ele>
        <time>2026-03-26T08:37:26.110Z</time>
      </trkpt>
      <trkpt lat="46.85839" lon="-1.00917">
        <ele>113</ele>
        <time>2026-03-26T08:37:26.874Z</time>
      </trkpt>
      <trkpt lat="46.85817" lon="-1.00904">
        <ele>112.7</ele>
        <time>2026-03-26T08:37:30.260Z</time>
      </trkpt>
      <trkpt lat="46.85789" lon="-1.00888">
        <ele>112.3</ele>
        <time>2026-03-26T08:37:34.525Z</time>
      </trkpt>
      <trkpt lat="46.85764" lon="-1.00873">
        <ele>112.1</ele>
        <time>2026-03-26T08:37:38.565Z</time>
      </trkpt>
      <trkpt lat="46.85746" lon="-1.00862">
        <ele>112</ele>
        <time>2026-03-26T08:37:41.544Z</time>
      </trkpt>
      <trkpt lat="46.8569" lon="-1.0083">
        <ele>112</ele>
        <time>2026-03-26T08:37:51.172Z</time>
      </trkpt>
      <trkpt lat="46.85677" lon="-1.00817">
        <ele>111.8</ele>
        <time>2026-03-26T08:37:53.419Z</time>
      </trkpt>
      <trkpt lat="46.8564" lon="-1.00782">
        <ele>110.6</ele>
        <time>2026-03-26T08:37:58.987Z</time>
      </trkpt>
      <trkpt lat="46.85635" lon="-1.00777">
        <ele>110.4</ele>
        <time>2026-03-26T08:37:59.719Z</time>
      </trkpt>
      <trkpt lat="46.85635" lon="-1.00777">
        <ele>110.4</ele>
        <time>2026-03-26T08:37:59.719Z</time>
      </trkpt>
      <trkpt lat="46.85562" lon="-1.00711">
        <ele>108.3</ele>
        <time>2026-03-26T08:38:10.807Z</time>
      </trkpt>
      <trkpt lat="46.85539" lon="-1.00693">
        <ele>108</ele>
        <time>2026-03-26T08:38:14.567Z</time>
      </trkpt>
      <trkpt lat="46.85509" lon="-1.00673">
        <ele>107.9</ele>
        <time>2026-03-26T08:38:19.699Z</time>
      </trkpt>
      <trkpt lat="46.85483" lon="-1.00654">
        <ele>107.8</ele>
        <time>2026-03-26T08:38:24.206Z</time>
      </trkpt>
      <trkpt lat="46.85442" lon="-1.00632">
        <ele>107.6</ele>
        <time>2026-03-26T08:38:30.906Z</time>
      </trkpt>
      <trkpt lat="46.85372" lon="-1.006">
        <ele>108.4</ele>
        <time>2026-03-26T08:38:43.985Z</time>
      </trkpt>
      <trkpt lat="46.85351" lon="-1.00589">
        <ele>108.8</ele>
        <time>2026-03-26T08:38:48.265Z</time>
      </trkpt>
      <trkpt lat="46.85348" lon="-1.00588">
        <ele>108.8</ele>
        <time>2026-03-26T08:38:48.757Z</time>
      </trkpt>
      <trkpt lat="46.85325" lon="-1.00582">
        <ele>109.1</ele>
        <time>2026-03-26T08:38:53.007Z</time>
      </trkpt>
      <trkpt lat="46.85286" lon="-1.00571">
        <ele>109.6</ele>
        <time>2026-03-26T08:39:00.213Z</time>
      </trkpt>
      <trkpt lat="46.85276" lon="-1.00566">
        <ele>109.8</ele>
        <time>2026-03-26T08:39:02.262Z</time>
      </trkpt>
      <trkpt lat="46.85268" lon="-1.00561">
        <ele>109.8</ele>
        <time>2026-03-26T08:39:03.656Z</time>
      </trkpt>
      <trkpt lat="46.85261" lon="-1.00555">
        <ele>109.9</ele>
        <time>2026-03-26T08:39:05.124Z</time>
      </trkpt>
      <trkpt lat="46.8524" lon="-1.0054">
        <ele>109.9</ele>
        <time>2026-03-26T08:39:08.867Z</time>
      </trkpt>
      <trkpt lat="46.85193" lon="-1.00506">
        <ele>109.3</ele>
        <time>2026-03-26T08:39:16.429Z</time>
      </trkpt>
      <trkpt lat="46.85131" lon="-1.0046">
        <ele>109.6</ele>
        <time>2026-03-26T08:39:28.037Z</time>
      </trkpt>
      <trkpt lat="46.85129" lon="-1.00458">
        <ele>109.7</ele>
        <time>2026-03-26T08:39:28.644Z</time>
      </trkpt>
      <trkpt lat="46.85107" lon="-1.00443">
        <ele>110.2</ele>
        <time>2026-03-26T08:39:33.437Z</time>
      </trkpt>
      <trkpt lat="46.85103" lon="-1.0044">
        <ele>110.3</ele>
        <time>2026-03-26T08:39:34.341Z</time>
      </trkpt>
      <trkpt lat="46.85077" lon="-1.00424">
        <ele>111</ele>
        <time>2026-03-26T08:39:40.174Z</time>
      </trkpt>
      <trkpt lat="46.85055" lon="-1.0041">
        <ele>111.4</ele>
        <time>2026-03-26T08:39:44.717Z</time>
      </trkpt>
      <trkpt lat="46.85028" lon="-1.00397">
        <ele>112.1</ele>
        <time>2026-03-26T08:39:50.583Z</time>
      </trkpt>
      <trkpt lat="46.84991" lon="-1.00387">
        <ele>112.8</ele>
        <time>2026-03-26T08:39:57.855Z</time>
      </trkpt>
      <trkpt lat="46.84953" lon="-1.0038">
        <ele>113.4</ele>
        <time>2026-03-26T08:40:05.029Z</time>
      </trkpt>
      <trkpt lat="46.84893" lon="-1.00378">
        <ele>114.2</ele>
        <time>2026-03-26T08:40:16.001Z</time>
      </trkpt>
      <trkpt lat="46.84878" lon="-1.0038">
        <ele>114.4</ele>
        <time>2026-03-26T08:40:18.753Z</time>
      </trkpt>
      <trkpt lat="46.84878" lon="-1.0038">
        <ele>114.4</ele>
        <time>2026-03-26T08:40:18.753Z</time>
      </trkpt>
      <trkpt lat="46.84867" lon="-1.00381">
        <ele>114.5</ele>
        <time>2026-03-26T08:40:20.683Z</time>
      </trkpt>
      <trkpt lat="46.84834" lon="-1.00388">
        <ele>115</ele>
        <time>2026-03-26T08:40:26.885Z</time>
      </trkpt>
      <trkpt lat="46.84792" lon="-1.004">
        <ele>115.5</ele>
        <time>2026-03-26T08:40:34.577Z</time>
      </trkpt>
      <trkpt lat="46.84782" lon="-1.00402">
        <ele>115.6</ele>
        <time>2026-03-26T08:40:36.359Z</time>
      </trkpt>
      <trkpt lat="46.84775" lon="-1.00403">
        <ele>115.7</ele>
        <time>2026-03-26T08:40:37.656Z</time>
      </trkpt>
      <trkpt lat="46.84775" lon="-1.00407">
        <ele>115.7</ele>
        <time>2026-03-26T08:40:38.095Z</time>
      </trkpt>
      <trkpt lat="46.8477" lon="-1.00415">
        <ele>115.8</ele>
        <time>2026-03-26T08:40:39.452Z</time>
      </trkpt>
      <trkpt lat="46.84766" lon="-1.00415">
        <ele>115.8</ele>
        <time>2026-03-26T08:40:40.093Z</time>
      </trkpt>
      <trkpt lat="46.84761" lon="-1.00411">
        <ele>115.9</ele>
        <time>2026-03-26T08:40:41.182Z</time>
      </trkpt>
      <trkpt lat="46.8476" lon="-1.00408">
        <ele>115.9</ele>
        <time>2026-03-26T08:40:41.547Z</time>
      </trkpt>
      <trkpt lat="46.84749" lon="-1.00414">
        <ele>116</ele>
        <time>2026-03-26T08:40:43.591Z</time>
      </trkpt>
      <trkpt lat="46.84748" lon="-1.00415">
        <ele>116</ele>
        <time>2026-03-26T08:40:43.785Z</time>
      </trkpt>
      <trkpt lat="46.84697" lon="-1.00434">
        <ele>114.5</ele>
        <time>2026-03-26T08:40:50.369Z</time>
      </trkpt>
      <trkpt lat="46.84649" lon="-1.0045">
        <ele>113</ele>
        <time>2026-03-26T08:40:56.434Z</time>
      </trkpt>
      <trkpt lat="46.8461" lon="-1.0046">
        <ele>111.8</ele>
        <time>2026-03-26T08:41:01.318Z</time>
      </trkpt>
      <trkpt lat="46.84571" lon="-1.00468">
        <ele>111</ele>
        <time>2026-03-26T08:41:06.582Z</time>
      </trkpt>
      <trkpt lat="46.84532" lon="-1.00471">
        <ele>111</ele>
        <time>2026-03-26T08:41:12.837Z</time>
      </trkpt>
      <trkpt lat="46.84503" lon="-1.00474">
        <ele>111</ele>
        <time>2026-03-26T08:41:17.493Z</time>
      </trkpt>
      <trkpt lat="46.84503" lon="-1.00481">
        <ele>111</ele>
        <time>2026-03-26T08:41:18.260Z</time>
      </trkpt>
      <trkpt lat="46.84497" lon="-1.00492">
        <ele>111.1</ele>
        <time>2026-03-26T08:41:19.967Z</time>
      </trkpt>
      <trkpt lat="46.84492" lon="-1.00496">
        <ele>111.2</ele>
        <time>2026-03-26T08:41:21.056Z</time>
      </trkpt>
      <trkpt lat="46.84488" lon="-1.00497">
        <ele>111.3</ele>
        <time>2026-03-26T08:41:21.894Z</time>
      </trkpt>
      <trkpt lat="46.84483" lon="-1.00496">
        <ele>111.4</ele>
        <time>2026-03-26T08:41:22.882Z</time>
      </trkpt>
      <trkpt lat="46.84475" lon="-1.00489">
        <ele>111.6</ele>
        <time>2026-03-26T08:41:24.740Z</time>
      </trkpt>
      <trkpt lat="46.84471" lon="-1.00477">
        <ele>111.8</ele>
        <time>2026-03-26T08:41:26.568Z</time>
      </trkpt>
      <trkpt lat="46.84471" lon="-1.0047">
        <ele>111.8</ele>
        <time>2026-03-26T08:41:27.335Z</time>
      </trkpt>
      <trkpt lat="46.84173" lon="-1.00444">
        <ele>118.9</ele>
        <time>2026-03-26T08:42:28.371Z</time>
      </trkpt>
      <trkpt lat="46.83876" lon="-1.00422">
        <ele>125.3</ele>
        <time>2026-03-26T08:43:27.682Z</time>
      </trkpt>
      <trkpt lat="46.83858" lon="-1.00421">
        <ele>126</ele>
        <time>2026-03-26T08:43:32.065Z</time>
      </trkpt>
      <trkpt lat="46.83614" lon="-1.00402">
        <ele>128.8</ele>
        <time>2026-03-26T08:44:15.883Z</time>
      </trkpt>
      <trkpt lat="46.83507" lon="-1.00398">
        <ele>127.1</ele>
        <time>2026-03-26T08:44:30.735Z</time>
      </trkpt>
      <trkpt lat="46.83488" lon="-1.00396">
        <ele>126.9</ele>
        <time>2026-03-26T08:44:33.505Z</time>
        <extensions>
          <visugpx:TrkExtension xmlns:visugpx="https://www.visugpx.com/editgpx/">
            <visugpx:node>2</visugpx:node>
            </visugpx:TrkExtension>
        </extensions>
      </trkpt>
      <trkpt lat="46.83437" lon="-1.0039">
        <ele>126.5</ele>
        <time>2026-03-26T08:44:41.127Z</time>
      </trkpt>
      <trkpt lat="46.83326" lon="-1.00376">
        <ele>126.2</ele>
        <time>2026-03-26T08:44:58.523Z</time>
      </trkpt>
      <trkpt lat="46.83314" lon="-1.00376">
        <ele>125.8</ele>
        <time>2026-03-26T08:44:59.969Z</time>
      </trkpt>
      <trkpt lat="46.83231" lon="-1.00372">
        <ele>123</ele>
        <time>2026-03-26T08:45:09.948Z</time>
      </trkpt>
      <trkpt lat="46.8319" lon="-1.00369">
        <ele>122</ele>
        <time>2026-03-26T08:45:15.256Z</time>
      </trkpt>
      <trkpt lat="46.83152" lon="-1.00366">
        <ele>120.8</ele>
        <time>2026-03-26T08:45:19.906Z</time>
      </trkpt>
      <trkpt lat="46.83078" lon="-1.00359">
        <ele>117.8</ele>
        <time>2026-03-26T08:45:28.383Z</time>
      </trkpt>
      <trkpt lat="46.82971" lon="-1.00351">
        <ele>113.8</ele>
        <time>2026-03-26T08:45:40.913Z</time>
      </trkpt>
      <trkpt lat="46.82943" lon="-1.00346">
        <ele>113</ele>
        <time>2026-03-26T08:45:44.446Z</time>
      </trkpt>
      <trkpt lat="46.82918" lon="-1.00336">
        <ele>112.1</ele>
        <time>2026-03-26T08:45:47.537Z</time>
      </trkpt>
      <trkpt lat="46.82897" lon="-1.00326">
        <ele>111.8</ele>
        <time>2026-03-26T08:45:50.663Z</time>
      </trkpt>
      <trkpt lat="46.82881" lon="-1.00314">
        <ele>111.5</ele>
        <time>2026-03-26T08:45:53.141Z</time>
      </trkpt>
      <trkpt lat="46.82844" lon="-1.00277">
        <ele>110.6</ele>
        <time>2026-03-26T08:45:59.146Z</time>
      </trkpt>
      <trkpt lat="46.82827" lon="-1.00254">
        <ele>110.2</ele>
        <time>2026-03-26T08:46:02.322Z</time>
      </trkpt>
      <trkpt lat="46.8281" lon="-1.00223">
        <ele>109.6</ele>
        <time>2026-03-26T08:46:05.903Z</time>
      </trkpt>
      <trkpt lat="46.82796" lon="-1.00194">
        <ele>109.1</ele>
        <time>2026-03-26T08:46:09.142Z</time>
      </trkpt>
      <trkpt lat="46.82772" lon="-1.00127">
        <ele>107.9</ele>
        <time>2026-03-26T08:46:15.896Z</time>
      </trkpt>
      <trkpt lat="46.82676" lon="-0.99833">
        <ele>99.4</ele>
        <time>2026-03-26T08:46:41.810Z</time>
      </trkpt>
      <trkpt lat="46.82638" lon="-0.99724">
        <ele>95.2</ele>
        <time>2026-03-26T08:46:50.748Z</time>
      </trkpt>
      <trkpt lat="46.82619" lon="-0.99689">
        <ele>93.6</ele>
        <time>2026-03-26T08:46:53.965Z</time>
      </trkpt>
      <trkpt lat="46.82609" lon="-0.99675">
        <ele>92.7</ele>
        <time>2026-03-26T08:46:55.310Z</time>
      </trkpt>
      <trkpt lat="46.826" lon="-0.99666">
        <ele>92</ele>
        <time>2026-03-26T08:46:56.374Z</time>
      </trkpt>
      <trkpt lat="46.8258" lon="-0.99652">
        <ele>91.4</ele>
        <time>2026-03-26T08:46:59.180Z</time>
      </trkpt>
      <trkpt lat="46.82566" lon="-0.99646">
        <ele>91.8</ele>
        <time>2026-03-26T08:47:02.287Z</time>
      </trkpt>
      <trkpt lat="46.82551" lon="-0.99642">
        <ele>92.2</ele>
        <time>2026-03-26T08:47:05.490Z</time>
      </trkpt>
      <trkpt lat="46.82535" lon="-0.99638">
        <ele>92.7</ele>
        <time>2026-03-26T08:47:09.083Z</time>
      </trkpt>
      <trkpt lat="46.82422" lon="-0.99622">
        <ele>98.1</ele>
        <time>2026-03-26T08:47:39.837Z</time>
      </trkpt>
      <trkpt lat="46.82393" lon="-0.99616">
        <ele>99.3</ele>
        <time>2026-03-26T08:47:47.149Z</time>
      </trkpt>
      <trkpt lat="46.8237" lon="-0.99601">
        <ele>101.3</ele>
        <time>2026-03-26T08:47:57.569Z</time>
      </trkpt>
      <trkpt lat="46.82355" lon="-0.99584">
        <ele>103.4</ele>
        <time>2026-03-26T08:48:09.084Z</time>
      </trkpt>
      <trkpt lat="46.82347" lon="-0.99571">
        <ele>104.4</ele>
        <time>2026-03-26T08:48:14.322Z</time>
      </trkpt>
      <trkpt lat="46.8234" lon="-0.99555">
        <ele>105.5</ele>
        <time>2026-03-26T08:48:20.093Z</time>
        <extensions>
          <visugpx:TrkExtension xmlns:visugpx="https://www.visugpx.com/editgpx/">
            <visugpx:node>3</visugpx:node>
            </visugpx:TrkExtension>
        </extensions>
      </trkpt>
      <trkpt lat="46.8234" lon="-0.99555">
        <ele>105.5</ele>
        <time>2026-03-26T08:48:20.093Z</time>
      </trkpt>
      <trkpt lat="46.82317" lon="-0.99494">
        <ele>108.7</ele>
        <time>2026-03-26T08:48:36.779Z</time>
      </trkpt>
      <trkpt lat="46.82312" lon="-0.99486">
        <ele>108.9</ele>
        <time>2026-03-26T08:48:38.350Z</time>
      </trkpt>
      <trkpt lat="46.82304" lon="-0.99477">
        <ele>109.1</ele>
        <time>2026-03-26T08:48:40.327Z</time>
      </trkpt>
      <trkpt lat="46.82273" lon="-0.99459">
        <ele>109.4</ele>
        <time>2026-03-26T08:48:46.161Z</time>
      </trkpt>
      <trkpt lat="46.82264" lon="-0.99451">
        <ele>109.7</ele>
        <time>2026-03-26T08:48:48.431Z</time>
      </trkpt>
      <trkpt lat="46.8226" lon="-0.99448">
        <ele>109.9</ele>
        <time>2026-03-26T08:48:49.603Z</time>
      </trkpt>
      <trkpt lat="46.8226" lon="-0.99426">
        <ele>111.4</ele>
        <time>2026-03-26T08:48:57.709Z</time>
      </trkpt>
      <trkpt lat="46.8226" lon="-0.99396">
        <ele>112.5</ele>
        <time>2026-03-26T08:49:03.714Z</time>
      </trkpt>
      <trkpt lat="46.8226" lon="-0.99367">
        <ele>113.3</ele>
        <time>2026-03-26T08:49:08.628Z</time>
      </trkpt>
      <trkpt lat="46.8226" lon="-0.99363">
        <ele>113.4</ele>
        <time>2026-03-26T08:49:09.276Z</time>
      </trkpt>
      <trkpt lat="46.82257" lon="-0.99344">
        <ele>113.8</ele>
        <time>2026-03-26T08:49:12.201Z</time>
      </trkpt>
      <trkpt lat="46.82255" lon="-0.99321">
        <ele>114.5</ele>
        <time>2026-03-26T08:49:16.318Z</time>
      </trkpt>
      <trkpt lat="46.82247" lon="-0.99285">
        <ele>115.8</ele>
        <time>2026-03-26T08:49:23.572Z</time>
      </trkpt>
      <trkpt lat="46.8224" lon="-0.99255">
        <ele>116.8</ele>
        <time>2026-03-26T08:49:29.341Z</time>
      </trkpt>
      <trkpt lat="46.82234" lon="-0.99222">
        <ele>117.5</ele>
        <time>2026-03-26T08:49:34.461Z</time>
      </trkpt>
      <trkpt lat="46.82225" lon="-0.99179">
        <ele>118.2</ele>
        <time>2026-03-26T08:49:40.681Z</time>
      </trkpt>
      <trkpt lat="46.8222" lon="-0.99149">
        <ele>118.1</ele>
        <time>2026-03-26T08:49:43.918Z</time>
      </trkpt>
      <trkpt lat="46.82212" lon="-0.99105">
        <ele>117.3</ele>
        <time>2026-03-26T08:49:47.904Z</time>
      </trkpt>
      <trkpt lat="46.82208" lon="-0.99086">
        <ele>117</ele>
        <time>2026-03-26T08:49:49.696Z</time>
      </trkpt>
      <trkpt lat="46.822" lon="-0.99069">
        <ele>116.4</ele>
        <time>2026-03-26T08:49:51.286Z</time>
      </trkpt>
      <trkpt lat="46.8219" lon="-0.99054">
        <ele>115.7</ele>
        <time>2026-03-26T08:49:52.830Z</time>
      </trkpt>
      <trkpt lat="46.8217" lon="-0.99032">
        <ele>114.3</ele>
        <time>2026-03-26T08:49:55.403Z</time>
      </trkpt>
      <trkpt lat="46.82152" lon="-0.99018">
        <ele>113.1</ele>
        <time>2026-03-26T08:49:57.460Z</time>
      </trkpt>
      <trkpt lat="46.82123" lon="-0.98999">
        <ele>111.4</ele>
        <time>2026-03-26T08:50:00.780Z</time>
      </trkpt>
      <trkpt lat="46.82116" lon="-0.98994">
        <ele>111.1</ele>
        <time>2026-03-26T08:50:01.683Z</time>
      </trkpt>
      <trkpt lat="46.82036" lon="-0.98948">
        <ele>107.6</ele>
        <time>2026-03-26T08:50:11.492Z</time>
      </trkpt>
      <trkpt lat="46.81992" lon="-0.98918">
        <ele>105.9</ele>
        <time>2026-03-26T08:50:17.270Z</time>
      </trkpt>
      <trkpt lat="46.81975" lon="-0.98905">
        <ele>105.8</ele>
        <time>2026-03-26T08:50:20.197Z</time>
      </trkpt>
      <trkpt lat="46.81905" lon="-0.98862">
        <ele>107.3</ele>
        <time>2026-03-26T08:50:35.054Z</time>
      </trkpt>
      <trkpt lat="46.81875" lon="-0.98842">
        <ele>108.8</ele>
        <time>2026-03-26T08:50:43.757Z</time>
      </trkpt>
      <trkpt lat="46.81813" lon="-0.988">
        <ele>111.3</ele>
        <time>2026-03-26T08:50:59.939Z</time>
      </trkpt>
      <trkpt lat="46.81762" lon="-0.98767">
        <ele>113.3</ele>
        <time>2026-03-26T08:51:13.034Z</time>
      </trkpt>
      <trkpt lat="46.81729" lon="-0.9875">
        <ele>113.5</ele>
        <time>2026-03-26T08:51:18.957Z</time>
      </trkpt>
      <trkpt lat="46.81655" lon="-0.98724">
        <ele>111.8</ele>
        <time>2026-03-26T08:51:28.961Z</time>
      </trkpt>
      <trkpt lat="46.81571" lon="-0.98698">
        <ele>109.7</ele>
        <time>2026-03-26T08:51:40.055Z</time>
      </trkpt>
      <trkpt lat="46.81547" lon="-0.98689">
        <ele>108.4</ele>
        <time>2026-03-26T08:51:42.661Z</time>
      </trkpt>
      <trkpt lat="46.81404" lon="-0.98641">
        <ele>100.7</ele>
        <time>2026-03-26T08:51:58.089Z</time>
      </trkpt>
      <trkpt lat="46.81295" lon="-0.98605">
        <ele>94.6</ele>
        <time>2026-03-26T08:52:09.677Z</time>
      </trkpt>
      <trkpt lat="46.81212" lon="-0.98578">
        <ele>94.4</ele>
        <time>2026-03-26T08:52:22.997Z</time>
      </trkpt>
      <trkpt lat="46.8116" lon="-0.98561">
        <ele>96.7</ele>
        <time>2026-03-26T08:52:36.661Z</time>
      </trkpt>
      <trkpt lat="46.81122" lon="-0.98549">
        <ele>99.4</ele>
        <time>2026-03-26T08:52:50.705Z</time>
      </trkpt>
      <trkpt lat="46.81122" lon="-0.98542">
        <ele>99.4</ele>
        <time>2026-03-26T08:52:51.472Z</time>
      </trkpt>
      <trkpt lat="46.81115" lon="-0.98516">
        <ele>100</ele>
        <time>2026-03-26T08:52:55.732Z</time>
      </trkpt>
      <trkpt lat="46.8109" lon="-0.98441">
        <ele>102.4</ele>
        <time>2026-03-26T08:53:10.172Z</time>
      </trkpt>
      <trkpt lat="46.81068" lon="-0.98385">
        <ele>103.9</ele>
        <time>2026-03-26T08:53:20.315Z</time>
      </trkpt>
      <trkpt lat="46.81036" lon="-0.98302">
        <ele>105.6</ele>
        <time>2026-03-26T08:53:33.990Z</time>
      </trkpt>
      <trkpt lat="46.80993" lon="-0.98185">
        <ele>104.8</ele>
        <time>2026-03-26T08:53:47.409Z</time>
      </trkpt>
      <trkpt lat="46.80928" lon="-0.98018">
        <ele>107.6</ele>
        <time>2026-03-26T08:54:13.569Z</time>
      </trkpt>
      <trkpt lat="46.80909" lon="-0.97961">
        <ele>107.8</ele>
        <time>2026-03-26T08:54:20.835Z</time>
      </trkpt>
      <trkpt lat="46.80897" lon="-0.97886">
        <ele>108</ele>
        <time>2026-03-26T08:54:29.592Z</time>
      </trkpt>
      <trkpt lat="46.80891" lon="-0.97837">
        <ele>108.6</ele>
        <time>2026-03-26T08:54:36.106Z</time>
      </trkpt>
      <trkpt lat="46.8089" lon="-0.97796">
        <ele>108.7</ele>
        <time>2026-03-26T08:54:40.760Z</time>
      </trkpt>
      <trkpt lat="46.80895" lon="-0.97725">
        <ele>108.8</ele>
        <time>2026-03-26T08:54:48.739Z</time>
      </trkpt>
      <trkpt lat="46.80896" lon="-0.97697">
        <ele>108.9</ele>
        <time>2026-03-26T08:54:51.971Z</time>
      </trkpt>
      <trkpt lat="46.80894" lon="-0.97615">
        <ele>109</ele>
        <time>2026-03-26T08:55:01.119Z</time>
      </trkpt>
      <trkpt lat="46.8089" lon="-0.97583">
        <ele>109</ele>
        <time>2026-03-26T08:55:04.685Z</time>
      </trkpt>
      <trkpt lat="46.80883" lon="-0.97551">
        <ele>109.9</ele>
        <time>2026-03-26T08:55:10.299Z</time>
      </trkpt>
      <trkpt lat="46.80873" lon="-0.97522">
        <ele>110.4</ele>
        <time>2026-03-26T08:55:14.780Z</time>
      </trkpt>
      <trkpt lat="46.80869" lon="-0.97507">
        <ele>110.7</ele>
        <time>2026-03-26T08:55:17.121Z</time>
      </trkpt>
      <trkpt lat="46.8086" lon="-0.97479">
        <ele>111.1</ele>
        <time>2026-03-26T08:55:21.225Z</time>
      </trkpt>
      <trkpt lat="46.80841" lon="-0.97425">
        <ele>111.2</ele>
        <time>2026-03-26T08:55:28.036Z</time>
      </trkpt>
      <trkpt lat="46.80813" lon="-0.9734">
        <ele>111.1</ele>
        <time>2026-03-26T08:55:38.226Z</time>
      </trkpt>
      <trkpt lat="46.80804" lon="-0.97309">
        <ele>110.9</ele>
        <time>2026-03-26T08:55:41.632Z</time>
      </trkpt>
      <trkpt lat="46.80789" lon="-0.97235">
        <ele>110.3</ele>
        <time>2026-03-26T08:55:49.256Z</time>
      </trkpt>
      <trkpt lat="46.8078" lon="-0.9721">
        <ele>109.8</ele>
        <time>2026-03-26T08:55:51.726Z</time>
      </trkpt>
      <trkpt lat="46.80738" lon="-0.97118">
        <ele>107.9</ele>
        <time>2026-03-26T08:56:01.455Z</time>
      </trkpt>
      <trkpt lat="46.8072" lon="-0.97056">
        <ele>107</ele>
        <time>2026-03-26T08:56:07.657Z</time>
      </trkpt>
      <trkpt lat="46.8071" lon="-0.97037">
        <ele>106.3</ele>
        <time>2026-03-26T08:56:09.503Z</time>
      </trkpt>
      <trkpt lat="46.80692" lon="-0.97011">
        <ele>105.3</ele>
        <time>2026-03-26T08:56:12.416Z</time>
      </trkpt>
      <trkpt lat="46.80636" lon="-0.96955">
        <ele>102.5</ele>
        <time>2026-03-26T08:56:20.128Z</time>
      </trkpt>
      <trkpt lat="46.80621" lon="-0.96934">
        <ele>101.8</ele>
        <time>2026-03-26T08:56:22.625Z</time>
      </trkpt>
      <trkpt lat="46.80578" lon="-0.96837">
        <ele>101</ele>
        <time>2026-03-26T08:56:34.168Z</time>
        <extensions>
          <visugpx:TrkExtension xmlns:visugpx="https://www.visugpx.com/editgpx/">
            <visugpx:node>4</visugpx:node>
            </visugpx:TrkExtension>
        </extensions>
      </trkpt>
      <trkpt lat="46.80566" lon="-0.96809">
        <ele>101.7</ele>
        <time>2026-03-26T08:56:39.181Z</time>
      </trkpt>
      <trkpt lat="46.80552" lon="-0.96794">
        <ele>102.1</ele>
        <time>2026-03-26T08:56:42.702Z</time>
      </trkpt>
      <trkpt lat="46.8054" lon="-0.96783">
        <ele>102.4</ele>
        <time>2026-03-26T08:56:45.516Z</time>
      </trkpt>
      <trkpt lat="46.80478" lon="-0.96746">
        <ele>103.3</ele>
        <time>2026-03-26T08:56:57.774Z</time>
      </trkpt>
      <trkpt lat="46.80461" lon="-0.96732">
        <ele>103.6</ele>
        <time>2026-03-26T08:57:01.418Z</time>
      </trkpt>
      <trkpt lat="46.80361" lon="-0.9661">
        <ele>102.9</ele>
        <time>2026-03-26T08:57:21.262Z</time>
      </trkpt>
      <trkpt lat="46.80265" lon="-0.96447">
        <ele>100.1</ele>
        <time>2026-03-26T08:57:41.150Z</time>
      </trkpt>
      <trkpt lat="46.80259" lon="-0.96404">
        <ele>99.7</ele>
        <time>2026-03-26T08:57:45.411Z</time>
      </trkpt>
      <trkpt lat="46.80255" lon="-0.96378">
        <ele>99.7</ele>
        <time>2026-03-26T08:57:48.333Z</time>
      </trkpt>
      <trkpt lat="46.80252" lon="-0.96365">
        <ele>99.7</ele>
        <time>2026-03-26T08:57:49.837Z</time>
      </trkpt>
      <trkpt lat="46.80237" lon="-0.96299">
        <ele>99.5</ele>
        <time>2026-03-26T08:57:57.166Z</time>
      </trkpt>
      <trkpt lat="46.80229" lon="-0.96277">
        <ele>99.3</ele>
        <time>2026-03-26T08:57:59.619Z</time>
      </trkpt>
      <trkpt lat="46.80182" lon="-0.96196">
        <ele>99.8</ele>
        <time>2026-03-26T08:58:12.065Z</time>
      </trkpt>
      <trkpt lat="46.80162" lon="-0.96155">
        <ele>100.2</ele>
        <time>2026-03-26T08:58:18.254Z</time>
      </trkpt>
      <trkpt lat="46.80147" lon="-0.96005">
        <ele>102</ele>
        <time>2026-03-26T08:58:38.041Z</time>
      </trkpt>
      <trkpt lat="46.80145" lon="-0.95977">
        <ele>102.3</ele>
        <time>2026-03-26T08:58:41.648Z</time>
      </trkpt>
      <trkpt lat="46.80151" lon="-0.95938">
        <ele>102.9</ele>
        <time>2026-03-26T08:58:47.129Z</time>
      </trkpt>
      <trkpt lat="46.80165" lon="-0.95861">
        <ele>104.3</ele>
        <time>2026-03-26T08:58:58.516Z</time>
      </trkpt>
      <trkpt lat="46.80179" lon="-0.95804">
        <ele>105.8</ele>
        <time>2026-03-26T08:59:08.285Z</time>
      </trkpt>
      <trkpt lat="46.80204" lon="-0.95742">
        <ele>107.1</ele>
        <time>2026-03-26T08:59:18.653Z</time>
      </trkpt>
      <trkpt lat="46.80208" lon="-0.95722">
        <ele>107.3</ele>
        <time>2026-03-26T08:59:21.279Z</time>
      </trkpt>
      <trkpt lat="46.80209" lon="-0.957">
        <ele>107.6</ele>
        <time>2026-03-26T08:59:24.236Z</time>
      </trkpt>
      <trkpt lat="46.80207" lon="-0.95667">
        <ele>108</ele>
        <time>2026-03-26T08:59:28.574Z</time>
      </trkpt>
      <trkpt lat="46.802" lon="-0.95641">
        <ele>108.4</ele>
        <time>2026-03-26T08:59:32.363Z</time>
      </trkpt>
      <trkpt lat="46.80186" lon="-0.95618">
        <ele>108.7</ele>
        <time>2026-03-26T08:59:36.251Z</time>
      </trkpt>
      <trkpt lat="46.80161" lon="-0.95593">
        <ele>108.8</ele>
        <time>2026-03-26T08:59:41.260Z</time>
      </trkpt>
      <trkpt lat="46.80153" lon="-0.95576">
        <ele>108.9</ele>
        <time>2026-03-26T08:59:43.683Z</time>
      </trkpt>
      <trkpt lat="46.80139" lon="-0.95546">
        <ele>109</ele>
        <time>2026-03-26T08:59:47.821Z</time>
      </trkpt>
      <trkpt lat="46.80127" lon="-0.95503">
        <ele>109</ele>
        <time>2026-03-26T08:59:52.911Z</time>
      </trkpt>
      <trkpt lat="46.80114" lon="-0.95434">
        <ele>109.8</ele>
        <time>2026-03-26T09:00:02.153Z</time>
      </trkpt>
      <trkpt lat="46.80103" lon="-0.95344">
        <ele>111</ele>
        <time>2026-03-26T09:00:14.321Z</time>
      </trkpt>
      <trkpt lat="46.8008" lon="-0.95261">
        <ele>111.9</ele>
        <time>2026-03-26T09:00:25.686Z</time>
      </trkpt>
      <trkpt lat="46.80061" lon="-0.95141">
        <ele>114.7</ele>
        <time>2026-03-26T09:00:44.873Z</time>
      </trkpt>
      <trkpt lat="46.80057" lon="-0.95101">
        <ele>115.8</ele>
        <time>2026-03-26T09:00:51.680Z</time>
      </trkpt>
      <trkpt lat="46.80044" lon="-0.95065">
        <ele>116.9</ele>
        <time>2026-03-26T09:00:58.511Z</time>
      </trkpt>
      <trkpt lat="46.8001" lon="-0.94996">
        <ele>118.9</ele>
        <time>2026-03-26T09:01:11.935Z</time>
      </trkpt>
      <trkpt lat="46.80008" lon="-0.94989">
        <ele>119</ele>
        <time>2026-03-26T09:01:12.946Z</time>
      </trkpt>
      <trkpt lat="46.80001" lon="-0.94946">
        <ele>119.6</ele>
        <time>2026-03-26T09:01:18.871Z</time>
      </trkpt>
      <trkpt lat="46.80002" lon="-0.94838">
        <ele>121.9</ele>
        <time>2026-03-26T09:01:35.291Z</time>
      </trkpt>
      <trkpt lat="46.8" lon="-0.94819">
        <ele>121.8</ele>
        <time>2026-03-26T09:01:37.255Z</time>
      </trkpt>
      <trkpt lat="46.79994" lon="-0.94794">
        <ele>121.4</ele>
        <time>2026-03-26T09:01:39.644Z</time>
      </trkpt>
      <trkpt lat="46.79944" lon="-0.94693">
        <ele>119.2</ele>
        <time>2026-03-26T09:01:50.552Z</time>
      </trkpt>
      <trkpt lat="46.79891" lon="-0.94598">
        <ele>117.2</ele>
        <time>2026-03-26T09:02:01.445Z</time>
      </trkpt>
      <trkpt lat="46.79884" lon="-0.94586">
        <ele>117</ele>
        <time>2026-03-26T09:02:02.910Z</time>
      </trkpt>
      <trkpt lat="46.79868" lon="-0.94555">
        <ele>117.2</ele>
        <time>2026-03-26T09:02:07.490Z</time>
      </trkpt>
      <trkpt lat="46.79851" lon="-0.94512">
        <ele>117.7</ele>
        <time>2026-03-26T09:02:13.794Z</time>
      </trkpt>
      <trkpt lat="46.79838" lon="-0.94466">
        <ele>118</ele>
        <time>2026-03-26T09:02:19.741Z</time>
      </trkpt>
      <trkpt lat="46.7982" lon="-0.94331">
        <ele>119.2</ele>
        <time>2026-03-26T09:02:36.850Z</time>
      </trkpt>
      <trkpt lat="46.79813" lon="-0.94253">
        <ele>122.1</ele>
        <time>2026-03-26T09:02:52.658Z</time>
      </trkpt>
      <trkpt lat="46.79782" lon="-0.94102">
        <ele>124</ele>
        <time>2026-03-26T09:03:13.294Z</time>
        <extensions>
          <visugpx:TrkExtension xmlns:visugpx="https://www.visugpx.com/editgpx/">
            <visugpx:node>5</visugpx:node>
            </visugpx:TrkExtension>
        </extensions>
      </trkpt>
      <trkpt lat="46.79781" lon="-0.94097">
        <ele>124</ele>
        <time>2026-03-26T09:03:13.865Z</time>
      </trkpt>
      <trkpt lat="46.79687" lon="-0.93639">
        <ele>129.5</ele>
        <time>2026-03-26T09:04:15.921Z</time>
      </trkpt>
      <trkpt lat="46.79683" lon="-0.93605">
        <ele>130.2</ele>
        <time>2026-03-26T09:04:21.079Z</time>
      </trkpt>
      <trkpt lat="46.79676" lon="-0.93563">
        <ele>131.2</ele>
        <time>2026-03-26T09:04:27.859Z</time>
      </trkpt>
      <trkpt lat="46.79674" lon="-0.93556">
        <ele>131.5</ele>
        <time>2026-03-26T09:04:29.463Z</time>
      </trkpt>
      <trkpt lat="46.79672" lon="-0.93549">
        <ele>131.7</ele>
        <time>2026-03-26T09:04:30.722Z</time>
      </trkpt>
      <trkpt lat="46.79666" lon="-0.93475">
        <ele>133</ele>
        <time>2026-03-26T09:04:41.350Z</time>
      </trkpt>
      <trkpt lat="46.79648" lon="-0.93376">
        <ele>134</ele>
        <time>2026-03-26T09:04:54.295Z</time>
      </trkpt>
      <trkpt lat="46.79637" lon="-0.93322">
        <ele>135.2</ele>
        <time>2026-03-26T09:05:02.861Z</time>
      </trkpt>
      <trkpt lat="46.79635" lon="-0.93312">
        <ele>135.4</ele>
        <time>2026-03-26T09:05:04.390Z</time>
      </trkpt>
      <trkpt lat="46.79631" lon="-0.93302">
        <ele>135.7</ele>
        <time>2026-03-26T09:05:06.296Z</time>
      </trkpt>
      <trkpt lat="46.79617" lon="-0.93281">
        <ele>136.4</ele>
        <time>2026-03-26T09:05:10.953Z</time>
      </trkpt>
      <trkpt lat="46.79615" lon="-0.93271">
        <ele>136.6</ele>
        <time>2026-03-26T09:05:12.483Z</time>
      </trkpt>
      <trkpt lat="46.79615" lon="-0.93261">
        <ele>136.7</ele>
        <time>2026-03-26T09:05:13.751Z</time>
      </trkpt>
      <trkpt lat="46.79612" lon="-0.93256">
        <ele>136.9</ele>
        <time>2026-03-26T09:05:14.930Z</time>
      </trkpt>
      <trkpt lat="46.79612" lon="-0.93251">
        <ele>137</ele>
        <time>2026-03-26T09:05:15.673Z</time>
      </trkpt>
      <trkpt lat="46.7961" lon="-0.93247">
        <ele>137.1</ele>
        <time>2026-03-26T09:05:16.413Z</time>
      </trkpt>
      <trkpt lat="46.79582" lon="-0.93189">
        <ele>138.7</ele>
        <time>2026-03-26T09:05:27.433Z</time>
      </trkpt>
      <trkpt lat="46.79575" lon="-0.93179">
        <ele>138.7</ele>
        <time>2026-03-26T09:05:29.002Z</time>
      </trkpt>
      <trkpt lat="46.79568" lon="-0.93156">
        <ele>138.8</ele>
        <time>2026-03-26T09:05:31.921Z</time>
      </trkpt>
      <trkpt lat="46.79536" lon="-0.93105">
        <ele>138.6</ele>
        <time>2026-03-26T09:05:39.211Z</time>
      </trkpt>
      <trkpt lat="46.7951" lon="-0.9308">
        <ele>138.2</ele>
        <time>2026-03-26T09:05:43.645Z</time>
      </trkpt>
      <trkpt lat="46.79488" lon="-0.93065">
        <ele>137.2</ele>
        <time>2026-03-26T09:05:46.406Z</time>
      </trkpt>
      <trkpt lat="46.79473" lon="-0.93055">
        <ele>136.4</ele>
        <time>2026-03-26T09:05:48.187Z</time>
      </trkpt>
      <trkpt lat="46.79467" lon="-0.93051">
        <ele>136</ele>
        <time>2026-03-26T09:05:48.844Z</time>
      </trkpt>
      <trkpt lat="46.79462" lon="-0.93049">
        <ele>135.8</ele>
        <time>2026-03-26T09:05:49.445Z</time>
      </trkpt>
      <trkpt lat="46.79458" lon="-0.93049">
        <ele>135.6</ele>
        <time>2026-03-26T09:05:49.873Z</time>
      </trkpt>
      <trkpt lat="46.79455" lon="-0.93049">
        <ele>135.4</ele>
        <time>2026-03-26T09:05:50.161Z</time>
      </trkpt>
      <trkpt lat="46.79451" lon="-0.93028">
        <ele>135</ele>
        <time>2026-03-26T09:05:52.053Z</time>
      </trkpt>
      <trkpt lat="46.79447" lon="-0.93015">
        <ele>134.6</ele>
        <time>2026-03-26T09:05:53.164Z</time>
      </trkpt>
      <trkpt lat="46.79442" lon="-0.93004">
        <ele>134.3</ele>
        <time>2026-03-26T09:05:54.255Z</time>
      </trkpt>
      <trkpt lat="46.79438" lon="-0.92997">
        <ele>134</ele>
        <time>2026-03-26T09:05:54.931Z</time>
      </trkpt>
      <trkpt lat="46.79416" lon="-0.92967">
        <ele>132.2</ele>
        <time>2026-03-26T09:05:57.949Z</time>
      </trkpt>
      <trkpt lat="46.79401" lon="-0.92953">
        <ele>131.3</ele>
        <time>2026-03-26T09:05:59.845Z</time>
      </trkpt>
      <trkpt lat="46.79391" lon="-0.92936">
        <ele>130.5</ele>
        <time>2026-03-26T09:06:01.462Z</time>
      </trkpt>
      <trkpt lat="46.79389" lon="-0.92929">
        <ele>130.3</ele>
        <time>2026-03-26T09:06:02.065Z</time>
      </trkpt>
      <trkpt lat="46.79389" lon="-0.92902">
        <ele>129.8</ele>
        <time>2026-03-26T09:06:04.404Z</time>
      </trkpt>
      <trkpt lat="46.79393" lon="-0.92859">
        <ele>129.5</ele>
        <time>2026-03-26T09:06:08.740Z</time>
      </trkpt>
      <trkpt lat="46.79394" lon="-0.92849">
        <ele>129.4</ele>
        <time>2026-03-26T09:06:09.712Z</time>
      </trkpt>
      <trkpt lat="46.79397" lon="-0.92829">
        <ele>129.3</ele>
        <time>2026-03-26T09:06:11.813Z</time>
      </trkpt>
      <trkpt lat="46.79398" lon="-0.92804">
        <ele>129.2</ele>
        <time>2026-03-26T09:06:14.413Z</time>
      </trkpt>
      <trkpt lat="46.79398" lon="-0.92781">
        <ele>129</ele>
        <time>2026-03-26T09:06:16.659Z</time>
      </trkpt>
      <trkpt lat="46.79396" lon="-0.92738">
        <ele>128.6</ele>
        <time>2026-03-26T09:06:20.836Z</time>
      </trkpt>
      <trkpt lat="46.79395" lon="-0.92691">
        <ele>128</ele>
        <time>2026-03-26T09:06:25.200Z</time>
      </trkpt>
      <trkpt lat="46.79408" lon="-0.92651">
        <ele>128.1</ele>
        <time>2026-03-26T09:06:30.211Z</time>
      </trkpt>
      <trkpt lat="46.79422" lon="-0.92614">
        <ele>128.1</ele>
        <time>2026-03-26T09:06:34.846Z</time>
      </trkpt>
      <trkpt lat="46.79429" lon="-0.92604">
        <ele>128.3</ele>
        <time>2026-03-26T09:06:36.776Z</time>
      </trkpt>
      <trkpt lat="46.79435" lon="-0.92587">
        <ele>128.2</ele>
        <time>2026-03-26T09:06:38.730Z</time>
      </trkpt>
      <trkpt lat="46.79438" lon="-0.92582">
        <ele>128.2</ele>
        <time>2026-03-26T09:06:39.459Z</time>
      </trkpt>
      <trkpt lat="46.79431" lon="-0.92572">
        <ele>127.6</ele>
        <time>2026-03-26T09:06:40.431Z</time>
      </trkpt>
      <trkpt lat="46.7942" lon="-0.92557">
        <ele>126.6</ele>
        <time>2026-03-26T09:06:41.880Z</time>
      </trkpt>
      <trkpt lat="46.79363" lon="-0.92452">
        <ele>120.9</ele>
        <time>2026-03-26T09:06:50.946Z</time>
      </trkpt>
      <trkpt lat="46.7935" lon="-0.92431">
        <ele>119.5</ele>
        <time>2026-03-26T09:06:52.808Z</time>
      </trkpt>
      <trkpt lat="46.79345" lon="-0.92425">
        <ele>119</ele>
        <time>2026-03-26T09:06:53.430Z</time>
      </trkpt>
      <trkpt lat="46.79337" lon="-0.92422">
        <ele>118.4</ele>
        <time>2026-03-26T09:06:54.224Z</time>
      </trkpt>
      <trkpt lat="46.79337" lon="-0.92423">
        <ele>118.4</ele>
        <time>2026-03-26T09:06:54.334Z</time>
      </trkpt>
      <trkpt lat="46.79334" lon="-0.92426">
        <ele>118.4</ele>
        <time>2026-03-26T09:06:54.916Z</time>
      </trkpt>
      <trkpt lat="46.7933" lon="-0.92426">
        <ele>118.3</ele>
        <time>2026-03-26T09:06:55.430Z</time>
      </trkpt>
      <trkpt lat="46.79328" lon="-0.92423">
        <ele>118.1</ele>
        <time>2026-03-26T09:06:55.706Z</time>
      </trkpt>
      <trkpt lat="46.79327" lon="-0.9242">
        <ele>118</ele>
        <time>2026-03-26T09:06:55.961Z</time>
      </trkpt>
      <trkpt lat="46.7933" lon="-0.92411">
        <ele>117.7</ele>
        <time>2026-03-26T09:06:56.726Z</time>
      </trkpt>
      <trkpt lat="46.79332" lon="-0.9241">
        <ele>117.7</ele>
        <time>2026-03-26T09:06:57.064Z</time>
      </trkpt>
      <trkpt lat="46.79328" lon="-0.924">
        <ele>117.3</ele>
        <time>2026-03-26T09:06:57.910Z</time>
      </trkpt>
      <trkpt lat="46.79316" lon="-0.92379">
        <ele>116.2</ele>
        <time>2026-03-26T09:06:59.800Z</time>
      </trkpt>
      <trkpt lat="46.79312" lon="-0.92372">
        <ele>115.9</ele>
        <time>2026-03-26T09:07:00.477Z</time>
      </trkpt>
      <trkpt lat="46.79298" lon="-0.92344">
        <ele>114.5</ele>
        <time>2026-03-26T09:07:02.869Z</time>
      </trkpt>
      <trkpt lat="46.79284" lon="-0.92315">
        <ele>113.2</ele>
        <time>2026-03-26T09:07:05.406Z</time>
      </trkpt>
      <trkpt lat="46.79269" lon="-0.92282">
        <ele>111.6</ele>
        <time>2026-03-26T09:07:08.140Z</time>
      </trkpt>
      <trkpt lat="46.79263" lon="-0.92271">
        <ele>111.1</ele>
        <time>2026-03-26T09:07:09.156Z</time>
      </trkpt>
      <trkpt lat="46.79239" lon="-0.92229">
        <ele>109.7</ele>
        <time>2026-03-26T09:07:13.535Z</time>
      </trkpt>
      <trkpt lat="46.79223" lon="-0.92201">
        <ele>109.3</ele>
        <time>2026-03-26T09:07:16.995Z</time>
      </trkpt>
      <trkpt lat="46.79195" lon="-0.92164">
        <ele>109.3</ele>
        <time>2026-03-26T09:07:23.043Z</time>
      </trkpt>
      <trkpt lat="46.79192" lon="-0.9216">
        <ele>109.3</ele>
        <time>2026-03-26T09:07:23.693Z</time>
      </trkpt>
      <trkpt lat="46.79157" lon="-0.92113">
        <ele>108.9</ele>
        <time>2026-03-26T09:07:30.737Z</time>
      </trkpt>
      <trkpt lat="46.79094" lon="-0.92019">
        <ele>107.4</ele>
        <time>2026-03-26T09:07:43.152Z</time>
      </trkpt>
      <trkpt lat="46.79046" lon="-0.91935">
        <ele>103.4</ele>
        <time>2026-03-26T09:07:50.981Z</time>
      </trkpt>
      <trkpt lat="46.79033" lon="-0.91911">
        <ele>102.5</ele>
        <time>2026-03-26T09:07:53.333Z</time>
      </trkpt>
      <trkpt lat="46.79021" lon="-0.91885">
        <ele>102.2</ele>
        <time>2026-03-26T09:07:56.362Z</time>
      </trkpt>
      <trkpt lat="46.78972" lon="-0.91773">
        <ele>101</ele>
        <time>2026-03-26T09:08:09.286Z</time>
      </trkpt>
      <trkpt lat="46.78958" lon="-0.91746">
        <ele>101</ele>
        <time>2026-03-26T09:08:13.000Z</time>
      </trkpt>
      <trkpt lat="46.78919" lon="-0.91677">
        <ele>100.2</ele>
        <time>2026-03-26T09:08:21.711Z</time>
      </trkpt>
      <trkpt lat="46.78797" lon="-0.91465">
        <ele>91</ele>
        <time>2026-03-26T09:08:42.189Z</time>
      </trkpt>
      <trkpt lat="46.78764" lon="-0.91403">
        <ele>89.5</ele>
        <time>2026-03-26T09:08:48.948Z</time>
      </trkpt>
      <trkpt lat="46.78737" lon="-0.91349">
        <ele>89.8</ele>
        <time>2026-03-26T09:08:56.762Z</time>
      </trkpt>
      <trkpt lat="46.78645" lon="-0.9114">
        <ele>98.9</ele>
        <time>2026-03-26T09:09:46.469Z</time>
      </trkpt>
      <trkpt lat="46.78627" lon="-0.91103">
        <ele>102</ele>
        <time>2026-03-26T09:10:03.224Z</time>
      </trkpt>
      <trkpt lat="46.78575" lon="-0.91023">
        <ele>107.9</ele>
        <time>2026-03-26T09:10:33.926Z</time>
      </trkpt>
      <trkpt lat="46.78561" lon="-0.90999">
        <ele>109.2</ele>
        <time>2026-03-26T09:10:40.815Z</time>
      </trkpt>
      <trkpt lat="46.78549" lon="-0.90971">
        <ele>111</ele>
        <time>2026-03-26T09:10:50.195Z</time>
        <extensions>
          <visugpx:TrkExtension xmlns:visugpx="https://www.visugpx.com/editgpx/">
            <visugpx:node>6</visugpx:node>
            </visugpx:TrkExtension>
        </extensions>
      </trkpt>
      <trkpt lat="46.78544" lon="-0.90959">
        <ele>111.6</ele>
        <time>2026-03-26T09:10:53.353Z</time>
      </trkpt>
      <trkpt lat="46.78538" lon="-0.90937">
        <ele>112.3</ele>
        <time>2026-03-26T09:10:57.512Z</time>
      </trkpt>
      <trkpt lat="46.78531" lon="-0.90902">
        <ele>113.2</ele>
        <time>2026-03-26T09:11:03.387Z</time>
      </trkpt>
      <trkpt lat="46.78525" lon="-0.90876">
        <ele>113.8</ele>
        <time>2026-03-26T09:11:07.599Z</time>
      </trkpt>
      <trkpt lat="46.78514" lon="-0.90845">
        <ele>114.2</ele>
        <time>2026-03-26T09:11:12.128Z</time>
      </trkpt>
      <trkpt lat="46.78411" lon="-0.906">
        <ele>124.3</ele>
        <time>2026-03-26T09:12:08.051Z</time>
      </trkpt>
      <trkpt lat="46.78393" lon="-0.90545">
        <ele>126.3</ele>
        <time>2026-03-26T09:12:19.409Z</time>
      </trkpt>
      <trkpt lat="46.78373" lon="-0.90478">
        <ele>127.4</ele>
        <time>2026-03-26T09:12:29.441Z</time>
      </trkpt>
      <trkpt lat="46.78356" lon="-0.90422">
        <ele>126.4</ele>
        <time>2026-03-26T09:12:34.887Z</time>
      </trkpt>
      <trkpt lat="46.7833" lon="-0.9036">
        <ele>126.9</ele>
        <time>2026-03-26T09:12:43.687Z</time>
      </trkpt>
      <trkpt lat="46.78311" lon="-0.90329">
        <ele>127.2</ele>
        <time>2026-03-26T09:12:48.748Z</time>
      </trkpt>
      <trkpt lat="46.78258" lon="-0.90256">
        <ele>126.1</ele>
        <time>2026-03-26T09:12:58.925Z</time>
      </trkpt>
      <trkpt lat="46.78219" lon="-0.90208">
        <ele>126.3</ele>
        <time>2026-03-26T09:13:07.408Z</time>
      </trkpt>
      <trkpt lat="46.78202" lon="-0.90191">
        <ele>126.5</ele>
        <time>2026-03-26T09:13:11.038Z</time>
      </trkpt>
      <trkpt lat="46.78176" lon="-0.90173">
        <ele>126.9</ele>
        <time>2026-03-26T09:13:16.329Z</time>
      </trkpt>
      <trkpt lat="46.78131" lon="-0.9015">
        <ele>126.4</ele>
        <time>2026-03-26T09:13:23.263Z</time>
      </trkpt>
      <trkpt lat="46.78105" lon="-0.90133">
        <ele>126.5</ele>
        <time>2026-03-26T09:13:27.982Z</time>
      </trkpt>
      <trkpt lat="46.78081" lon="-0.90114">
        <ele>127.1</ele>
        <time>2026-03-26T09:13:33.454Z</time>
      </trkpt>
      <trkpt lat="46.7806" lon="-0.90094">
        <ele>128.1</ele>
        <time>2026-03-26T09:13:39.631Z</time>
      </trkpt>
      <trkpt lat="46.78045" lon="-0.90078">
        <ele>128.6</ele>
        <time>2026-03-26T09:13:43.564Z</time>
      </trkpt>
      <trkpt lat="46.78" lon="-0.90019">
        <ele>128</ele>
        <time>2026-03-26T09:13:52.404Z</time>
      </trkpt>
      <trkpt lat="46.77979" lon="-0.89997">
        <ele>127.5</ele>
        <time>2026-03-26T09:13:55.887Z</time>
      </trkpt>
      <trkpt lat="46.77921" lon="-0.89945">
        <ele>125.5</ele>
        <time>2026-03-26T09:14:04.343Z</time>
      </trkpt>
      <trkpt lat="46.77897" lon="-0.89922">
        <ele>124.3</ele>
        <time>2026-03-26T09:14:07.592Z</time>
      </trkpt>
      <trkpt lat="46.77725" lon="-0.89758">
        <ele>112.2</ele>
        <time>2026-03-26T09:14:28.308Z</time>
      </trkpt>
      <trkpt lat="46.77699" lon="-0.89729">
        <ele>110.5</ele>
        <time>2026-03-26T09:14:31.761Z</time>
      </trkpt>
      <trkpt lat="46.77687" lon="-0.89708">
        <ele>109.7</ele>
        <time>2026-03-26T09:14:33.867Z</time>
      </trkpt>
      <trkpt lat="46.77677" lon="-0.8968">
        <ele>109</ele>
        <time>2026-03-26T09:14:36.493Z</time>
      </trkpt>
      <trkpt lat="46.77666" lon="-0.89639">
        <ele>108</ele>
        <time>2026-03-26T09:14:40.132Z</time>
      </trkpt>
      <trkpt lat="46.77658" lon="-0.89619">
        <ele>108.3</ele>
        <time>2026-03-26T09:14:43.208Z</time>
      </trkpt>
      <trkpt lat="46.77648" lon="-0.896">
        <ele>108.7</ele>
        <time>2026-03-26T09:14:46.585Z</time>
      </trkpt>
      <trkpt lat="46.77641" lon="-0.89589">
        <ele>108.9</ele>
        <time>2026-03-26T09:14:48.590Z</time>
      </trkpt>
      <trkpt lat="46.77629" lon="-0.89572">
        <ele>109.6</ele>
        <time>2026-03-26T09:14:52.810Z</time>
      </trkpt>
      <trkpt lat="46.77613" lon="-0.89556">
        <ele>110.5</ele>
        <time>2026-03-26T09:14:57.988Z</time>
      </trkpt>
      <trkpt lat="46.77606" lon="-0.89549">
        <ele>110.9</ele>
        <time>2026-03-26T09:15:00.274Z</time>
      </trkpt>
      <trkpt lat="46.77601" lon="-0.89543">
        <ele>111.2</ele>
        <time>2026-03-26T09:15:02.001Z</time>
      </trkpt>
      <trkpt lat="46.77521" lon="-0.89468">
        <ele>116.8</ele>
        <time>2026-03-26T09:15:31.815Z</time>
      </trkpt>
      <trkpt lat="46.77437" lon="-0.89405">
        <ele>118.1</ele>
        <time>2026-03-26T09:15:49.157Z</time>
      </trkpt>
      <trkpt lat="46.77419" lon="-0.89386">
        <ele>118.2</ele>
        <time>2026-03-26T09:15:52.872Z</time>
      </trkpt>
      <trkpt lat="46.77406" lon="-0.89368">
        <ele>118.3</ele>
        <time>2026-03-26T09:15:55.901Z</time>
      </trkpt>
      <trkpt lat="46.77392" lon="-0.89345">
        <ele>118.4</ele>
        <time>2026-03-26T09:15:59.434Z</time>
      </trkpt>
      <trkpt lat="46.77372" lon="-0.89304">
        <ele>118.9</ele>
        <time>2026-03-26T09:16:05.814Z</time>
      </trkpt>
      <trkpt lat="46.7732" lon="-0.89189">
        <ele>121.2</ele>
        <time>2026-03-26T09:16:25.236Z</time>
      </trkpt>
      <trkpt lat="46.77309" lon="-0.89174">
        <ele>121.3</ele>
        <time>2026-03-26T09:16:27.807Z</time>
      </trkpt>
      <trkpt lat="46.773" lon="-0.89163">
        <ele>121.3</ele>
        <time>2026-03-26T09:16:29.687Z</time>
      </trkpt>
      <trkpt lat="46.77244" lon="-0.89124">
        <ele>121</ele>
        <time>2026-03-26T09:16:39.184Z</time>
      </trkpt>
      <trkpt lat="46.77219" lon="-0.89106">
        <ele>121.4</ele>
        <time>2026-03-26T09:16:44.334Z</time>
      </trkpt>
      <trkpt lat="46.77198" lon="-0.89088">
        <ele>121.9</ele>
        <time>2026-03-26T09:16:49.139Z</time>
      </trkpt>
      <trkpt lat="46.77179" lon="-0.89067">
        <ele>122.5</ele>
        <time>2026-03-26T09:16:54.087Z</time>
      </trkpt>
      <trkpt lat="46.77163" lon="-0.89045">
        <ele>122.9</ele>
        <time>2026-03-26T09:16:58.316Z</time>
      </trkpt>
      <trkpt lat="46.77103" lon="-0.88945">
        <ele>123.9</ele>
        <time>2026-03-26T09:17:14.566Z</time>
      </trkpt>
      <trkpt lat="46.77086" lon="-0.88925">
        <ele>123.9</ele>
        <time>2026-03-26T09:17:18.062Z</time>
      </trkpt>
      <trkpt lat="46.77068" lon="-0.88908">
        <ele>123.4</ele>
        <time>2026-03-26T09:17:20.858Z</time>
      </trkpt>
      <trkpt lat="46.77021" lon="-0.88875">
        <ele>121.8</ele>
        <time>2026-03-26T09:17:27.272Z</time>
      </trkpt>
      <trkpt lat="46.76998" lon="-0.88853">
        <ele>121</ele>
        <time>2026-03-26T09:17:30.696Z</time>
      </trkpt>
      <trkpt lat="46.7687" lon="-0.88707">
        <ele>125.1</ele>
        <time>2026-03-26T09:18:04.448Z</time>
      </trkpt>
      <trkpt lat="46.76831" lon="-0.88653">
        <ele>126.5</ele>
        <time>2026-03-26T09:18:15.717Z</time>
      </trkpt>
      <trkpt lat="46.76791" lon="-0.88589">
        <ele>128.9</ele>
        <time>2026-03-26T09:18:30.437Z</time>
      </trkpt>
      <trkpt lat="46.7676" lon="-0.88538">
        <ele>129.5</ele>
        <time>2026-03-26T09:18:38.933Z</time>
      </trkpt>
      <trkpt lat="46.76735" lon="-0.88495">
        <ele>129.6</ele>
        <time>2026-03-26T09:18:45.276Z</time>
      </trkpt>
      <trkpt lat="46.76683" lon="-0.88398">
        <ele>128.5</ele>
        <time>2026-03-26T09:18:57.274Z</time>
        <extensions>
          <visugpx:TrkExtension xmlns:visugpx="https://www.visugpx.com/editgpx/">
            <visugpx:node>7</visugpx:node>
            </visugpx:TrkExtension>
        </extensions>
      </trkpt>
      <trkpt lat="46.76654" lon="-0.88345">
        <ele>128.7</ele>
        <time>2026-03-26T09:19:05.031Z</time>
      </trkpt>
      <trkpt lat="46.76637" lon="-0.88314">
        <ele>128.3</ele>
        <time>2026-03-26T09:19:08.844Z</time>
      </trkpt>
      <trkpt lat="46.76604" lon="-0.88255">
        <ele>127.1</ele>
        <time>2026-03-26T09:19:15.665Z</time>
      </trkpt>
      <trkpt lat="46.76584" lon="-0.88224">
        <ele>126.4</ele>
        <time>2026-03-26T09:19:19.448Z</time>
      </trkpt>
      <trkpt lat="46.76565" lon="-0.88201">
        <ele>125</ele>
        <time>2026-03-26T09:19:21.973Z</time>
      </trkpt>
      <trkpt lat="46.76543" lon="-0.88179">
        <ele>123.4</ele>
        <time>2026-03-26T09:19:24.643Z</time>
      </trkpt>
      <trkpt lat="46.76489" lon="-0.88134">
        <ele>119.8</ele>
        <time>2026-03-26T09:19:30.954Z</time>
      </trkpt>
      <trkpt lat="46.76411" lon="-0.88066">
        <ele>115.2</ele>
        <time>2026-03-26T09:19:40.626Z</time>
      </trkpt>
      <trkpt lat="46.76395" lon="-0.8805">
        <ele>114.1</ele>
        <time>2026-03-26T09:19:42.609Z</time>
      </trkpt>
      <trkpt lat="46.76382" lon="-0.88034">
        <ele>113.2</ele>
        <time>2026-03-26T09:19:44.392Z</time>
      </trkpt>
      <trkpt lat="46.7637" lon="-0.88016">
        <ele>112.3</ele>
        <time>2026-03-26T09:19:46.203Z</time>
      </trkpt>
      <trkpt lat="46.7635" lon="-0.87971">
        <ele>110.4</ele>
        <time>2026-03-26T09:19:50.087Z</time>
      </trkpt>
      <trkpt lat="46.76302" lon="-0.87855">
        <ele>106</ele>
        <time>2026-03-26T09:20:00.191Z</time>
      </trkpt>
      <trkpt lat="46.76289" lon="-0.8783">
        <ele>104.9</ele>
        <time>2026-03-26T09:20:02.471Z</time>
      </trkpt>
      <trkpt lat="46.76268" lon="-0.87799">
        <ele>104</ele>
        <time>2026-03-26T09:20:06.160Z</time>
      </trkpt>
      <trkpt lat="46.76236" lon="-0.87761">
        <ele>103</ele>
        <time>2026-03-26T09:20:11.499Z</time>
      </trkpt>
      <trkpt lat="46.76212" lon="-0.87734">
        <ele>103.1</ele>
        <time>2026-03-26T09:20:16.508Z</time>
      </trkpt>
      <trkpt lat="46.762" lon="-0.87714">
        <ele>103.2</ele>
        <time>2026-03-26T09:20:19.584Z</time>
      </trkpt>
      <trkpt lat="46.76194" lon="-0.87703">
        <ele>103.2</ele>
        <time>2026-03-26T09:20:21.127Z</time>
      </trkpt>
      <trkpt lat="46.76187" lon="-0.87689">
        <ele>103.2</ele>
        <time>2026-03-26T09:20:23.029Z</time>
      </trkpt>
      <trkpt lat="46.76181" lon="-0.87667">
        <ele>103.2</ele>
        <time>2026-03-26T09:20:25.626Z</time>
      </trkpt>
      <trkpt lat="46.7617" lon="-0.87624">
        <ele>104</ele>
        <time>2026-03-26T09:20:32.175Z</time>
      </trkpt>
      <trkpt lat="46.76163" lon="-0.876">
        <ele>104.7</ele>
        <time>2026-03-26T09:20:36.540Z</time>
      </trkpt>
      <trkpt lat="46.76152" lon="-0.87576">
        <ele>105.9</ele>
        <time>2026-03-26T09:20:42.889Z</time>
      </trkpt>
      <trkpt lat="46.76141" lon="-0.87561">
        <ele>107.1</ele>
        <time>2026-03-26T09:20:49.143Z</time>
      </trkpt>
      <trkpt lat="46.76098" lon="-0.87512">
        <ele>110.3</ele>
        <time>2026-03-26T09:21:06.195Z</time>
      </trkpt>
      <trkpt lat="46.76088" lon="-0.87496">
        <ele>111.1</ele>
        <time>2026-03-26T09:21:10.554Z</time>
      </trkpt>
      <trkpt lat="46.76046" lon="-0.87416">
        <ele>112.2</ele>
        <time>2026-03-26T09:21:23.525Z</time>
      </trkpt>
      <trkpt lat="46.75815" lon="-0.87007">
        <ele>124</ele>
        <time>2026-03-26T09:22:45.478Z</time>
      </trkpt>
      <trkpt lat="46.75765" lon="-0.86918">
        <ele>126</ele>
        <time>2026-03-26T09:23:01.885Z</time>
      </trkpt>
      <trkpt lat="46.75712" lon="-0.86829">
        <ele>124.6</ele>
        <time>2026-03-26T09:23:12.957Z</time>
      </trkpt>
      <trkpt lat="46.75708" lon="-0.8682">
        <ele>124.2</ele>
        <time>2026-03-26T09:23:13.720Z</time>
      </trkpt>
      <trkpt lat="46.75705" lon="-0.86812">
        <ele>124</ele>
        <time>2026-03-26T09:23:14.481Z</time>
      </trkpt>
      <trkpt lat="46.75566" lon="-0.86502">
        <ele>120.4</ele>
        <time>2026-03-26T09:23:50.220Z</time>
      </trkpt>
      <trkpt lat="46.75558" lon="-0.86487">
        <ele>120.2</ele>
        <time>2026-03-26T09:23:52.035Z</time>
      </trkpt>
      <trkpt lat="46.75542" lon="-0.86466">
        <ele>119.9</ele>
        <time>2026-03-26T09:23:55.072Z</time>
      </trkpt>
      <trkpt lat="46.75532" lon="-0.86459">
        <ele>119.6</ele>
        <time>2026-03-26T09:23:56.475Z</time>
      </trkpt>
      <trkpt lat="46.75523" lon="-0.86455">
        <ele>119.4</ele>
        <time>2026-03-26T09:23:57.723Z</time>
      </trkpt>
      <trkpt lat="46.75511" lon="-0.86454">
        <ele>118.9</ele>
        <time>2026-03-26T09:23:59.085Z</time>
      </trkpt>
      <trkpt lat="46.75496" lon="-0.86458">
        <ele>118.4</ele>
        <time>2026-03-26T09:24:00.931Z</time>
      </trkpt>
      <trkpt lat="46.75422" lon="-0.86488">
        <ele>116.4</ele>
        <time>2026-03-26T09:24:10.728Z</time>
      </trkpt>
      <trkpt lat="46.75408" lon="-0.86492">
        <ele>116.1</ele>
        <time>2026-03-26T09:24:12.624Z</time>
      </trkpt>
      <trkpt lat="46.75394" lon="-0.86494">
        <ele>115.9</ele>
        <time>2026-03-26T09:24:14.604Z</time>
      </trkpt>
      <trkpt lat="46.75377" lon="-0.86493">
        <ele>115.7</ele>
        <time>2026-03-26T09:24:17.051Z</time>
      </trkpt>
      <trkpt lat="46.75362" lon="-0.8649">
        <ele>115.5</ele>
        <time>2026-03-26T09:24:19.201Z</time>
      </trkpt>
      <trkpt lat="46.7535" lon="-0.86486">
        <ele>115.4</ele>
        <time>2026-03-26T09:24:21.029Z</time>
      </trkpt>
      <trkpt lat="46.75338" lon="-0.86479">
        <ele>115.3</ele>
        <time>2026-03-26T09:24:22.955Z</time>
      </trkpt>
      <trkpt lat="46.75315" lon="-0.86455">
        <ele>115.3</ele>
        <time>2026-03-26T09:24:27.484Z</time>
      </trkpt>
      <trkpt lat="46.75153" lon="-0.86197">
        <ele>118.3</ele>
        <time>2026-03-26T09:25:10.949Z</time>
      </trkpt>
      <trkpt lat="46.75137" lon="-0.86175">
        <ele>118.8</ele>
        <time>2026-03-26T09:25:15.393Z</time>
      </trkpt>
      <trkpt lat="46.7511" lon="-0.86145">
        <ele>119.3</ele>
        <time>2026-03-26T09:25:21.688Z</time>
      </trkpt>
      <trkpt lat="46.75093" lon="-0.8613">
        <ele>119.4</ele>
        <time>2026-03-26T09:25:25.028Z</time>
      </trkpt>
      <trkpt lat="46.75055" lon="-0.86105">
        <ele>120.2</ele>
        <time>2026-03-26T09:25:33.134Z</time>
      </trkpt>
      <trkpt lat="46.74993" lon="-0.86065">
        <ele>120.9</ele>
        <time>2026-03-26T09:25:45.151Z</time>
      </trkpt>
      <trkpt lat="46.74916" lon="-0.86017">
        <ele>120</ele>
        <time>2026-03-26T09:25:57.300Z</time>
      </trkpt>
      <trkpt lat="46.74882" lon="-0.8599">
        <ele>119.6</ele>
        <time>2026-03-26T09:26:02.937Z</time>
      </trkpt>
      <trkpt lat="46.74867" lon="-0.85974">
        <ele>119.3</ele>
        <time>2026-03-26T09:26:05.510Z</time>
      </trkpt>
      <trkpt lat="46.74832" lon="-0.85928">
        <ele>118.1</ele>
        <time>2026-03-26T09:26:11.545Z</time>
      </trkpt>
      <trkpt lat="46.74813" lon="-0.85901">
        <ele>116.9</ele>
        <time>2026-03-26T09:26:14.475Z</time>
      </trkpt>
      <trkpt lat="46.74762" lon="-0.85803">
        <ele>110.9</ele>
        <time>2026-03-26T09:26:22.578Z</time>
      </trkpt>
      <trkpt lat="46.74751" lon="-0.85787">
        <ele>109.9</ele>
        <time>2026-03-26T09:26:24.091Z</time>
      </trkpt>
      <trkpt lat="46.74729" lon="-0.85766">
        <ele>107.9</ele>
        <time>2026-03-26T09:26:26.617Z</time>
      </trkpt>
      <trkpt lat="46.74686" lon="-0.85742">
        <ele>104.4</ele>
        <time>2026-03-26T09:26:31.041Z</time>
      </trkpt>
      <trkpt lat="46.74676" lon="-0.85734">
        <ele>103.8</ele>
        <time>2026-03-26T09:26:32.239Z</time>
      </trkpt>
      <trkpt lat="46.74665" lon="-0.85722">
        <ele>103.4</ele>
        <time>2026-03-26T09:26:33.949Z</time>
      </trkpt>
      <trkpt lat="46.74657" lon="-0.85708">
        <ele>103.7</ele>
        <time>2026-03-26T09:26:36.509Z</time>
      </trkpt>
      <trkpt lat="46.74643" lon="-0.85676">
        <ele>104.5</ele>
        <time>2026-03-26T09:26:42.263Z</time>
      </trkpt>
      <trkpt lat="46.74626" lon="-0.85634">
        <ele>106.2</ele>
        <time>2026-03-26T09:26:51.705Z</time>
      </trkpt>
      <trkpt lat="46.74604" lon="-0.85593">
        <ele>108.2</ele>
        <time>2026-03-26T09:27:02.483Z</time>
      </trkpt>
      <trkpt lat="46.74558" lon="-0.85522">
        <ele>112.3</ele>
        <time>2026-03-26T09:27:24.139Z</time>
      </trkpt>
      <trkpt lat="46.74552" lon="-0.85508">
        <ele>113</ele>
        <time>2026-03-26T09:27:27.830Z</time>
      </trkpt>
      <trkpt lat="46.74548" lon="-0.85486">
        <ele>113.8</ele>
        <time>2026-03-26T09:27:32.260Z</time>
      </trkpt>
      <trkpt lat="46.74552" lon="-0.8544">
        <ele>114.8</ele>
        <time>2026-03-26T09:27:39.346Z</time>
      </trkpt>
      <trkpt lat="46.74548" lon="-0.85417">
        <ele>115.4</ele>
        <time>2026-03-26T09:27:43.211Z</time>
      </trkpt>
      <trkpt lat="46.74546" lon="-0.85409">
        <ele>115.5</ele>
        <time>2026-03-26T09:27:44.321Z</time>
      </trkpt>
      <trkpt lat="46.74542" lon="-0.85402">
        <ele>115.7</ele>
        <time>2026-03-26T09:27:45.723Z</time>
      </trkpt>
      <trkpt lat="46.74466" lon="-0.85254">
        <ele>118.5</ele>
        <time>2026-03-26T09:28:11.157Z</time>
      </trkpt>
      <trkpt lat="46.74436" lon="-0.85204">
        <ele>119.1</ele>
        <time>2026-03-26T09:28:19.469Z</time>
      </trkpt>
      <trkpt lat="46.74431" lon="-0.85196">
        <ele>119.2</ele>
        <time>2026-03-26T09:28:20.828Z</time>
        <extensions>
          <visugpx:TrkExtension xmlns:visugpx="https://www.visugpx.com/editgpx/">
            <visugpx:node>8</visugpx:node>
            </visugpx:TrkExtension>
        </extensions>
      </trkpt>
      <trkpt lat="46.74411" lon="-0.85167">
        <ele>119.8</ele>
        <time>2026-03-26T09:28:26.436Z</time>
      </trkpt>
      <trkpt lat="46.74294" lon="-0.85005">
        <ele>117.4</ele>
        <time>2026-03-26T09:28:49.009Z</time>
      </trkpt>
      <trkpt lat="46.74278" lon="-0.84989">
        <ele>117.7</ele>
        <time>2026-03-26T09:28:52.635Z</time>
      </trkpt>
      <trkpt lat="46.74247" lon="-0.84967">
        <ele>118.2</ele>
        <time>2026-03-26T09:28:59.015Z</time>
      </trkpt>
      <trkpt lat="46.74231" lon="-0.84949">
        <ele>118.8</ele>
        <time>2026-03-26T09:29:03.429Z</time>
      </trkpt>
      <trkpt lat="46.74203" lon="-0.84901">
        <ele>120.1</ele>
        <time>2026-03-26T09:29:12.912Z</time>
      </trkpt>
      <trkpt lat="46.74171" lon="-0.84852">
        <ele>120</ele>
        <time>2026-03-26T09:29:20.191Z</time>
      </trkpt>
      <trkpt lat="46.7416" lon="-0.84833">
        <ele>119.4</ele>
        <time>2026-03-26T09:29:22.216Z</time>
      </trkpt>
      <trkpt lat="46.74138" lon="-0.84843">
        <ele>117.1</ele>
        <time>2026-03-26T09:29:24.430Z</time>
      </trkpt>
      <trkpt lat="46.74131" lon="-0.84843">
        <ele>116.5</ele>
        <time>2026-03-26T09:29:25.103Z</time>
      </trkpt>
      <trkpt lat="46.7412" lon="-0.84831">
        <ele>115.5</ele>
        <time>2026-03-26T09:29:26.423Z</time>
      </trkpt>
      <trkpt lat="46.74078" lon="-0.84809">
        <ele>111.6</ele>
        <time>2026-03-26T09:29:30.711Z</time>
      </trkpt>
      <trkpt lat="46.7407" lon="-0.84801">
        <ele>111.1</ele>
        <time>2026-03-26T09:29:31.737Z</time>
      </trkpt>
      <trkpt lat="46.74066" lon="-0.84792">
        <ele>110.8</ele>
        <time>2026-03-26T09:29:32.575Z</time>
      </trkpt>
      <trkpt lat="46.74063" lon="-0.84761">
        <ele>110.7</ele>
        <time>2026-03-26T09:29:35.864Z</time>
      </trkpt>
      <trkpt lat="46.73923" lon="-0.84796">
        <ele>105.6</ele>
        <time>2026-03-26T09:29:52.654Z</time>
      </trkpt>
      <trkpt lat="46.73887" lon="-0.84801">
        <ele>110.1</ele>
        <time>2026-03-26T09:30:16.897Z</time>
      </trkpt>
      <trkpt lat="46.73872" lon="-0.848">
        <ele>112.3</ele>
        <time>2026-03-26T09:30:27.204Z</time>
      </trkpt>
      <trkpt lat="46.73852" lon="-0.84789">
        <ele>114.6</ele>
        <time>2026-03-26T09:30:39.786Z</time>
      </trkpt>
      <trkpt lat="46.73836" lon="-0.84766">
        <ele>115.6</ele>
        <time>2026-03-26T09:30:45.643Z</time>
      </trkpt>
      <trkpt lat="46.73802" lon="-0.84691">
        <ele>117.5</ele>
        <time>2026-03-26T09:30:59.286Z</time>
      </trkpt>
      <trkpt lat="46.73788" lon="-0.84666">
        <ele>117.9</ele>
        <time>2026-03-26T09:31:03.538Z</time>
      </trkpt>
      <trkpt lat="46.73775" lon="-0.84646">
        <ele>118.1</ele>
        <time>2026-03-26T09:31:06.896Z</time>
      </trkpt>
      <trkpt lat="46.73765" lon="-0.84639">
        <ele>118.8</ele>
        <time>2026-03-26T09:31:10.574Z</time>
      </trkpt>
      <trkpt lat="46.73755" lon="-0.84636">
        <ele>119.8</ele>
        <time>2026-03-26T09:31:15.960Z</time>
      </trkpt>
      <trkpt lat="46.73742" lon="-0.84637">
        <ele>121.3</ele>
        <time>2026-03-26T09:31:24.185Z</time>
      </trkpt>
      <trkpt lat="46.73729" lon="-0.84641">
        <ele>122.9</ele>
        <time>2026-03-26T09:31:32.899Z</time>
      </trkpt>
      <trkpt lat="46.73691" lon="-0.84674">
        <ele>129.1</ele>
        <time>2026-03-26T09:32:03.251Z</time>
      </trkpt>
      <trkpt lat="46.73682" lon="-0.84676">
        <ele>130.1</ele>
        <time>2026-03-26T09:32:08.732Z</time>
      </trkpt>
      <trkpt lat="46.73675" lon="-0.84675">
        <ele>130.6</ele>
        <time>2026-03-26T09:32:11.330Z</time>
      </trkpt>
      <trkpt lat="46.73667" lon="-0.84668">
        <ele>131.1</ele>
        <time>2026-03-26T09:32:14.059Z</time>
      </trkpt>
      <trkpt lat="46.7366" lon="-0.84655">
        <ele>130.9</ele>
        <time>2026-03-26T09:32:15.608Z</time>
      </trkpt>
      <trkpt lat="46.73653" lon="-0.84632">
        <ele>130.3</ele>
        <time>2026-03-26T09:32:17.664Z</time>
      </trkpt>
      <trkpt lat="46.73648" lon="-0.8461">
        <ele>129.5</ele>
        <time>2026-03-26T09:32:19.358Z</time>
      </trkpt>
      <trkpt lat="46.73641" lon="-0.8459">
        <ele>129.4</ele>
        <time>2026-03-26T09:32:21.678Z</time>
      </trkpt>
      <trkpt lat="46.73633" lon="-0.84577">
        <ele>129.6</ele>
        <time>2026-03-26T09:32:23.946Z</time>
      </trkpt>
      <trkpt lat="46.73617" lon="-0.84558">
        <ele>130.4</ele>
        <time>2026-03-26T09:32:28.961Z</time>
      </trkpt>
      <trkpt lat="46.73584" lon="-0.8454">
        <ele>133.7</ele>
        <time>2026-03-26T09:32:46.579Z</time>
      </trkpt>
      <trkpt lat="46.73526" lon="-0.84514">
        <ele>137.2</ele>
        <time>2026-03-26T09:33:05.303Z</time>
      </trkpt>
      <trkpt lat="46.73507" lon="-0.84497">
        <ele>138.1</ele>
        <time>2026-03-26T09:33:10.828Z</time>
        <extensions>
          <visugpx:TrkExtension xmlns:visugpx="https://www.visugpx.com/editgpx/">
            <visugpx:node>9</visugpx:node>
            </visugpx:TrkExtension>
        </extensions>
      </trkpt>
      <trkpt lat="46.7346" lon="-0.84438">
        <ele>141.2</ele>
        <time>2026-03-26T09:33:28.149Z</time>
      </trkpt>
      <trkpt lat="46.73416" lon="-0.84379">
        <ele>143.5</ele>
        <time>2026-03-26T09:33:42.626Z</time>
      </trkpt>
      <trkpt lat="46.7339" lon="-0.84352">
        <ele>144</ele>
        <time>2026-03-26T09:33:48.605Z</time>
      </trkpt>
      <trkpt lat="46.73379" lon="-0.84345">
        <ele>144.7</ele>
        <time>2026-03-26T09:33:52.340Z</time>
      </trkpt>
      <trkpt lat="46.73366" lon="-0.84344">
        <ele>146.3</ele>
        <time>2026-03-26T09:34:01.001Z</time>
      </trkpt>
      <trkpt lat="46.73354" lon="-0.84349">
        <ele>148</ele>
        <time>2026-03-26T09:34:09.567Z</time>
      </trkpt>
      <trkpt lat="46.73346" lon="-0.84358">
        <ele>149.4</ele>
        <time>2026-03-26T09:34:16.501Z</time>
      </trkpt>
      <trkpt lat="46.73334" lon="-0.84376">
        <ele>151.5</ele>
        <time>2026-03-26T09:34:27.897Z</time>
      </trkpt>
      <trkpt lat="46.73319" lon="-0.84405">
        <ele>152.8</ele>
        <time>2026-03-26T09:34:35.053Z</time>
      </trkpt>
      <trkpt lat="46.73315" lon="-0.84423">
        <ele>153.1</ele>
        <time>2026-03-26T09:34:37.686Z</time>
      </trkpt>
      <trkpt lat="46.73308" lon="-0.84485">
        <ele>152.2</ele>
        <time>2026-03-26T09:34:43.415Z</time>
      </trkpt>
      <trkpt lat="46.73294" lon="-0.84577">
        <ele>150.2</ele>
        <time>2026-03-26T09:34:51.342Z</time>
      </trkpt>
      <trkpt lat="46.73263" lon="-0.84733">
        <ele>144.6</ele>
        <time>2026-03-26T09:35:03.220Z</time>
      </trkpt>
      <trkpt lat="46.73253" lon="-0.84765">
        <ele>143.9</ele>
        <time>2026-03-26T09:35:06.223Z</time>
      </trkpt>
      <trkpt lat="46.73143" lon="-0.85036">
        <ele>137</ele>
        <time>2026-03-26T09:35:32.513Z</time>
      </trkpt>
      <trkpt lat="46.73127" lon="-0.85061">
        <ele>136.5</ele>
        <time>2026-03-26T09:35:35.621Z</time>
      </trkpt>
      <trkpt lat="46.73106" lon="-0.85078">
        <ele>136.2</ele>
        <time>2026-03-26T09:35:39.052Z</time>
      </trkpt>
      <trkpt lat="46.73001" lon="-0.85136">
        <ele>133.1</ele>
        <time>2026-03-26T09:35:53.197Z</time>
      </trkpt>
      <trkpt lat="46.72973" lon="-0.85145">
        <ele>131.9</ele>
        <time>2026-03-26T09:35:56.442Z</time>
        <extensions>
          <visugpx:TrkExtension xmlns:visugpx="https://www.visugpx.com/editgpx/">
            <visugpx:node>10</visugpx:node>
            </visugpx:TrkExtension>
        </extensions>
      </trkpt>
      <trkpt lat="46.72962" lon="-0.85148">
        <ele>131.4</ele>
        <time>2026-03-26T09:35:57.683Z</time>
      </trkpt>
      <trkpt lat="46.72928" lon="-0.85155">
        <ele>129.8</ele>
        <time>2026-03-26T09:36:01.441Z</time>
      </trkpt>
      <trkpt lat="46.72891" lon="-0.85154">
        <ele>128.6</ele>
        <time>2026-03-26T09:36:05.932Z</time>
      </trkpt>
      <trkpt lat="46.72808" lon="-0.8514">
        <ele>126.9</ele>
        <time>2026-03-26T09:36:17.097Z</time>
      </trkpt>
      <trkpt lat="46.72642" lon="-0.85116">
        <ele>124</ele>
        <time>2026-03-26T09:36:39.949Z</time>
      </trkpt>
      <trkpt lat="46.72622" lon="-0.85116">
        <ele>123.5</ele>
        <time>2026-03-26T09:36:42.522Z</time>
        <extensions>
          <visugpx:TrkExtension xmlns:visugpx="https://www.visugpx.com/editgpx/">
            <visugpx:node>11</visugpx:node>
            </visugpx:TrkExtension>
        </extensions>
      </trkpt>
      <trkpt lat="46.72603" lon="-0.85115">
        <ele>123.1</ele>
        <time>2026-03-26T09:36:45.048Z</time>
      </trkpt>
      <trkpt lat="46.72573" lon="-0.85118">
        <ele>122.4</ele>
        <time>2026-03-26T09:36:48.971Z</time>
      </trkpt>
      <trkpt lat="46.72544" lon="-0.8513">
        <ele>121.8</ele>
        <time>2026-03-26T09:36:53.014Z</time>
      </trkpt>
      <trkpt lat="46.72473" lon="-0.85168">
        <ele>120</ele>
        <time>2026-03-26T09:37:02.837Z</time>
      </trkpt>
      <trkpt lat="46.72429" lon="-0.8521">
        <ele>118.9</ele>
        <time>2026-03-26T09:37:09.831Z</time>
      </trkpt>
      <trkpt lat="46.72405" lon="-0.8523">
        <ele>118.7</ele>
        <time>2026-03-26T09:37:13.969Z</time>
      </trkpt>
      <trkpt lat="46.72392" lon="-0.85239">
        <ele>118.8</ele>
        <time>2026-03-26T09:37:16.435Z</time>
      </trkpt>
      <trkpt lat="46.72299" lon="-0.85276">
        <ele>120.4</ele>
        <time>2026-03-26T09:37:34.671Z</time>
      </trkpt>
      <trkpt lat="46.72287" lon="-0.85282">
        <ele>120.9</ele>
        <time>2026-03-26T09:37:37.779Z</time>
      </trkpt>
      <trkpt lat="46.72285" lon="-0.85282">
        <ele>121</ele>
        <time>2026-03-26T09:37:38.338Z</time>
      </trkpt>
      <trkpt lat="46.72281" lon="-0.85285">
        <ele>121.1</ele>
        <time>2026-03-26T09:37:39.242Z</time>
      </trkpt>
      <trkpt lat="46.7221" lon="-0.85315">
        <ele>124.2</ele>
        <time>2026-03-26T09:37:57.914Z</time>
      </trkpt>
      <trkpt lat="46.72191" lon="-0.85318">
        <ele>124.9</ele>
        <time>2026-03-26T09:38:02.442Z</time>
      </trkpt>
      <trkpt lat="46.72173" lon="-0.85317">
        <ele>125.6</ele>
        <time>2026-03-26T09:38:06.826Z</time>
      </trkpt>
      <trkpt lat="46.72136" lon="-0.85309">
        <ele>125.9</ele>
        <time>2026-03-26T09:38:13.304Z</time>
      </trkpt>
      <trkpt lat="46.72104" lon="-0.85303">
        <ele>126.2</ele>
        <time>2026-03-26T09:38:18.964Z</time>
      </trkpt>
      <trkpt lat="46.72061" lon="-0.85293">
        <ele>126.1</ele>
        <time>2026-03-26T09:38:25.788Z</time>
      </trkpt>
      <trkpt lat="46.72035" lon="-0.85287">
        <ele>125.7</ele>
        <time>2026-03-26T09:38:29.462Z</time>
      </trkpt>
      <trkpt lat="46.72004" lon="-0.85279">
        <ele>125.4</ele>
        <time>2026-03-26T09:38:34.080Z</time>
      </trkpt>
      <trkpt lat="46.71933" lon="-0.85263">
        <ele>124.1</ele>
        <time>2026-03-26T09:38:43.863Z</time>
      </trkpt>
      <trkpt lat="46.71877" lon="-0.8525">
        <ele>123.5</ele>
        <time>2026-03-26T09:38:52.103Z</time>
      </trkpt>
      <trkpt lat="46.71796" lon="-0.85231">
        <ele>122.4</ele>
        <time>2026-03-26T09:39:03.733Z</time>
      </trkpt>
      <trkpt lat="46.71776" lon="-0.85229">
        <ele>121.9</ele>
        <time>2026-03-26T09:39:06.313Z</time>
      </trkpt>
      <trkpt lat="46.71718" lon="-0.85234">
        <ele>120.5</ele>
        <time>2026-03-26T09:39:13.842Z</time>
      </trkpt>
      <trkpt lat="46.7165" lon="-0.85244">
        <ele>119.5</ele>
        <time>2026-03-26T09:39:23.428Z</time>
      </trkpt>
      <trkpt lat="46.71615" lon="-0.85258">
        <ele>117.8</ele>
        <time>2026-03-26T09:39:27.393Z</time>
      </trkpt>
      <trkpt lat="46.71569" lon="-0.85283">
        <ele>116.3</ele>
        <time>2026-03-26T09:39:33.436Z</time>
      </trkpt>
      <trkpt lat="46.71532" lon="-0.85305">
        <ele>117.3</ele>
        <time>2026-03-26T09:39:41.719Z</time>
      </trkpt>
      <trkpt lat="46.7147" lon="-0.85347">
        <ele>118.5</ele>
        <time>2026-03-26T09:39:54.783Z</time>
      </trkpt>
      <trkpt lat="46.71447" lon="-0.85359">
        <ele>118.3</ele>
        <time>2026-03-26T09:39:58.410Z</time>
      </trkpt>
      <trkpt lat="46.71387" lon="-0.85377">
        <ele>118.7</ele>
        <time>2026-03-26T09:40:08.862Z</time>
      </trkpt>
      <trkpt lat="46.71362" lon="-0.85381">
        <ele>118.9</ele>
        <time>2026-03-26T09:40:13.215Z</time>
      </trkpt>
      <trkpt lat="46.71336" lon="-0.85383">
        <ele>119</ele>
        <time>2026-03-26T09:40:17.542Z</time>
      </trkpt>
      <trkpt lat="46.7131" lon="-0.8538">
        <ele>118.9</ele>
        <time>2026-03-26T09:40:21.571Z</time>
      </trkpt>
      <trkpt lat="46.71288" lon="-0.85381">
        <ele>118.8</ele>
        <time>2026-03-26T09:40:24.949Z</time>
      </trkpt>
      <trkpt lat="46.71209" lon="-0.85392">
        <ele>119.1</ele>
        <time>2026-03-26T09:40:38.130Z</time>
      </trkpt>
      <trkpt lat="46.71159" lon="-0.85408">
        <ele>120</ele>
        <time>2026-03-26T09:40:47.915Z</time>
      </trkpt>
      <trkpt lat="46.7112" lon="-0.85424">
        <ele>121.3</ele>
        <time>2026-03-26T09:40:57.015Z</time>
      </trkpt>
      <trkpt lat="46.71046" lon="-0.85466">
        <ele>123.8</ele>
        <time>2026-03-26T09:41:14.727Z</time>
      </trkpt>
      <trkpt lat="46.7102" lon="-0.85478">
        <ele>124.4</ele>
        <time>2026-03-26T09:41:20.195Z</time>
      </trkpt>
      <trkpt lat="46.70997" lon="-0.85481">
        <ele>124.8</ele>
        <time>2026-03-26T09:41:24.597Z</time>
      </trkpt>
      <trkpt lat="46.70819" lon="-0.85499">
        <ele>127.9</ele>
        <time>2026-03-26T09:41:58.630Z</time>
      </trkpt>
      <trkpt lat="46.70709" lon="-0.85508">
        <ele>131.5</ele>
        <time>2026-03-26T09:42:23.546Z</time>
        <extensions>
          <visugpx:TrkExtension xmlns:visugpx="https://www.visugpx.com/editgpx/">
            <visugpx:node>13</visugpx:node>
            </visugpx:TrkExtension>
        </extensions>
      </trkpt>
      <trkpt lat="46.70689" lon="-0.85509">
        <ele>131.2</ele>
        <time>2026-03-26T09:42:26.344Z</time>
      </trkpt>
      <trkpt lat="46.70676" lon="-0.85512">
        <ele>131.1</ele>
        <time>2026-03-26T09:42:28.309Z</time>
      </trkpt>
      <trkpt lat="46.70663" lon="-0.85517">
        <ele>131</ele>
        <time>2026-03-26T09:42:30.318Z</time>
      </trkpt>
      <trkpt lat="46.70661" lon="-0.85512">
        <ele>131</ele>
        <time>2026-03-26T09:42:30.954Z</time>
      </trkpt>
      <trkpt lat="46.70657" lon="-0.85503">
        <ele>131</ele>
        <time>2026-03-26T09:42:32.132Z</time>
      </trkpt>
      <trkpt lat="46.7065" lon="-0.85495">
        <ele>131</ele>
        <time>2026-03-26T09:42:33.556Z</time>
      </trkpt>
      <trkpt lat="46.70621" lon="-0.85482">
        <ele>130.9</ele>
        <time>2026-03-26T09:42:38.267Z</time>
      </trkpt>
      <trkpt lat="46.70615" lon="-0.85477">
        <ele>130.9</ele>
        <time>2026-03-26T09:42:39.373Z</time>
      </trkpt>
      <trkpt lat="46.70595" lon="-0.85444">
        <ele>130.9</ele>
        <time>2026-03-26T09:42:44.210Z</time>
      </trkpt>
      <trkpt lat="46.7058" lon="-0.85402">
        <ele>130.5</ele>
        <time>2026-03-26T09:42:48.857Z</time>
      </trkpt>
      <trkpt lat="46.70575" lon="-0.85377">
        <ele>129.9</ele>
        <time>2026-03-26T09:42:51.005Z</time>
      </trkpt>
      <trkpt lat="46.70574" lon="-0.85325">
        <ele>129.1</ele>
        <time>2026-03-26T09:42:55.691Z</time>
      </trkpt>
      <trkpt lat="46.70573" lon="-0.85283">
        <ele>129.5</ele>
        <time>2026-03-26T09:43:00.990Z</time>
      </trkpt>
      <trkpt lat="46.70569" lon="-0.85262">
        <ele>129.7</ele>
        <time>2026-03-26T09:43:03.724Z</time>
      </trkpt>
      <trkpt lat="46.70559" lon="-0.85239">
        <ele>129.7</ele>
        <time>2026-03-26T09:43:06.714Z</time>
      </trkpt>
      <trkpt lat="46.7054" lon="-0.85212">
        <ele>129.5</ele>
        <time>2026-03-26T09:43:10.676Z</time>
      </trkpt>
      <trkpt lat="46.70518" lon="-0.85188">
        <ele>129.2</ele>
        <time>2026-03-26T09:43:14.657Z</time>
      </trkpt>
      <trkpt lat="46.70495" lon="-0.8517">
        <ele>128.9</ele>
        <time>2026-03-26T09:43:18.420Z</time>
      </trkpt>
      <trkpt lat="46.70266" lon="-0.85045">
        <ele>118.6</ele>
        <time>2026-03-26T09:43:46.037Z</time>
      </trkpt>
      <trkpt lat="46.70228" lon="-0.85023">
        <ele>117.2</ele>
        <time>2026-03-26T09:43:50.930Z</time>
      </trkpt>
      <trkpt lat="46.70219" lon="-0.85018">
        <ele>117</ele>
        <time>2026-03-26T09:43:52.213Z</time>
      </trkpt>
      <trkpt lat="46.70212" lon="-0.84996">
        <ele>116.4</ele>
        <time>2026-03-26T09:43:54.176Z</time>
      </trkpt>
      <trkpt lat="46.70175" lon="-0.84905">
        <ele>114.1</ele>
        <time>2026-03-26T09:44:03.030Z</time>
      </trkpt>
      <trkpt lat="46.70165" lon="-0.84869">
        <ele>114</ele>
        <time>2026-03-26T09:44:07.148Z</time>
      </trkpt>
      <trkpt lat="46.70162" lon="-0.84839">
        <ele>113.8</ele>
        <time>2026-03-26T09:44:10.195Z</time>
      </trkpt>
      <trkpt lat="46.70164" lon="-0.84773">
        <ele>112.4</ele>
        <time>2026-03-26T09:44:15.758Z</time>
      </trkpt>
      <trkpt lat="46.7017" lon="-0.84655">
        <ele>109.8</ele>
        <time>2026-03-26T09:44:25.635Z</time>
      </trkpt>
      <trkpt lat="46.70179" lon="-0.84597">
        <ele>108.8</ele>
        <time>2026-03-26T09:44:30.901Z</time>
      </trkpt>
      <trkpt lat="46.70176" lon="-0.84569">
        <ele>108.3</ele>
        <time>2026-03-26T09:44:33.387Z</time>
      </trkpt>
      <trkpt lat="46.70166" lon="-0.84551">
        <ele>107.6</ele>
        <time>2026-03-26T09:44:35.157Z</time>
      </trkpt>
      <trkpt lat="46.70147" lon="-0.84531">
        <ele>107</ele>
        <time>2026-03-26T09:44:38.157Z</time>
      </trkpt>
      <trkpt lat="46.70085" lon="-0.84496">
        <ele>107.1</ele>
        <time>2026-03-26T09:44:48.958Z</time>
      </trkpt>
      <trkpt lat="46.70047" lon="-0.84454">
        <ele>108.5</ele>
        <time>2026-03-26T09:44:59.338Z</time>
      </trkpt>
      <trkpt lat="46.70029" lon="-0.84447">
        <ele>108.7</ele>
        <time>2026-03-26T09:45:02.654Z</time>
      </trkpt>
      <trkpt lat="46.70004" lon="-0.84449">
        <ele>108.5</ele>
        <time>2026-03-26T09:45:06.378Z</time>
      </trkpt>
      <trkpt lat="46.69925" lon="-0.84461">
        <ele>112</ele>
        <time>2026-03-26T09:45:26.974Z</time>
      </trkpt>
      <trkpt lat="46.69853" lon="-0.84498">
        <ele>114.1</ele>
        <time>2026-03-26T09:45:43.246Z</time>
      </trkpt>
      <trkpt lat="46.69804" lon="-0.84541">
        <ele>113.9</ele>
        <time>2026-03-26T09:45:52.109Z</time>
      </trkpt>
      <trkpt lat="46.69748" lon="-0.84569">
        <ele>113.9</ele>
        <time>2026-03-26T09:46:01.590Z</time>
      </trkpt>
      <trkpt lat="46.69738" lon="-0.84566">
        <ele>114</ele>
        <time>2026-03-26T09:46:03.390Z</time>
      </trkpt>
      <trkpt lat="46.69731" lon="-0.84575">
        <ele>113.5</ele>
        <time>2026-03-26T09:46:04.364Z</time>
      </trkpt>
      <trkpt lat="46.6968" lon="-0.84595">
        <ele>112.7</ele>
        <time>2026-03-26T09:46:11.739Z</time>
      </trkpt>
      <trkpt lat="46.69643" lon="-0.846">
        <ele>112.1</ele>
        <time>2026-03-26T09:46:16.883Z</time>
      </trkpt>
      <trkpt lat="46.69573" lon="-0.84593">
        <ele>111.3</ele>
        <time>2026-03-26T09:46:27.006Z</time>
      </trkpt>
      <trkpt lat="46.69537" lon="-0.84594">
        <ele>112.3</ele>
        <time>2026-03-26T09:46:34.703Z</time>
      </trkpt>
      <trkpt lat="46.69503" lon="-0.84604">
        <ele>113.6</ele>
        <time>2026-03-26T09:46:43.005Z</time>
      </trkpt>
      <trkpt lat="46.69441" lon="-0.84636">
        <ele>116.6</ele>
        <time>2026-03-26T09:47:00.391Z</time>
      </trkpt>
      <trkpt lat="46.69399" lon="-0.84651">
        <ele>117.5</ele>
        <time>2026-03-26T09:47:08.950Z</time>
      </trkpt>
      <trkpt lat="46.69296" lon="-0.84698">
        <ele>115.2</ele>
        <time>2026-03-26T09:47:23.257Z</time>
      </trkpt>
      <trkpt lat="46.69259" lon="-0.84706">
        <ele>113.5</ele>
        <time>2026-03-26T09:47:27.384Z</time>
      </trkpt>
      <trkpt lat="46.69211" lon="-0.84706">
        <ele>112.4</ele>
        <time>2026-03-26T09:47:33.663Z</time>
      </trkpt>
      <trkpt lat="46.69152" lon="-0.84696">
        <ele>112.1</ele>
        <time>2026-03-26T09:47:42.737Z</time>
      </trkpt>
      <trkpt lat="46.69041" lon="-0.84677">
        <ele>112.7</ele>
        <time>2026-03-26T09:48:01.591Z</time>
      </trkpt>
      <trkpt lat="46.69008" lon="-0.84676">
        <ele>112.1</ele>
        <time>2026-03-26T09:48:06.082Z</time>
      </trkpt>
      <trkpt lat="46.68974" lon="-0.84686">
        <ele>112.8</ele>
        <time>2026-03-26T09:48:12.900Z</time>
      </trkpt>
      <trkpt lat="46.68959" lon="-0.84692">
        <ele>113.3</ele>
        <time>2026-03-26T09:48:16.396Z</time>
      </trkpt>
      <trkpt lat="46.68913" lon="-0.84568">
        <ele>115.2</ele>
        <time>2026-03-26T09:48:35.295Z</time>
      </trkpt>
      <trkpt lat="46.68887" lon="-0.84507">
        <ele>116.2</ele>
        <time>2026-03-26T09:48:44.991Z</time>
      </trkpt>
      <trkpt lat="46.68882" lon="-0.84494">
        <ele>116.2</ele>
        <time>2026-03-26T09:48:46.628Z</time>
      </trkpt>
      <trkpt lat="46.68872" lon="-0.84485">
        <ele>116.6</ele>
        <time>2026-03-26T09:48:49.328Z</time>
      </trkpt>
      <trkpt lat="46.68852" lon="-0.84481">
        <ele>117.5</ele>
        <time>2026-03-26T09:48:54.597Z</time>
      </trkpt>
      <trkpt lat="46.68793" lon="-0.8448">
        <ele>122.5</ele>
        <time>2026-03-26T09:49:20.834Z</time>
      </trkpt>
      <trkpt lat="46.68793" lon="-0.84467">
        <ele>122.6</ele>
        <time>2026-03-26T09:49:22.430Z</time>
      </trkpt>
      <trkpt lat="46.68761" lon="-0.84334">
        <ele>129.1</ele>
        <time>2026-03-26T09:49:56.320Z</time>
      </trkpt>
      <trkpt lat="46.68758" lon="-0.84314">
        <ele>129.3</ele>
        <time>2026-03-26T09:49:58.912Z</time>
      </trkpt>
      <trkpt lat="46.68758" lon="-0.84267">
        <ele>129.3</ele>
        <time>2026-03-26T09:50:04.075Z</time>
      </trkpt>
      <trkpt lat="46.68755" lon="-0.8425">
        <ele>129.5</ele>
        <time>2026-03-26T09:50:06.353Z</time>
      </trkpt>
      <trkpt lat="46.68742" lon="-0.84199">
        <ele>129.4</ele>
        <time>2026-03-26T09:50:12.182Z</time>
        <extensions>
          <visugpx:TrkExtension xmlns:visugpx="https://www.visugpx.com/editgpx/">
            <visugpx:node>14</visugpx:node>
            </visugpx:TrkExtension>
        </extensions>
      </trkpt>
      <trkpt lat="46.68739" lon="-0.84189">
        <ele>129.5</ele>
        <time>2026-03-26T09:50:13.551Z</time>
      </trkpt>
      <trkpt lat="46.68738" lon="-0.84184">
        <ele>129.4</ele>
        <time>2026-03-26T09:50:14.000Z</time>
      </trkpt>
      <trkpt lat="46.68738" lon="-0.84179">
        <ele>129.3</ele>
        <time>2026-03-26T09:50:14.426Z</time>
      </trkpt>
      <trkpt lat="46.68738" lon="-0.84159">
        <ele>128.9</ele>
        <time>2026-03-26T09:50:16.134Z</time>
      </trkpt>
      <trkpt lat="46.68752" lon="-0.84089">
        <ele>126</ele>
        <time>2026-03-26T09:50:21.208Z</time>
      </trkpt>
      <trkpt lat="46.68724" lon="-0.84094">
        <ele>129</ele>
        <time>2026-03-26T09:50:37.596Z</time>
      </trkpt>
      <trkpt lat="46.68706" lon="-0.84081">
        <ele>130.8</ele>
        <time>2026-03-26T09:50:47.126Z</time>
      </trkpt>
      <trkpt lat="46.68592" lon="-0.83994">
        <ele>145.3</ele>
        <time>2026-03-26T09:52:06.679Z</time>
      </trkpt>
      <trkpt lat="46.68599" lon="-0.83938">
        <ele>144.8</ele>
        <time>2026-03-26T09:52:12.243Z</time>
      </trkpt>
      <trkpt lat="46.68597" lon="-0.83907">
        <ele>145</ele>
        <time>2026-03-26T09:52:15.993Z</time>
      </trkpt>
      <trkpt lat="46.68588" lon="-0.83879">
        <ele>145.6</ele>
        <time>2026-03-26T09:52:20.554Z</time>
      </trkpt>
      <trkpt lat="46.68573" lon="-0.83839">
        <ele>146.1</ele>
        <time>2026-03-26T09:52:26.432Z</time>
      </trkpt>
      <trkpt lat="46.68535" lon="-0.83773">
        <ele>146.5</ele>
        <time>2026-03-26T09:52:36.542Z</time>
      </trkpt>
      <trkpt lat="46.68514" lon="-0.83723">
        <ele>147.9</ele>
        <time>2026-03-26T09:52:45.868Z</time>
      </trkpt>
      <trkpt lat="46.68507" lon="-0.83685">
        <ele>148.4</ele>
        <time>2026-03-26T09:52:51.080Z</time>
      </trkpt>
      <trkpt lat="46.68509" lon="-0.83635">
        <ele>147.8</ele>
        <time>2026-03-26T09:52:55.784Z</time>
      </trkpt>
      <trkpt lat="46.68529" lon="-0.83501">
        <ele>146.2</ele>
        <time>2026-03-26T09:53:08.713Z</time>
      </trkpt>
      <trkpt lat="46.68532" lon="-0.83446">
        <ele>146.3</ele>
        <time>2026-03-26T09:53:14.930Z</time>
      </trkpt>
      <trkpt lat="46.68531" lon="-0.83417">
        <ele>146.6</ele>
        <time>2026-03-26T09:53:18.638Z</time>
      </trkpt>
      <trkpt lat="46.68529" lon="-0.83384">
        <ele>147.1</ele>
        <time>2026-03-26T09:53:23.194Z</time>
      </trkpt>
      <trkpt lat="46.68527" lon="-0.83357">
        <ele>147.5</ele>
        <time>2026-03-26T09:53:26.908Z</time>
      </trkpt>
      <trkpt lat="46.68496" lon="-0.83162">
        <ele>149</ele>
        <time>2026-03-26T09:53:51.398Z</time>
      </trkpt>
      <trkpt lat="46.68487" lon="-0.83078">
        <ele>149.9</ele>
        <time>2026-03-26T09:54:02.297Z</time>
      </trkpt>
      <trkpt lat="46.68486" lon="-0.83042">
        <ele>150</ele>
        <time>2026-03-26T09:54:06.412Z</time>
      </trkpt>
      <trkpt lat="46.68497" lon="-0.82894">
        <ele>150</ele>
        <time>2026-03-26T09:54:22.768Z</time>
      </trkpt>
      <trkpt lat="46.68501" lon="-0.82741">
        <ele>151</ele>
        <time>2026-03-26T09:54:41.236Z</time>
      </trkpt>
      <trkpt lat="46.68491" lon="-0.82557">
        <ele>150.3</ele>
        <time>2026-03-26T09:55:00.494Z</time>
      </trkpt>
      <trkpt lat="46.6849" lon="-0.82507">
        <ele>149.3</ele>
        <time>2026-03-26T09:55:04.766Z</time>
      </trkpt>
      <trkpt lat="46.6847" lon="-0.82042">
        <ele>151.3</ele>
        <time>2026-03-26T09:55:59.159Z</time>
      </trkpt>
      <trkpt lat="46.68472" lon="-0.82001">
        <ele>151.3</ele>
        <time>2026-03-26T09:56:03.675Z</time>
      </trkpt>
      <trkpt lat="46.68476" lon="-0.8197">
        <ele>151.6</ele>
        <time>2026-03-26T09:56:07.653Z</time>
      </trkpt>
      <trkpt lat="46.68488" lon="-0.81921">
        <ele>152.1</ele>
        <time>2026-03-26T09:56:14.224Z</time>
      </trkpt>
      <trkpt lat="46.68582" lon="-0.81685">
        <ele>156.4</ele>
        <time>2026-03-26T09:56:52.158Z</time>
      </trkpt>
      <trkpt lat="46.68641" lon="-0.81533">
        <ele>157.2</ele>
        <time>2026-03-26T09:57:12.631Z</time>
      </trkpt>
      <trkpt lat="46.68711" lon="-0.81307">
        <ele>157.9</ele>
        <time>2026-03-26T09:57:40.976Z</time>
      </trkpt>
      <trkpt lat="46.68782" lon="-0.81088">
        <ele>159.7</ele>
        <time>2026-03-26T09:58:10.583Z</time>
      </trkpt>
      <trkpt lat="46.68876" lon="-0.80782">
        <ele>157.5</ele>
        <time>2026-03-26T09:58:44.309Z</time>
      </trkpt>
      <trkpt lat="46.68875" lon="-0.80776">
        <ele>157.5</ele>
        <time>2026-03-26T09:58:44.987Z</time>
      </trkpt>
      <trkpt lat="46.68874" lon="-0.80771">
        <ele>157.5</ele>
        <time>2026-03-26T09:58:45.559Z</time>
      </trkpt>
      <trkpt lat="46.68693" lon="-0.80447">
        <ele>157.4</ele>
        <time>2026-03-26T09:59:31.313Z</time>
      </trkpt>
      <trkpt lat="46.68685" lon="-0.80432">
        <ele>157.3</ele>
        <time>2026-03-26T09:59:33.257Z</time>
      </trkpt>
      <trkpt lat="46.68679" lon="-0.80425">
        <ele>157.2</ele>
        <time>2026-03-26T09:59:34.350Z</time>
      </trkpt>
      <trkpt lat="46.68681" lon="-0.80413">
        <ele>157.3</ele>
        <time>2026-03-26T09:59:35.874Z</time>
      </trkpt>
      <trkpt lat="46.68677" lon="-0.80398">
        <ele>157.2</ele>
        <time>2026-03-26T09:59:37.501Z</time>
      </trkpt>
      <trkpt lat="46.68631" lon="-0.80289">
        <ele>156</ele>
        <time>2026-03-26T09:59:49.917Z</time>
      </trkpt>
      <trkpt lat="46.68609" lon="-0.80221">
        <ele>155.1</ele>
        <time>2026-03-26T09:59:56.978Z</time>
      </trkpt>
      <trkpt lat="46.68541" lon="-0.79975">
        <ele>153.6</ele>
        <time>2026-03-26T10:00:23.976Z</time>
      </trkpt>
      <trkpt lat="46.68534" lon="-0.79934">
        <ele>152.9</ele>
        <time>2026-03-26T10:00:27.730Z</time>
      </trkpt>
      <trkpt lat="46.68529" lon="-0.79892">
        <ele>152</ele>
        <time>2026-03-26T10:00:31.324Z</time>
      </trkpt>
      <trkpt lat="46.68528" lon="-0.79873">
        <ele>151.4</ele>
        <time>2026-03-26T10:00:32.762Z</time>
      </trkpt>
      <trkpt lat="46.68527" lon="-0.79861">
        <ele>151.1</ele>
        <time>2026-03-26T10:00:33.740Z</time>
      </trkpt>
      <trkpt lat="46.6853" lon="-0.79839">
        <ele>150.4</ele>
        <time>2026-03-26T10:00:35.437Z</time>
      </trkpt>
      <trkpt lat="46.68535" lon="-0.79823">
        <ele>149.8</ele>
        <time>2026-03-26T10:00:36.729Z</time>
      </trkpt>
      <trkpt lat="46.68541" lon="-0.798">
        <ele>148.8</ele>
        <time>2026-03-26T10:00:38.427Z</time>
      </trkpt>
      <trkpt lat="46.68548" lon="-0.79781">
        <ele>148</ele>
        <time>2026-03-26T10:00:39.967Z</time>
      </trkpt>
      <trkpt lat="46.68554" lon="-0.79768">
        <ele>147.4</ele>
        <time>2026-03-26T10:00:41.072Z</time>
      </trkpt>
      <trkpt lat="46.68559" lon="-0.7976">
        <ele>146.9</ele>
        <time>2026-03-26T10:00:41.786Z</time>
      </trkpt>
      <trkpt lat="46.68594" lon="-0.79722">
        <ele>145.6</ele>
        <time>2026-03-26T10:00:47.191Z</time>
      </trkpt>
      <trkpt lat="46.68605" lon="-0.79707">
        <ele>145.6</ele>
        <time>2026-03-26T10:00:49.603Z</time>
      </trkpt>
      <trkpt lat="46.68607" lon="-0.79701">
        <ele>145.6</ele>
        <time>2026-03-26T10:00:50.336Z</time>
        <extensions>
          <visugpx:TrkExtension xmlns:visugpx="https://www.visugpx.com/editgpx/">
            <visugpx:node>16</visugpx:node>
            </visugpx:TrkExtension>
        </extensions>
      </trkpt>
      <trkpt lat="46.6861" lon="-0.79694">
        <ele>145.5</ele>
        <time>2026-03-26T10:00:51.110Z</time>
      </trkpt>
      <trkpt lat="46.6861" lon="-0.79678">
        <ele>145.2</ele>
        <time>2026-03-26T10:00:52.496Z</time>
      </trkpt>
      <trkpt lat="46.68607" lon="-0.7966">
        <ele>144.7</ele>
        <time>2026-03-26T10:00:53.960Z</time>
      </trkpt>
      <trkpt lat="46.68558" lon="-0.79493">
        <ele>139.3</ele>
        <time>2026-03-26T10:01:07.912Z</time>
      </trkpt>
      <trkpt lat="46.68558" lon="-0.79486">
        <ele>139.3</ele>
        <time>2026-03-26T10:01:08.681Z</time>
      </trkpt>
      <trkpt lat="46.68536" lon="-0.79492">
        <ele>139.7</ele>
        <time>2026-03-26T10:01:12.972Z</time>
      </trkpt>
      <trkpt lat="46.68513" lon="-0.79498">
        <ele>139.9</ele>
        <time>2026-03-26T10:01:17.041Z</time>
      </trkpt>
      <trkpt lat="46.68461" lon="-0.79518">
        <ele>140.8</ele>
        <time>2026-03-26T10:01:27.230Z</time>
      </trkpt>
      <trkpt lat="46.68461" lon="-0.79506">
        <ele>141.2</ele>
        <time>2026-03-26T10:01:29.489Z</time>
      </trkpt>
      <trkpt lat="46.68507" lon="-0.79287">
        <ele>143.4</ele>
        <time>2026-03-26T10:01:58.414Z</time>
      </trkpt>
      <trkpt lat="46.68518" lon="-0.79191">
        <ele>142.2</ele>
        <time>2026-03-26T10:02:07.516Z</time>
      </trkpt>
      <trkpt lat="46.68523" lon="-0.79172">
        <ele>141.9</ele>
        <time>2026-03-26T10:02:09.364Z</time>
      </trkpt>
      <trkpt lat="46.68538" lon="-0.79141">
        <ele>141.6</ele>
        <time>2026-03-26T10:02:13.114Z</time>
      </trkpt>
      <trkpt lat="46.68564" lon="-0.79016">
        <ele>141.1</ele>
        <time>2026-03-26T10:02:26.736Z</time>
      </trkpt>
      <trkpt lat="46.68568" lon="-0.79008">
        <ele>140.8</ele>
        <time>2026-03-26T10:02:27.492Z</time>
      </trkpt>
      <trkpt lat="46.68577" lon="-0.78997">
        <ele>140.3</ele>
        <time>2026-03-26T10:02:28.814Z</time>
      </trkpt>
      <trkpt lat="46.68591" lon="-0.7897">
        <ele>140.2</ele>
        <time>2026-03-26T10:02:32.385Z</time>
      </trkpt>
      <trkpt lat="46.68601" lon="-0.78927">
        <ele>140.5</ele>
        <time>2026-03-26T10:02:37.868Z</time>
      </trkpt>
      <trkpt lat="46.68616" lon="-0.78894">
        <ele>141.3</ele>
        <time>2026-03-26T10:02:43.786Z</time>
      </trkpt>
      <trkpt lat="46.68649" lon="-0.78851">
        <ele>143.6</ele>
        <time>2026-03-26T10:02:56.466Z</time>
      </trkpt>
      <trkpt lat="46.68659" lon="-0.78834">
        <ele>144.6</ele>
        <time>2026-03-26T10:03:01.698Z</time>
      </trkpt>
      <trkpt lat="46.68772" lon="-0.78626">
        <ele>151.8</ele>
        <time>2026-03-26T10:03:46.364Z</time>
      </trkpt>
      <trkpt lat="46.6879" lon="-0.78597">
        <ele>153.6</ele>
        <time>2026-03-26T10:03:55.751Z</time>
      </trkpt>
      <trkpt lat="46.68818" lon="-0.78562">
        <ele>155.8</ele>
        <time>2026-03-26T10:04:07.432Z</time>
      </trkpt>
      <trkpt lat="46.68828" lon="-0.78546">
        <ele>156.6</ele>
        <time>2026-03-26T10:04:11.792Z</time>
      </trkpt>
      <trkpt lat="46.6885" lon="-0.78502">
        <ele>157.8</ele>
        <time>2026-03-26T10:04:20.185Z</time>
      </trkpt>
      <trkpt lat="46.68894" lon="-0.78406">
        <ele>161.3</ele>
        <time>2026-03-26T10:04:40.755Z</time>
      </trkpt>
      <trkpt lat="46.68909" lon="-0.78378">
        <ele>163</ele>
        <time>2026-03-26T10:04:49.595Z</time>
      </trkpt>
      <trkpt lat="46.68947" lon="-0.78291">
        <ele>164.2</ele>
        <time>2026-03-26T10:05:03.031Z</time>
      </trkpt>
      <trkpt lat="46.68993" lon="-0.78104">
        <ele>157</ele>
        <time>2026-03-26T10:05:17.326Z</time>
      </trkpt>
      <trkpt lat="46.69001" lon="-0.78062">
        <ele>155.7</ele>
        <time>2026-03-26T10:05:20.670Z</time>
      </trkpt>
      <trkpt lat="46.69004" lon="-0.78025">
        <ele>155.3</ele>
        <time>2026-03-26T10:05:24.224Z</time>
      </trkpt>
      <trkpt lat="46.6901" lon="-0.77914">
        <ele>150.8</ele>
        <time>2026-03-26T10:05:31.925Z</time>
      </trkpt>
      <trkpt lat="46.69014" lon="-0.77895">
        <ele>149.8</ele>
        <time>2026-03-26T10:05:33.235Z</time>
      </trkpt>
      <trkpt lat="46.69016" lon="-0.77889">
        <ele>149.5</ele>
        <time>2026-03-26T10:05:33.678Z</time>
      </trkpt>
      <trkpt lat="46.69019" lon="-0.77886">
        <ele>149.3</ele>
        <time>2026-03-26T10:05:34.054Z</time>
        <extensions>
          <visugpx:TrkExtension xmlns:visugpx="https://www.visugpx.com/editgpx/">
            <visugpx:node>17</visugpx:node>
            </visugpx:TrkExtension>
        </extensions>
      </trkpt>
      <trkpt lat="46.69022" lon="-0.77883">
        <ele>149.1</ele>
        <time>2026-03-26T10:05:34.431Z</time>
      </trkpt>
      <trkpt lat="46.69101" lon="-0.77818">
        <ele>145.4</ele>
        <time>2026-03-26T10:05:44.775Z</time>
      </trkpt>
      <trkpt lat="46.6914" lon="-0.77788">
        <ele>144.8</ele>
        <time>2026-03-26T10:05:51.015Z</time>
      </trkpt>
      <trkpt lat="46.69266" lon="-0.77714">
        <ele>149.1</ele>
        <time>2026-03-26T10:06:21.374Z</time>
      </trkpt>
      <trkpt lat="46.69273" lon="-0.77711">
        <ele>149.3</ele>
        <time>2026-03-26T10:06:22.928Z</time>
      </trkpt>
      <trkpt lat="46.69279" lon="-0.77705">
        <ele>149.6</ele>
        <time>2026-03-26T10:06:24.750Z</time>
      </trkpt>
      <trkpt lat="46.69293" lon="-0.77687">
        <ele>150.4</ele>
        <time>2026-03-26T10:06:29.519Z</time>
      </trkpt>
      <trkpt lat="46.69314" lon="-0.77653">
        <ele>151.5</ele>
        <time>2026-03-26T10:06:36.816Z</time>
      </trkpt>
      <trkpt lat="46.69323" lon="-0.77637">
        <ele>152.1</ele>
        <time>2026-03-26T10:06:40.416Z</time>
      </trkpt>
      <trkpt lat="46.69367" lon="-0.77531">
        <ele>156.6</ele>
        <time>2026-03-26T10:07:05.074Z</time>
      </trkpt>
      <trkpt lat="46.69379" lon="-0.77506">
        <ele>157.4</ele>
        <time>2026-03-26T10:07:10.129Z</time>
      </trkpt>
      <trkpt lat="46.69445" lon="-0.77396">
        <ele>159.2</ele>
        <time>2026-03-26T10:07:29.368Z</time>
      </trkpt>
      <trkpt lat="46.69462" lon="-0.77373">
        <ele>159.5</ele>
        <time>2026-03-26T10:07:33.590Z</time>
      </trkpt>
      <trkpt lat="46.69513" lon="-0.77312">
        <ele>160.3</ele>
        <time>2026-03-26T10:07:45.501Z</time>
      </trkpt>
      <trkpt lat="46.69521" lon="-0.77298">
        <ele>160.5</ele>
        <time>2026-03-26T10:07:47.851Z</time>
      </trkpt>
      <trkpt lat="46.69526" lon="-0.77286">
        <ele>160.7</ele>
        <time>2026-03-26T10:07:49.756Z</time>
      </trkpt>
      <trkpt lat="46.69539" lon="-0.77245">
        <ele>161.5</ele>
        <time>2026-03-26T10:07:56.235Z</time>
      </trkpt>
      <trkpt lat="46.69548" lon="-0.7723">
        <ele>161.8</ele>
        <time>2026-03-26T10:07:58.974Z</time>
      </trkpt>
      <trkpt lat="46.69612" lon="-0.77153">
        <ele>164.8</ele>
        <time>2026-03-26T10:08:18.523Z</time>
      </trkpt>
      <trkpt lat="46.69647" lon="-0.77105">
        <ele>168.7</ele>
        <time>2026-03-26T10:08:38.882Z</time>
      </trkpt>
      <trkpt lat="46.69652" lon="-0.771">
        <ele>169.2</ele>
        <time>2026-03-26T10:08:41.497Z</time>
      </trkpt>
      <trkpt lat="46.69662" lon="-0.77087">
        <ele>170.5</ele>
        <time>2026-03-26T10:08:48.486Z</time>
      </trkpt>
      <trkpt lat="46.69685" lon="-0.77067">
        <ele>172.6</ele>
        <time>2026-03-26T10:08:59.416Z</time>
      </trkpt>
      <trkpt lat="46.69749" lon="-0.77019">
        <ele>178.5</ele>
        <time>2026-03-26T10:09:30.248Z</time>
      </trkpt>
      <trkpt lat="46.69767" lon="-0.77009">
        <ele>179.8</ele>
        <time>2026-03-26T10:09:37.024Z</time>
      </trkpt>
      <trkpt lat="46.69789" lon="-0.76995">
        <ele>181.2</ele>
        <time>2026-03-26T10:09:44.494Z</time>
      </trkpt>
      <trkpt lat="46.69802" lon="-0.76988">
        <ele>181.9</ele>
        <time>2026-03-26T10:09:48.392Z</time>
      </trkpt>
      <trkpt lat="46.69814" lon="-0.76981">
        <ele>182.6</ele>
        <time>2026-03-26T10:09:52.201Z</time>
      </trkpt>
      <trkpt lat="46.69829" lon="-0.7697">
        <ele>183.4</ele>
        <time>2026-03-26T10:09:56.754Z</time>
      </trkpt>
      <trkpt lat="46.69841" lon="-0.7696">
        <ele>183.7</ele>
        <time>2026-03-26T10:09:59.516Z</time>
      </trkpt>
      <trkpt lat="46.69851" lon="-0.76957">
        <ele>183.8</ele>
        <time>2026-03-26T10:10:01.316Z</time>
      </trkpt>
      <trkpt lat="46.69868" lon="-0.76955">
        <ele>184.1</ele>
        <time>2026-03-26T10:10:04.577Z</time>
      </trkpt>
      <trkpt lat="46.69886" lon="-0.76949">
        <ele>184.4</ele>
        <time>2026-03-26T10:10:08.057Z</time>
      </trkpt>
      <trkpt lat="46.69897" lon="-0.7694">
        <ele>184.6</ele>
        <time>2026-03-26T10:10:10.424Z</time>
      </trkpt>
      <trkpt lat="46.69901" lon="-0.76932">
        <ele>184.7</ele>
        <time>2026-03-26T10:10:11.684Z</time>
      </trkpt>
      <trkpt lat="46.69911" lon="-0.76905">
        <ele>184.7</ele>
        <time>2026-03-26T10:10:15.054Z</time>
      </trkpt>
      <trkpt lat="46.69918" lon="-0.7689">
        <ele>184.6</ele>
        <time>2026-03-26T10:10:16.904Z</time>
      </trkpt>
      <trkpt lat="46.69929" lon="-0.76876">
        <ele>184.1</ele>
        <time>2026-03-26T10:10:18.652Z</time>
      </trkpt>
      <trkpt lat="46.69992" lon="-0.76801">
        <ele>180</ele>
        <time>2026-03-26T10:10:27.323Z</time>
      </trkpt>
      <trkpt lat="46.7001" lon="-0.76778">
        <ele>178.7</ele>
        <time>2026-03-26T10:10:29.809Z</time>
      </trkpt>
      <trkpt lat="46.70011" lon="-0.76775">
        <ele>178.5</ele>
        <time>2026-03-26T10:10:30.029Z</time>
        <extensions>
          <visugpx:TrkExtension xmlns:visugpx="https://www.visugpx.com/editgpx/">
            <visugpx:node>18</visugpx:node>
            </visugpx:TrkExtension>
        </extensions>
      </trkpt>
      <trkpt lat="46.70016" lon="-0.76766">
        <ele>178.1</ele>
        <time>2026-03-26T10:10:30.876Z</time>
      </trkpt>
      <trkpt lat="46.70028" lon="-0.76792">
        <ele>177.7</ele>
        <time>2026-03-26T10:10:33.790Z</time>
      </trkpt>
      <trkpt lat="46.7006" lon="-0.76842">
        <ele>176.9</ele>
        <time>2026-03-26T10:10:40.234Z</time>
      </trkpt>
      <trkpt lat="46.70187" lon="-0.77016">
        <ele>180.4</ele>
        <time>2026-03-26T10:11:14.452Z</time>
      </trkpt>
      <trkpt lat="46.70283" lon="-0.77169">
        <ele>184.6</ele>
        <time>2026-03-26T10:11:45.470Z</time>
      </trkpt>
      <trkpt lat="46.70379" lon="-0.77346">
        <ele>181.2</ele>
        <time>2026-03-26T10:12:05.874Z</time>
      </trkpt>
      <trkpt lat="46.70394" lon="-0.77368">
        <ele>180.2</ele>
        <time>2026-03-26T10:12:08.196Z</time>
      </trkpt>
      <trkpt lat="46.70408" lon="-0.77382">
        <ele>179.5</ele>
        <time>2026-03-26T10:12:10.126Z</time>
      </trkpt>
      <trkpt lat="46.7042" lon="-0.77383">
        <ele>178.8</ele>
        <time>2026-03-26T10:12:11.343Z</time>
      </trkpt>
      <trkpt lat="46.70425" lon="-0.77384">
        <ele>178.5</ele>
        <time>2026-03-26T10:12:11.850Z</time>
      </trkpt>
      <trkpt lat="46.70443" lon="-0.77375">
        <ele>177.6</ele>
        <time>2026-03-26T10:12:13.923Z</time>
      </trkpt>
      <trkpt lat="46.70465" lon="-0.77353">
        <ele>176.8</ele>
        <time>2026-03-26T10:12:17.221Z</time>
      </trkpt>
      <trkpt lat="46.70483" lon="-0.77344">
        <ele>176.3</ele>
        <time>2026-03-26T10:12:19.644Z</time>
      </trkpt>
      <trkpt lat="46.70583" lon="-0.77333">
        <ele>176</ele>
        <time>2026-03-26T10:12:35.259Z</time>
      </trkpt>
      <trkpt lat="46.70603" lon="-0.77335">
        <ele>176.4</ele>
        <time>2026-03-26T10:12:39.190Z</time>
      </trkpt>
      <trkpt lat="46.70647" lon="-0.77348">
        <ele>176.8</ele>
        <time>2026-03-26T10:12:47.035Z</time>
      </trkpt>
      <trkpt lat="46.70672" lon="-0.77352">
        <ele>177.2</ele>
        <time>2026-03-26T10:12:51.758Z</time>
      </trkpt>
      <trkpt lat="46.70697" lon="-0.77352">
        <ele>177.7</ele>
        <time>2026-03-26T10:12:56.663Z</time>
      </trkpt>
      <trkpt lat="46.70734" lon="-0.77347">
        <ele>178.5</ele>
        <time>2026-03-26T10:13:04.074Z</time>
      </trkpt>
      <trkpt lat="46.70758" lon="-0.77338">
        <ele>179.1</ele>
        <time>2026-03-26T10:13:09.165Z</time>
      </trkpt>
      <trkpt lat="46.70776" lon="-0.77325">
        <ele>179.7</ele>
        <time>2026-03-26T10:13:13.563Z</time>
      </trkpt>
      <trkpt lat="46.70794" lon="-0.77306">
        <ele>180.2</ele>
        <time>2026-03-26T10:13:18.042Z</time>
      </trkpt>
      <trkpt lat="46.70812" lon="-0.77281">
        <ele>180.6</ele>
        <time>2026-03-26T10:13:22.720Z</time>
      </trkpt>
      <trkpt lat="46.70834" lon="-0.77243">
        <ele>180.9</ele>
        <time>2026-03-26T10:13:28.672Z</time>
      </trkpt>
      <trkpt lat="46.70848" lon="-0.77221">
        <ele>180.8</ele>
        <time>2026-03-26T10:13:31.822Z</time>
      </trkpt>
      <trkpt lat="46.70858" lon="-0.77212">
        <ele>180.7</ele>
        <time>2026-03-26T10:13:33.561Z</time>
      </trkpt>
      <trkpt lat="46.70865" lon="-0.77209">
        <ele>180.7</ele>
        <time>2026-03-26T10:13:34.730Z</time>
      </trkpt>
      <trkpt lat="46.7087" lon="-0.77227">
        <ele>181</ele>
        <time>2026-03-26T10:13:37.415Z</time>
      </trkpt>
      <trkpt lat="46.7089" lon="-0.77264">
        <ele>181.8</ele>
        <time>2026-03-26T10:13:44.092Z</time>
        <extensions>
          <visugpx:TrkExtension xmlns:visugpx="https://www.visugpx.com/editgpx/">
            <visugpx:node>19</visugpx:node>
            </visugpx:TrkExtension>
        </extensions>
      </trkpt>
      <trkpt lat="46.70916" lon="-0.77313">
        <ele>182.7</ele>
        <time>2026-03-26T10:13:52.534Z</time>
      </trkpt>
      <trkpt lat="46.70926" lon="-0.77338">
        <ele>182.7</ele>
        <time>2026-03-26T10:13:55.713Z</time>
      </trkpt>
      <trkpt lat="46.70939" lon="-0.77422">
        <ele>180.3</ele>
        <time>2026-03-26T10:14:02.453Z</time>
      </trkpt>
      <trkpt lat="46.70939" lon="-0.77438">
        <ele>179.6</ele>
        <time>2026-03-26T10:14:03.526Z</time>
      </trkpt>
      <trkpt lat="46.70935" lon="-0.77478">
        <ele>178.2</ele>
        <time>2026-03-26T10:14:06.480Z</time>
      </trkpt>
      <trkpt lat="46.70897" lon="-0.77623">
        <ele>178.9</ele>
        <time>2026-03-26T10:14:24.651Z</time>
      </trkpt>
      <trkpt lat="46.70896" lon="-0.77637">
        <ele>179.1</ele>
        <time>2026-03-26T10:14:26.559Z</time>
      </trkpt>
      <trkpt lat="46.70895" lon="-0.7766">
        <ele>179.4</ele>
        <time>2026-03-26T10:14:29.626Z</time>
      </trkpt>
      <trkpt lat="46.70896" lon="-0.77752">
        <ele>178.8</ele>
        <time>2026-03-26T10:14:38.882Z</time>
      </trkpt>
      <trkpt lat="46.70898" lon="-0.77807">
        <ele>178.9</ele>
        <time>2026-03-26T10:14:45.086Z</time>
      </trkpt>
      <trkpt lat="46.70904" lon="-0.77836">
        <ele>179</ele>
        <time>2026-03-26T10:14:48.571Z</time>
      </trkpt>
      <trkpt lat="46.70928" lon="-0.77903">
        <ele>177.7</ele>
        <time>2026-03-26T10:14:55.235Z</time>
      </trkpt>
      <trkpt lat="46.70943" lon="-0.77959">
        <ele>176.9</ele>
        <time>2026-03-26T10:15:00.787Z</time>
      </trkpt>
      <trkpt lat="46.70958" lon="-0.78034">
        <ele>175.9</ele>
        <time>2026-03-26T10:15:08.047Z</time>
      </trkpt>
      <trkpt lat="46.70971" lon="-0.78068">
        <ele>175.2</ele>
        <time>2026-03-26T10:15:11.447Z</time>
      </trkpt>
      <trkpt lat="46.70999" lon="-0.78128">
        <ele>173.9</ele>
        <time>2026-03-26T10:15:17.791Z</time>
      </trkpt>
      <trkpt lat="46.71047" lon="-0.78243">
        <ele>170.6</ele>
        <time>2026-03-26T10:15:28.716Z</time>
      </trkpt>
      <trkpt lat="46.71058" lon="-0.78277">
        <ele>169.6</ele>
        <time>2026-03-26T10:15:31.699Z</time>
      </trkpt>
      <trkpt lat="46.71065" lon="-0.78303">
        <ele>168.8</ele>
        <time>2026-03-26T10:15:33.867Z</time>
      </trkpt>
      <trkpt lat="46.71069" lon="-0.78332">
        <ele>168</ele>
        <time>2026-03-26T10:15:36.203Z</time>
      </trkpt>
      <trkpt lat="46.71065" lon="-0.78399">
        <ele>166.3</ele>
        <time>2026-03-26T10:15:41.615Z</time>
      </trkpt>
      <trkpt lat="46.71065" lon="-0.78437">
        <ele>165</ele>
        <time>2026-03-26T10:15:44.403Z</time>
      </trkpt>
      <trkpt lat="46.7107" lon="-0.78464">
        <ele>164</ele>
        <time>2026-03-26T10:15:46.424Z</time>
      </trkpt>
      <trkpt lat="46.71081" lon="-0.78493">
        <ele>163.2</ele>
        <time>2026-03-26T10:15:49.124Z</time>
      </trkpt>
      <trkpt lat="46.71095" lon="-0.78519">
        <ele>162.4</ele>
        <time>2026-03-26T10:15:51.816Z</time>
      </trkpt>
      <trkpt lat="46.7111" lon="-0.78542">
        <ele>162.1</ele>
        <time>2026-03-26T10:15:54.891Z</time>
      </trkpt>
      <trkpt lat="46.71135" lon="-0.78586">
        <ele>162.7</ele>
        <time>2026-03-26T10:16:02.204Z</time>
      </trkpt>
      <trkpt lat="46.71209" lon="-0.78737">
        <ele>163</ele>
        <time>2026-03-26T10:16:23.051Z</time>
      </trkpt>
      <trkpt lat="46.71245" lon="-0.78812">
        <ele>162.3</ele>
        <time>2026-03-26T10:16:32.127Z</time>
      </trkpt>
      <trkpt lat="46.71263" lon="-0.78855">
        <ele>162.9</ele>
        <time>2026-03-26T10:16:38.715Z</time>
      </trkpt>
      <trkpt lat="46.71296" lon="-0.78966">
        <ele>163.2</ele>
        <time>2026-03-26T10:16:52.471Z</time>
      </trkpt>
      <trkpt lat="46.71374" lon="-0.79223">
        <ele>158.4</ele>
        <time>2026-03-26T10:17:17.279Z</time>
      </trkpt>
      <trkpt lat="46.71382" lon="-0.79249">
        <ele>157.8</ele>
        <time>2026-03-26T10:17:19.681Z</time>
      </trkpt>
      <trkpt lat="46.71396" lon="-0.79283">
        <ele>157.5</ele>
        <time>2026-03-26T10:17:23.617Z</time>
        <extensions>
          <visugpx:TrkExtension xmlns:visugpx="https://www.visugpx.com/editgpx/">
            <visugpx:node>20</visugpx:node>
            </visugpx:TrkExtension>
        </extensions>
      </trkpt>
      <trkpt lat="46.71404" lon="-0.79301">
        <ele>157.3</ele>
        <time>2026-03-26T10:17:25.699Z</time>
      </trkpt>
      <trkpt lat="46.71476" lon="-0.79405">
        <ele>156.3</ele>
        <time>2026-03-26T10:17:40.518Z</time>
      </trkpt>
      <trkpt lat="46.71496" lon="-0.79437">
        <ele>156.4</ele>
        <time>2026-03-26T10:17:45.429Z</time>
      </trkpt>
      <trkpt lat="46.71525" lon="-0.79495">
        <ele>155.3</ele>
        <time>2026-03-26T10:17:51.898Z</time>
      </trkpt>
      <trkpt lat="46.71533" lon="-0.79514">
        <ele>155</ele>
        <time>2026-03-26T10:17:53.953Z</time>
      </trkpt>
      <trkpt lat="46.71539" lon="-0.79536">
        <ele>154.4</ele>
        <time>2026-03-26T10:17:55.857Z</time>
      </trkpt>
      <trkpt lat="46.71574" lon="-0.79686">
        <ele>153.3</ele>
        <time>2026-03-26T10:18:11.708Z</time>
      </trkpt>
      <trkpt lat="46.71602" lon="-0.7979">
        <ele>152</ele>
        <time>2026-03-26T10:18:22.239Z</time>
      </trkpt>
      <trkpt lat="46.71617" lon="-0.79824">
        <ele>151</ele>
        <time>2026-03-26T10:18:25.512Z</time>
      </trkpt>
      <trkpt lat="46.71629" lon="-0.79842">
        <ele>150.3</ele>
        <time>2026-03-26T10:18:27.476Z</time>
      </trkpt>
      <trkpt lat="46.71644" lon="-0.79861">
        <ele>149.8</ele>
        <time>2026-03-26T10:18:30.028Z</time>
      </trkpt>
      <trkpt lat="46.7168" lon="-0.79893">
        <ele>149.2</ele>
        <time>2026-03-26T10:18:35.962Z</time>
      </trkpt>
      <trkpt lat="46.71727" lon="-0.79933">
        <ele>146.7</ele>
        <time>2026-03-26T10:18:41.944Z</time>
      </trkpt>
      <trkpt lat="46.71765" lon="-0.79966">
        <ele>145.1</ele>
        <time>2026-03-26T10:18:47.161Z</time>
      </trkpt>
      <trkpt lat="46.71822" lon="-0.8001">
        <ele>143.3</ele>
        <time>2026-03-26T10:18:55.267Z</time>
      </trkpt>
      <trkpt lat="46.71844" lon="-0.80024">
        <ele>142.8</ele>
        <time>2026-03-26T10:18:58.462Z</time>
      </trkpt>
      <trkpt lat="46.7188" lon="-0.80057">
        <ele>143.1</ele>
        <time>2026-03-26T10:19:05.755Z</time>
      </trkpt>
      <trkpt lat="46.71885" lon="-0.80062">
        <ele>143.2</ele>
        <time>2026-03-26T10:19:06.900Z</time>
      </trkpt>
      <trkpt lat="46.71894" lon="-0.80072">
        <ele>143.4</ele>
        <time>2026-03-26T10:19:09.065Z</time>
      </trkpt>
      <trkpt lat="46.71901" lon="-0.80084">
        <ele>143.6</ele>
        <time>2026-03-26T10:19:11.151Z</time>
      </trkpt>
      <trkpt lat="46.71918" lon="-0.80109">
        <ele>143.7</ele>
        <time>2026-03-26T10:19:15.175Z</time>
      </trkpt>
      <trkpt lat="46.71929" lon="-0.80135">
        <ele>143.2</ele>
        <time>2026-03-26T10:19:17.894Z</time>
      </trkpt>
      <trkpt lat="46.71931" lon="-0.80143">
        <ele>143.2</ele>
        <time>2026-03-26T10:19:18.829Z</time>
      </trkpt>
      <trkpt lat="46.71932" lon="-0.8015">
        <ele>143.2</ele>
        <time>2026-03-26T10:19:19.614Z</time>
      </trkpt>
      <trkpt lat="46.71947" lon="-0.80154">
        <ele>143.2</ele>
        <time>2026-03-26T10:19:22.056Z</time>
      </trkpt>
      <trkpt lat="46.71964" lon="-0.80158">
        <ele>143.4</ele>
        <time>2026-03-26T10:19:25.149Z</time>
      </trkpt>
      <trkpt lat="46.72004" lon="-0.8017">
        <ele>143.7</ele>
        <time>2026-03-26T10:19:32.174Z</time>
      </trkpt>
      <trkpt lat="46.72054" lon="-0.80187">
        <ele>140.4</ele>
        <time>2026-03-26T10:19:37.181Z</time>
      </trkpt>
      <trkpt lat="46.72063" lon="-0.80193">
        <ele>139.9</ele>
        <time>2026-03-26T10:19:38.235Z</time>
      </trkpt>
      <trkpt lat="46.72073" lon="-0.80205">
        <ele>139.5</ele>
        <time>2026-03-26T10:19:39.825Z</time>
      </trkpt>
      <trkpt lat="46.72079" lon="-0.80219">
        <ele>139.5</ele>
        <time>2026-03-26T10:19:41.638Z</time>
      </trkpt>
      <trkpt lat="46.72095" lon="-0.8025">
        <ele>138.6</ele>
        <time>2026-03-26T10:19:44.832Z</time>
      </trkpt>
      <trkpt lat="46.72105" lon="-0.80266">
        <ele>138.5</ele>
        <time>2026-03-26T10:19:47.065Z</time>
      </trkpt>
      <trkpt lat="46.72116" lon="-0.8028">
        <ele>138.4</ele>
        <time>2026-03-26T10:19:49.258Z</time>
      </trkpt>
      <trkpt lat="46.72127" lon="-0.8029">
        <ele>138.2</ele>
        <time>2026-03-26T10:19:51.064Z</time>
      </trkpt>
      <trkpt lat="46.72145" lon="-0.80303">
        <ele>138</ele>
        <time>2026-03-26T10:19:53.999Z</time>
      </trkpt>
      <trkpt lat="46.72165" lon="-0.80312">
        <ele>137.6</ele>
        <time>2026-03-26T10:19:56.825Z</time>
      </trkpt>
      <trkpt lat="46.722" lon="-0.80323">
        <ele>135.5</ele>
        <time>2026-03-26T10:20:00.441Z</time>
      </trkpt>
      <trkpt lat="46.72251" lon="-0.80335">
        <ele>132</ele>
        <time>2026-03-26T10:20:05.405Z</time>
      </trkpt>
      <trkpt lat="46.72302" lon="-0.80336">
        <ele>127.1</ele>
        <time>2026-03-26T10:20:10.306Z</time>
      </trkpt>
      <trkpt lat="46.72355" lon="-0.8033">
        <ele>122.8</ele>
        <time>2026-03-26T10:20:15.414Z</time>
      </trkpt>
      <trkpt lat="46.72408" lon="-0.80332">
        <ele>120.4</ele>
        <time>2026-03-26T10:20:21.271Z</time>
      </trkpt>
      <trkpt lat="46.72435" lon="-0.80335">
        <ele>120.6</ele>
        <time>2026-03-26T10:20:25.931Z</time>
      </trkpt>
      <trkpt lat="46.72442" lon="-0.80336">
        <ele>120.9</ele>
        <time>2026-03-26T10:20:27.723Z</time>
      </trkpt>
      <trkpt lat="46.72447" lon="-0.80337">
        <ele>121.1</ele>
        <time>2026-03-26T10:20:28.963Z</time>
      </trkpt>
      <trkpt lat="46.72483" lon="-0.80346">
        <ele>122.5</ele>
        <time>2026-03-26T10:20:37.794Z</time>
      </trkpt>
      <trkpt lat="46.72491" lon="-0.80348">
        <ele>122.8</ele>
        <time>2026-03-26T10:20:39.725Z</time>
      </trkpt>
      <trkpt lat="46.72515" lon="-0.80358">
        <ele>124.4</ele>
        <time>2026-03-26T10:20:48.113Z</time>
      </trkpt>
      <trkpt lat="46.72537" lon="-0.80368">
        <ele>126.2</ele>
        <time>2026-03-26T10:20:57.480Z</time>
      </trkpt>
      <trkpt lat="46.7257" lon="-0.80384">
        <ele>128.5</ele>
        <time>2026-03-26T10:21:09.492Z</time>
      </trkpt>
      <trkpt lat="46.72672" lon="-0.80435">
        <ele>131.5</ele>
        <time>2026-03-26T10:21:32.555Z</time>
        <extensions>
          <visugpx:TrkExtension xmlns:visugpx="https://www.visugpx.com/editgpx/">
            <visugpx:node>21</visugpx:node>
            </visugpx:TrkExtension>
        </extensions>
      </trkpt>
      <trkpt lat="46.72697" lon="-0.80447">
        <ele>131.7</ele>
        <time>2026-03-26T10:21:37.095Z</time>
      </trkpt>
      <trkpt lat="46.72732" lon="-0.80463">
        <ele>131.6</ele>
        <time>2026-03-26T10:21:42.820Z</time>
      </trkpt>
      <trkpt lat="46.72799" lon="-0.80486">
        <ele>132.9</ele>
        <time>2026-03-26T10:21:56.162Z</time>
      </trkpt>
      <trkpt lat="46.72828" lon="-0.80495">
        <ele>133.9</ele>
        <time>2026-03-26T10:22:02.950Z</time>
      </trkpt>
      <trkpt lat="46.72857" lon="-0.80506">
        <ele>133.9</ele>
        <time>2026-03-26T10:22:07.749Z</time>
      </trkpt>
      <trkpt lat="46.7293" lon="-0.80538">
        <ele>134.1</ele>
        <time>2026-03-26T10:22:20.267Z</time>
      </trkpt>
      <trkpt lat="46.7301" lon="-0.80582">
        <ele>138.6</ele>
        <time>2026-03-26T10:22:44.973Z</time>
      </trkpt>
      <trkpt lat="46.7304" lon="-0.80597">
        <ele>140.4</ele>
        <time>2026-03-26T10:22:54.642Z</time>
      </trkpt>
      <trkpt lat="46.73063" lon="-0.80604">
        <ele>141.7</ele>
        <time>2026-03-26T10:23:01.672Z</time>
      </trkpt>
      <trkpt lat="46.73085" lon="-0.80602">
        <ele>142.8</ele>
        <time>2026-03-26T10:23:07.823Z</time>
      </trkpt>
      <trkpt lat="46.73109" lon="-0.80587">
        <ele>143.6</ele>
        <time>2026-03-26T10:23:13.590Z</time>
      </trkpt>
      <trkpt lat="46.73131" lon="-0.80567">
        <ele>143.9</ele>
        <time>2026-03-26T10:23:18.244Z</time>
      </trkpt>
      <trkpt lat="46.73136" lon="-0.80566">
        <ele>144</ele>
        <time>2026-03-26T10:23:19.232Z</time>
      </trkpt>
      <trkpt lat="46.73142" lon="-0.80565">
        <ele>144.1</ele>
        <time>2026-03-26T10:23:20.374Z</time>
      </trkpt>
      <trkpt lat="46.73164" lon="-0.80567">
        <ele>144.7</ele>
        <time>2026-03-26T10:23:25.057Z</time>
      </trkpt>
      <trkpt lat="46.73175" lon="-0.80567">
        <ele>145</ele>
        <time>2026-03-26T10:23:27.396Z</time>
      </trkpt>
      <trkpt lat="46.7318" lon="-0.80559">
        <ele>145</ele>
        <time>2026-03-26T10:23:28.584Z</time>
      </trkpt>
      <trkpt lat="46.73187" lon="-0.80554">
        <ele>145.1</ele>
        <time>2026-03-26T10:23:30.002Z</time>
      </trkpt>
      <trkpt lat="46.73195" lon="-0.80551">
        <ele>145.3</ele>
        <time>2026-03-26T10:23:31.698Z</time>
      </trkpt>
      <trkpt lat="46.73202" lon="-0.80553">
        <ele>145.5</ele>
        <time>2026-03-26T10:23:33.228Z</time>
      </trkpt>
      <trkpt lat="46.73208" lon="-0.80557">
        <ele>145.7</ele>
        <time>2026-03-26T10:23:34.680Z</time>
      </trkpt>
      <trkpt lat="46.73213" lon="-0.80562">
        <ele>145.7</ele>
        <time>2026-03-26T10:23:35.650Z</time>
      </trkpt>
      <trkpt lat="46.73216" lon="-0.80568">
        <ele>145.7</ele>
        <time>2026-03-26T10:23:36.466Z</time>
      </trkpt>
      <trkpt lat="46.73218" lon="-0.80575">
        <ele>145.7</ele>
        <time>2026-03-26T10:23:37.298Z</time>
      </trkpt>
      <trkpt lat="46.7322" lon="-0.80585">
        <ele>145.6</ele>
        <time>2026-03-26T10:23:38.305Z</time>
      </trkpt>
      <trkpt lat="46.73219" lon="-0.80594">
        <ele>145.7</ele>
        <time>2026-03-26T10:23:39.480Z</time>
      </trkpt>
      <trkpt lat="46.73217" lon="-0.80603">
        <ele>145.7</ele>
        <time>2026-03-26T10:23:40.518Z</time>
      </trkpt>
      <trkpt lat="46.73215" lon="-0.80609">
        <ele>145.7</ele>
        <time>2026-03-26T10:23:41.251Z</time>
      </trkpt>
      <trkpt lat="46.73211" lon="-0.80614">
        <ele>145.7</ele>
        <time>2026-03-26T10:23:42.094Z</time>
      </trkpt>
      <trkpt lat="46.73212" lon="-0.8063">
        <ele>145.8</ele>
        <time>2026-03-26T10:23:44.022Z</time>
      </trkpt>
      <trkpt lat="46.73215" lon="-0.8065">
        <ele>145.9</ele>
        <time>2026-03-26T10:23:46.431Z</time>
      </trkpt>
      <trkpt lat="46.73223" lon="-0.80665">
        <ele>146</ele>
        <time>2026-03-26T10:23:48.679Z</time>
      </trkpt>
      <trkpt lat="46.73232" lon="-0.80675">
        <ele>145.9</ele>
        <time>2026-03-26T10:23:50.349Z</time>
      </trkpt>
      <trkpt lat="46.73244" lon="-0.80682">
        <ele>145.8</ele>
        <time>2026-03-26T10:23:52.275Z</time>
      </trkpt>
      <trkpt lat="46.73256" lon="-0.80682">
        <ele>145.9</ele>
        <time>2026-03-26T10:23:54.360Z</time>
      </trkpt>
      <trkpt lat="46.73267" lon="-0.80678">
        <ele>146.1</ele>
        <time>2026-03-26T10:23:56.529Z</time>
      </trkpt>
      <trkpt lat="46.73281" lon="-0.80667">
        <ele>146.4</ele>
        <time>2026-03-26T10:23:59.610Z</time>
      </trkpt>
      <trkpt lat="46.73294" lon="-0.80661">
        <ele>146.5</ele>
        <time>2026-03-26T10:24:01.956Z</time>
      </trkpt>
      <trkpt lat="46.73307" lon="-0.80659">
        <ele>146.7</ele>
        <time>2026-03-26T10:24:04.395Z</time>
      </trkpt>
      <trkpt lat="46.7339" lon="-0.80667">
        <ele>148.4</ele>
        <time>2026-03-26T10:24:20.791Z</time>
      </trkpt>
      <trkpt lat="46.73423" lon="-0.80669">
        <ele>149.2</ele>
        <time>2026-03-26T10:24:27.576Z</time>
      </trkpt>
      <trkpt lat="46.73448" lon="-0.80669">
        <ele>149.8</ele>
        <time>2026-03-26T10:24:32.700Z</time>
      </trkpt>
      <trkpt lat="46.73545" lon="-0.8066">
        <ele>152</ele>
        <time>2026-03-26T10:24:52.323Z</time>
      </trkpt>
      <trkpt lat="46.7358" lon="-0.80663">
        <ele>152.8</ele>
        <time>2026-03-26T10:24:59.415Z</time>
      </trkpt>
      <trkpt lat="46.73614" lon="-0.80674">
        <ele>152.4</ele>
        <time>2026-03-26T10:25:04.435Z</time>
      </trkpt>
      <trkpt lat="46.73629" lon="-0.80682">
        <ele>152.3</ele>
        <time>2026-03-26T10:25:06.848Z</time>
      </trkpt>
      <trkpt lat="46.73645" lon="-0.80691">
        <ele>152.1</ele>
        <time>2026-03-26T10:25:09.316Z</time>
      </trkpt>
      <trkpt lat="46.73661" lon="-0.80703">
        <ele>152</ele>
        <time>2026-03-26T10:25:12.052Z</time>
        <extensions>
          <visugpx:TrkExtension xmlns:visugpx="https://www.visugpx.com/editgpx/">
            <visugpx:node>22</visugpx:node>
            </visugpx:TrkExtension>
        </extensions>
      </trkpt>
      <trkpt lat="46.73684" lon="-0.80721">
        <ele>151</ele>
        <time>2026-03-26T10:25:15.082Z</time>
      </trkpt>
      <trkpt lat="46.73766" lon="-0.80794">
        <ele>146.1</ele>
        <time>2026-03-26T10:25:25.282Z</time>
      </trkpt>
      <trkpt lat="46.73803" lon="-0.80824">
        <ele>144.6</ele>
        <time>2026-03-26T10:25:30.303Z</time>
      </trkpt>
      <trkpt lat="46.73819" lon="-0.80835">
        <ele>143.9</ele>
        <time>2026-03-26T10:25:32.338Z</time>
      </trkpt>
      <trkpt lat="46.73847" lon="-0.80851">
        <ele>142.9</ele>
        <time>2026-03-26T10:25:35.964Z</time>
      </trkpt>
      <trkpt lat="46.73876" lon="-0.80862">
        <ele>141.6</ele>
        <time>2026-03-26T10:25:39.318Z</time>
      </trkpt>
      <trkpt lat="46.73894" lon="-0.80867">
        <ele>140.7</ele>
        <time>2026-03-26T10:25:41.289Z</time>
      </trkpt>
      <trkpt lat="46.73953" lon="-0.80876">
        <ele>137.5</ele>
        <time>2026-03-26T10:25:47.467Z</time>
      </trkpt>
      <trkpt lat="46.73981" lon="-0.80883">
        <ele>136.1</ele>
        <time>2026-03-26T10:25:50.519Z</time>
      </trkpt>
      <trkpt lat="46.74017" lon="-0.80898">
        <ele>133.6</ele>
        <time>2026-03-26T10:25:54.116Z</time>
      </trkpt>
      <trkpt lat="46.7406" lon="-0.80921">
        <ele>129.9</ele>
        <time>2026-03-26T10:25:58.517Z</time>
      </trkpt>
      <trkpt lat="46.74079" lon="-0.80933">
        <ele>128.4</ele>
        <time>2026-03-26T10:26:00.506Z</time>
      </trkpt>
      <trkpt lat="46.74095" lon="-0.80945">
        <ele>128.4</ele>
        <time>2026-03-26T10:26:03.388Z</time>
      </trkpt>
      <trkpt lat="46.74126" lon="-0.80972">
        <ele>129.7</ele>
        <time>2026-03-26T10:26:11.878Z</time>
      </trkpt>
      <trkpt lat="46.74148" lon="-0.80996">
        <ele>131</ele>
        <time>2026-03-26T10:26:19.297Z</time>
      </trkpt>
      <trkpt lat="46.74162" lon="-0.81015">
        <ele>131.6</ele>
        <time>2026-03-26T10:26:23.557Z</time>
      </trkpt>
      <trkpt lat="46.74219" lon="-0.81103">
        <ele>134.7</ele>
        <time>2026-03-26T10:26:43.389Z</time>
      </trkpt>
      <trkpt lat="46.74271" lon="-0.81177">
        <ele>137.3</ele>
        <time>2026-03-26T10:27:00.428Z</time>
      </trkpt>
      <trkpt lat="46.74313" lon="-0.81224">
        <ele>139.9</ele>
        <time>2026-03-26T10:27:15.052Z</time>
      </trkpt>
      <trkpt lat="46.74343" lon="-0.81254">
        <ele>141.1</ele>
        <time>2026-03-26T10:27:23.307Z</time>
      </trkpt>
      <trkpt lat="46.74367" lon="-0.81273">
        <ele>141.5</ele>
        <time>2026-03-26T10:27:28.368Z</time>
      </trkpt>
      <trkpt lat="46.74397" lon="-0.81292">
        <ele>142.2</ele>
        <time>2026-03-26T10:27:34.882Z</time>
      </trkpt>
      <trkpt lat="46.74516" lon="-0.81356">
        <ele>143.6</ele>
        <time>2026-03-26T10:27:57.528Z</time>
      </trkpt>
      <trkpt lat="46.74574" lon="-0.81389">
        <ele>144</ele>
        <time>2026-03-26T10:28:08.139Z</time>
      </trkpt>
      <trkpt lat="46.74591" lon="-0.8139">
        <ele>144.5</ele>
        <time>2026-03-26T10:28:11.844Z</time>
      </trkpt>
      <trkpt lat="46.74608" lon="-0.81394">
        <ele>145.4</ele>
        <time>2026-03-26T10:28:16.796Z</time>
      </trkpt>
      <trkpt lat="46.74614" lon="-0.81391">
        <ele>145.8</ele>
        <time>2026-03-26T10:28:18.899Z</time>
      </trkpt>
      <trkpt lat="46.74618" lon="-0.81391">
        <ele>146.1</ele>
        <time>2026-03-26T10:28:20.457Z</time>
      </trkpt>
      <trkpt lat="46.74622" lon="-0.81392">
        <ele>146.3</ele>
        <time>2026-03-26T10:28:21.580Z</time>
      </trkpt>
      <trkpt lat="46.74627" lon="-0.81398">
        <ele>146.6</ele>
        <time>2026-03-26T10:28:23.307Z</time>
      </trkpt>
      <trkpt lat="46.7463" lon="-0.81409">
        <ele>146.8</ele>
        <time>2026-03-26T10:28:24.982Z</time>
      </trkpt>
      <trkpt lat="46.74629" lon="-0.8142">
        <ele>146.8</ele>
        <time>2026-03-26T10:28:26.200Z</time>
      </trkpt>
      <trkpt lat="46.74627" lon="-0.81425">
        <ele>146.7</ele>
        <time>2026-03-26T10:28:26.709Z</time>
      </trkpt>
      <trkpt lat="46.74618" lon="-0.81431">
        <ele>146.2</ele>
        <time>2026-03-26T10:28:27.763Z</time>
      </trkpt>
      <trkpt lat="46.74601" lon="-0.81513">
        <ele>146.4</ele>
        <time>2026-03-26T10:28:37.478Z</time>
      </trkpt>
      <trkpt lat="46.74523" lon="-0.81787">
        <ele>143.1</ele>
        <time>2026-03-26T10:29:05.605Z</time>
      </trkpt>
      <trkpt lat="46.74509" lon="-0.81845">
        <ele>141.9</ele>
        <time>2026-03-26T10:29:10.878Z</time>
      </trkpt>
      <trkpt lat="46.74505" lon="-0.81873">
        <ele>141.6</ele>
        <time>2026-03-26T10:29:13.611Z</time>
      </trkpt>
      <trkpt lat="46.74501" lon="-0.81913">
        <ele>141.1</ele>
        <time>2026-03-26T10:29:17.384Z</time>
      </trkpt>
      <trkpt lat="46.74505" lon="-0.81952">
        <ele>140.5</ele>
        <time>2026-03-26T10:29:20.940Z</time>
      </trkpt>
      <trkpt lat="46.74508" lon="-0.81969">
        <ele>140</ele>
        <time>2026-03-26T10:29:22.305Z</time>
      </trkpt>
      <trkpt lat="46.74519" lon="-0.82007">
        <ele>138.3</ele>
        <time>2026-03-26T10:29:25.133Z</time>
      </trkpt>
      <trkpt lat="46.74538" lon="-0.82068">
        <ele>136.2</ele>
        <time>2026-03-26T10:29:30.188Z</time>
        <extensions>
          <visugpx:TrkExtension xmlns:visugpx="https://www.visugpx.com/editgpx/">
            <visugpx:node>23</visugpx:node>
            </visugpx:TrkExtension>
        </extensions>
      </trkpt>
      <trkpt lat="46.74571" lon="-0.82169">
        <ele>139.6</ele>
        <time>2026-03-26T10:29:50.140Z</time>
      </trkpt>
      <trkpt lat="46.74587" lon="-0.82226">
        <ele>140.9</ele>
        <time>2026-03-26T10:29:59.480Z</time>
      </trkpt>
      <trkpt lat="46.74624" lon="-0.82382">
        <ele>145.2</ele>
        <time>2026-03-26T10:30:26.728Z</time>
      </trkpt>
      <trkpt lat="46.74638" lon="-0.82424">
        <ele>145.9</ele>
        <time>2026-03-26T10:30:33.135Z</time>
      </trkpt>
      <trkpt lat="46.74652" lon="-0.82457">
        <ele>146.1</ele>
        <time>2026-03-26T10:30:37.719Z</time>
      </trkpt>
      <trkpt lat="46.74707" lon="-0.82552">
        <ele>146.2</ele>
        <time>2026-03-26T10:30:51.521Z</time>
      </trkpt>
      <trkpt lat="46.74715" lon="-0.82575">
        <ele>146.2</ele>
        <time>2026-03-26T10:30:54.351Z</time>
      </trkpt>
      <trkpt lat="46.7472" lon="-0.82609">
        <ele>146.3</ele>
        <time>2026-03-26T10:30:58.325Z</time>
      </trkpt>
      <trkpt lat="46.7472" lon="-0.82625">
        <ele>146.3</ele>
        <time>2026-03-26T10:31:00.081Z</time>
      </trkpt>
      <trkpt lat="46.74715" lon="-0.82653">
        <ele>146.2</ele>
        <time>2026-03-26T10:31:03.110Z</time>
      </trkpt>
      <trkpt lat="46.74721" lon="-0.82653">
        <ele>146.3</ele>
        <time>2026-03-26T10:31:04.246Z</time>
      </trkpt>
      <trkpt lat="46.74727" lon="-0.82661">
        <ele>146.4</ele>
        <time>2026-03-26T10:31:05.716Z</time>
      </trkpt>
      <trkpt lat="46.74747" lon="-0.82716">
        <ele>146.9</ele>
        <time>2026-03-26T10:31:13.387Z</time>
      </trkpt>
      <trkpt lat="46.74765" lon="-0.82779">
        <ele>147.6</ele>
        <time>2026-03-26T10:31:22.085Z</time>
      </trkpt>
      <trkpt lat="46.74775" lon="-0.82796">
        <ele>147.8</ele>
        <time>2026-03-26T10:31:24.883Z</time>
      </trkpt>
      <trkpt lat="46.74795" lon="-0.82811">
        <ele>148</ele>
        <time>2026-03-26T10:31:28.811Z</time>
      </trkpt>
      <trkpt lat="46.7486" lon="-0.8284">
        <ele>147.6</ele>
        <time>2026-03-26T10:31:39.115Z</time>
      </trkpt>
      <trkpt lat="46.74897" lon="-0.82825">
        <ele>147.4</ele>
        <time>2026-03-26T10:31:44.973Z</time>
      </trkpt>
      <trkpt lat="46.74933" lon="-0.82806">
        <ele>147</ele>
        <time>2026-03-26T10:31:50.543Z</time>
      </trkpt>
      <trkpt lat="46.74949" lon="-0.82794">
        <ele>146.6</ele>
        <time>2026-03-26T10:31:52.909Z</time>
      </trkpt>
      <trkpt lat="46.74956" lon="-0.82958">
        <ele>143.1</ele>
        <time>2026-03-26T10:32:06.714Z</time>
      </trkpt>
      <trkpt lat="46.74961" lon="-0.83002">
        <ele>142.9</ele>
        <time>2026-03-26T10:32:11.319Z</time>
      </trkpt>
      <trkpt lat="46.74992" lon="-0.8319">
        <ele>142.5</ele>
        <time>2026-03-26T10:32:31.943Z</time>
      </trkpt>
      <trkpt lat="46.75009" lon="-0.83249">
        <ele>142.6</ele>
        <time>2026-03-26T10:32:39.122Z</time>
      </trkpt>
      <trkpt lat="46.75089" lon="-0.83496">
        <ele>139.9</ele>
        <time>2026-03-26T10:33:05.425Z</time>
      </trkpt>
      <trkpt lat="46.75123" lon="-0.83607">
        <ele>139</ele>
        <time>2026-03-26T10:33:17.507Z</time>
        <extensions>
          <visugpx:TrkExtension xmlns:visugpx="https://www.visugpx.com/editgpx/">
            <visugpx:node>24</visugpx:node>
            </visugpx:TrkExtension>
        </extensions>
      </trkpt>
      <trkpt lat="46.75145" lon="-0.83677">
        <ele>138.6</ele>
        <time>2026-03-26T10:33:25.384Z</time>
      </trkpt>
      <trkpt lat="46.75206" lon="-0.83934">
        <ele>134.8</ele>
        <time>2026-03-26T10:33:50.277Z</time>
      </trkpt>
      <trkpt lat="46.7526" lon="-0.84121">
        <ele>132.4</ele>
        <time>2026-03-26T10:34:09.344Z</time>
      </trkpt>
      <trkpt lat="46.75285" lon="-0.84194">
        <ele>130.8</ele>
        <time>2026-03-26T10:34:16.333Z</time>
      </trkpt>
      <trkpt lat="46.75286" lon="-0.84188">
        <ele>130.9</ele>
        <time>2026-03-26T10:34:17.197Z</time>
      </trkpt>
      <trkpt lat="46.75301" lon="-0.84161">
        <ele>131.4</ele>
        <time>2026-03-26T10:34:21.920Z</time>
      </trkpt>
      <trkpt lat="46.75318" lon="-0.84138">
        <ele>131.3</ele>
        <time>2026-03-26T10:34:25.485Z</time>
      </trkpt>
      <trkpt lat="46.7536" lon="-0.841">
        <ele>129.4</ele>
        <time>2026-03-26T10:34:31.217Z</time>
      </trkpt>
      <trkpt lat="46.75392" lon="-0.84075">
        <ele>127.5</ele>
        <time>2026-03-26T10:34:35.037Z</time>
      </trkpt>
      <trkpt lat="46.75412" lon="-0.84057">
        <ele>126.5</ele>
        <time>2026-03-26T10:34:37.682Z</time>
      </trkpt>
      <trkpt lat="46.75432" lon="-0.84047">
        <ele>125.3</ele>
        <time>2026-03-26T10:34:39.844Z</time>
      </trkpt>
      <trkpt lat="46.75447" lon="-0.84048">
        <ele>124</ele>
        <time>2026-03-26T10:34:41.287Z</time>
      </trkpt>
      <trkpt lat="46.75464" lon="-0.84056">
        <ele>122.4</ele>
        <time>2026-03-26T10:34:43.003Z</time>
      </trkpt>
      <trkpt lat="46.75513" lon="-0.84091">
        <ele>117.7</ele>
        <time>2026-03-26T10:34:48.245Z</time>
      </trkpt>
      <trkpt lat="46.75535" lon="-0.841">
        <ele>117.4</ele>
        <time>2026-03-26T10:34:51.492Z</time>
      </trkpt>
      <trkpt lat="46.7556" lon="-0.84101">
        <ele>117</ele>
        <time>2026-03-26T10:34:54.959Z</time>
      </trkpt>
      <trkpt lat="46.75678" lon="-0.84075">
        <ele>118.1</ele>
        <time>2026-03-26T10:35:15.877Z</time>
      </trkpt>
      <trkpt lat="46.75751" lon="-0.84041">
        <ele>118.5</ele>
        <time>2026-03-26T10:35:28.785Z</time>
        <extensions>
          <visugpx:TrkExtension xmlns:visugpx="https://www.visugpx.com/editgpx/">
            <visugpx:node>25</visugpx:node>
            </visugpx:TrkExtension>
        </extensions>
      </trkpt>
      <trkpt lat="46.7588" lon="-0.83976">
        <ele>118.9</ele>
        <time>2026-03-26T10:35:51.264Z</time>
      </trkpt>
      <trkpt lat="46.75923" lon="-0.84113">
        <ele>122.6</ele>
        <time>2026-03-26T10:36:15.496Z</time>
      </trkpt>
      <trkpt lat="46.75989" lon="-0.84312">
        <ele>127.3</ele>
        <time>2026-03-26T10:36:49.103Z</time>
      </trkpt>
      <trkpt lat="46.76022" lon="-0.8443">
        <ele>130.9</ele>
        <time>2026-03-26T10:37:10.970Z</time>
      </trkpt>
      <trkpt lat="46.76029" lon="-0.84443">
        <ele>131.1</ele>
        <time>2026-03-26T10:37:13.137Z</time>
      </trkpt>
      <trkpt lat="46.76039" lon="-0.84451">
        <ele>131.1</ele>
        <time>2026-03-26T10:37:14.963Z</time>
      </trkpt>
      <trkpt lat="46.76058" lon="-0.84453">
        <ele>131</ele>
        <time>2026-03-26T10:37:17.868Z</time>
      </trkpt>
      <trkpt lat="46.76071" lon="-0.8445">
        <ele>130.9</ele>
        <time>2026-03-26T10:37:19.832Z</time>
      </trkpt>
      <trkpt lat="46.76084" lon="-0.8444">
        <ele>130.6</ele>
        <time>2026-03-26T10:37:21.795Z</time>
      </trkpt>
      <trkpt lat="46.76133" lon="-0.84386">
        <ele>130.3</ele>
        <time>2026-03-26T10:37:31.188Z</time>
      </trkpt>
      <trkpt lat="46.76147" lon="-0.84374">
        <ele>130.4</ele>
        <time>2026-03-26T10:37:33.948Z</time>
      </trkpt>
      <trkpt lat="46.76156" lon="-0.84368">
        <ele>130.5</ele>
        <time>2026-03-26T10:37:35.698Z</time>
      </trkpt>
      <trkpt lat="46.76164" lon="-0.84367">
        <ele>130.7</ele>
        <time>2026-03-26T10:37:37.361Z</time>
      </trkpt>
      <trkpt lat="46.76169" lon="-0.84369">
        <ele>130.9</ele>
        <time>2026-03-26T10:37:38.618Z</time>
        <extensions>
          <visugpx:TrkExtension xmlns:visugpx="https://www.visugpx.com/editgpx/">
            <visugpx:node>26</visugpx:node>
            </visugpx:TrkExtension>
        </extensions>
      </trkpt>
      <trkpt lat="46.76178" lon="-0.84372">
        <ele>131.2</ele>
        <time>2026-03-26T10:37:40.701Z</time>
      </trkpt>
      <trkpt lat="46.76192" lon="-0.84387">
        <ele>131.9</ele>
        <time>2026-03-26T10:37:45.002Z</time>
      </trkpt>
      <trkpt lat="46.76202" lon="-0.84408">
        <ele>132.6</ele>
        <time>2026-03-26T10:37:49.322Z</time>
      </trkpt>
      <trkpt lat="46.76219" lon="-0.8448">
        <ele>135.7</ele>
        <time>2026-03-26T10:38:05.795Z</time>
      </trkpt>
      <trkpt lat="46.76233" lon="-0.84526">
        <ele>137.8</ele>
        <time>2026-03-26T10:38:16.898Z</time>
      </trkpt>
      <trkpt lat="46.76242" lon="-0.84544">
        <ele>138.7</ele>
        <time>2026-03-26T10:38:21.689Z</time>
      </trkpt>
      <trkpt lat="46.76252" lon="-0.84556">
        <ele>139.4</ele>
        <time>2026-03-26T10:38:25.500Z</time>
      </trkpt>
      <trkpt lat="46.76271" lon="-0.84563">
        <ele>140.2</ele>
        <time>2026-03-26T10:38:30.383Z</time>
      </trkpt>
      <trkpt lat="46.76299" lon="-0.84565">
        <ele>141.3</ele>
        <time>2026-03-26T10:38:37.236Z</time>
      </trkpt>
      <trkpt lat="46.76332" lon="-0.84565">
        <ele>142.5</ele>
        <time>2026-03-26T10:38:45.030Z</time>
      </trkpt>
      <trkpt lat="46.76366" lon="-0.84568">
        <ele>143.3</ele>
        <time>2026-03-26T10:38:51.971Z</time>
      </trkpt>
      <trkpt lat="46.76404" lon="-0.84575">
        <ele>144.4</ele>
        <time>2026-03-26T10:39:00.248Z</time>
      </trkpt>
      <trkpt lat="46.76473" lon="-0.84594">
        <ele>146.4</ele>
        <time>2026-03-26T10:39:15.380Z</time>
      </trkpt>
      <trkpt lat="46.76489" lon="-0.84607">
        <ele>146.7</ele>
        <time>2026-03-26T10:39:18.836Z</time>
      </trkpt>
      <trkpt lat="46.76502" lon="-0.84626">
        <ele>147.1</ele>
        <time>2026-03-26T10:39:22.514Z</time>
      </trkpt>
      <trkpt lat="46.76577" lon="-0.84831">
        <ele>146</ele>
        <time>2026-03-26T10:39:46.424Z</time>
      </trkpt>
      <trkpt lat="46.76607" lon="-0.84921">
        <ele>144.8</ele>
        <time>2026-03-26T10:39:55.807Z</time>
      </trkpt>
      <trkpt lat="46.76641" lon="-0.85039">
        <ele>145.2</ele>
        <time>2026-03-26T10:40:10.482Z</time>
      </trkpt>
      <trkpt lat="46.76649" lon="-0.85063">
        <ele>145.6</ele>
        <time>2026-03-26T10:40:14.143Z</time>
      </trkpt>
      <trkpt lat="46.76659" lon="-0.85078">
        <ele>145.9</ele>
        <time>2026-03-26T10:40:16.984Z</time>
      </trkpt>
      <trkpt lat="46.76671" lon="-0.85087">
        <ele>146.1</ele>
        <time>2026-03-26T10:40:19.489Z</time>
      </trkpt>
      <trkpt lat="46.76678" lon="-0.8509">
        <ele>146.3</ele>
        <time>2026-03-26T10:40:21.042Z</time>
      </trkpt>
      <trkpt lat="46.76695" lon="-0.85086">
        <ele>146.7</ele>
        <time>2026-03-26T10:40:24.541Z</time>
      </trkpt>
      <trkpt lat="46.76729" lon="-0.85066">
        <ele>147.5</ele>
        <time>2026-03-26T10:40:31.876Z</time>
      </trkpt>
      <trkpt lat="46.76752" lon="-0.85054">
        <ele>148.1</ele>
        <time>2026-03-26T10:40:36.913Z</time>
      </trkpt>
      <trkpt lat="46.76768" lon="-0.85049">
        <ele>148.6</ele>
        <time>2026-03-26T10:40:40.524Z</time>
      </trkpt>
      <trkpt lat="46.76782" lon="-0.85054">
        <ele>149</ele>
        <time>2026-03-26T10:40:43.605Z</time>
      </trkpt>
      <trkpt lat="46.76796" lon="-0.85071">
        <ele>149.6</ele>
        <time>2026-03-26T10:40:47.736Z</time>
      </trkpt>
      <trkpt lat="46.76818" lon="-0.85111">
        <ele>150.2</ele>
        <time>2026-03-26T10:40:54.417Z</time>
      </trkpt>
      <trkpt lat="46.76856" lon="-0.85155">
        <ele>149.6</ele>
        <time>2026-03-26T10:41:01.355Z</time>
      </trkpt>
      <trkpt lat="46.76876" lon="-0.85174">
        <ele>148.9</ele>
        <time>2026-03-26T10:41:04.320Z</time>
      </trkpt>
      <trkpt lat="46.76889" lon="-0.8519">
        <ele>148.6</ele>
        <time>2026-03-26T10:41:06.644Z</time>
      </trkpt>
      <trkpt lat="46.76904" lon="-0.85222">
        <ele>148.2</ele>
        <time>2026-03-26T10:41:10.356Z</time>
      </trkpt>
      <trkpt lat="46.76984" lon="-0.85412">
        <ele>142.1</ele>
        <time>2026-03-26T10:41:27.884Z</time>
      </trkpt>
      <trkpt lat="46.77001" lon="-0.85399">
        <ele>142.2</ele>
        <time>2026-03-26T10:41:31.117Z</time>
      </trkpt>
      <trkpt lat="46.77034" lon="-0.85368">
        <ele>141.5</ele>
        <time>2026-03-26T10:41:36.472Z</time>
      </trkpt>
      <trkpt lat="46.77043" lon="-0.85357">
        <ele>141.3</ele>
        <time>2026-03-26T10:41:38.084Z</time>
      </trkpt>
      <trkpt lat="46.77051" lon="-0.85343">
        <ele>141.1</ele>
        <time>2026-03-26T10:41:39.815Z</time>
      </trkpt>
      <trkpt lat="46.77082" lon="-0.85277">
        <ele>140.7</ele>
        <time>2026-03-26T10:41:48.019Z</time>
      </trkpt>
      <trkpt lat="46.77103" lon="-0.85249">
        <ele>139.8</ele>
        <time>2026-03-26T10:41:51.491Z</time>
      </trkpt>
      <trkpt lat="46.77149" lon="-0.85202">
        <ele>137.4</ele>
        <time>2026-03-26T10:41:57.804Z</time>
      </trkpt>
      <trkpt lat="46.77172" lon="-0.8517">
        <ele>137</ele>
        <time>2026-03-26T10:42:02.340Z</time>
      </trkpt>
      <trkpt lat="46.77184" lon="-0.85147">
        <ele>137.2</ele>
        <time>2026-03-26T10:42:05.842Z</time>
      </trkpt>
      <trkpt lat="46.77214" lon="-0.85046">
        <ele>138.4</ele>
        <time>2026-03-26T10:42:20.003Z</time>
      </trkpt>
      <trkpt lat="46.77229" lon="-0.85014">
        <ele>138.8</ele>
        <time>2026-03-26T10:42:24.947Z</time>
      </trkpt>
      <trkpt lat="46.77375" lon="-0.84803">
        <ele>148.1</ele>
        <time>2026-03-26T10:43:19.021Z</time>
      </trkpt>
      <trkpt lat="46.7737" lon="-0.84796">
        <ele>148.2</ele>
        <time>2026-03-26T10:43:20.302Z</time>
      </trkpt>
      <trkpt lat="46.77368" lon="-0.84784">
        <ele>148.6</ele>
        <time>2026-03-26T10:43:22.585Z</time>
      </trkpt>
      <trkpt lat="46.7737" lon="-0.84771">
        <ele>149.1</ele>
        <time>2026-03-26T10:43:25.297Z</time>
      </trkpt>
      <trkpt lat="46.77376" lon="-0.84763">
        <ele>149.5</ele>
        <time>2026-03-26T10:43:27.545Z</time>
      </trkpt>
      <trkpt lat="46.77385" lon="-0.84761">
        <ele>149.8</ele>
        <time>2026-03-26T10:43:29.610Z</time>
      </trkpt>
      <trkpt lat="46.7739" lon="-0.84762">
        <ele>149.9</ele>
        <time>2026-03-26T10:43:30.599Z</time>
      </trkpt>
      <trkpt lat="46.77398" lon="-0.84772">
        <ele>149.8</ele>
        <time>2026-03-26T10:43:32.144Z</time>
      </trkpt>
      <trkpt lat="46.77407" lon="-0.84757">
        <ele>150.5</ele>
        <time>2026-03-26T10:43:36.021Z</time>
      </trkpt>
      <trkpt lat="46.7746" lon="-0.84678">
        <ele>156.1</ele>
        <time>2026-03-26T10:44:05.103Z</time>
      </trkpt>
      <trkpt lat="46.77471" lon="-0.84659">
        <ele>157.5</ele>
        <time>2026-03-26T10:44:12.421Z</time>
      </trkpt>
      <trkpt lat="46.77488" lon="-0.84626">
        <ele>159.5</ele>
        <time>2026-03-26T10:44:22.815Z</time>
      </trkpt>
      <trkpt lat="46.77501" lon="-0.84595">
        <ele>160.8</ele>
        <time>2026-03-26T10:44:29.970Z</time>
      </trkpt>
      <trkpt lat="46.77515" lon="-0.84551">
        <ele>161.7</ele>
        <time>2026-03-26T10:44:37.019Z</time>
      </trkpt>
      <trkpt lat="46.7751" lon="-0.84544">
        <ele>161.5</ele>
        <time>2026-03-26T10:44:37.883Z</time>
      </trkpt>
      <trkpt lat="46.77508" lon="-0.84537">
        <ele>161.4</ele>
        <time>2026-03-26T10:44:38.584Z</time>
      </trkpt>
      <trkpt lat="46.77509" lon="-0.84526">
        <ele>161.5</ele>
        <time>2026-03-26T10:44:39.970Z</time>
      </trkpt>
      <trkpt lat="46.77512" lon="-0.8452">
        <ele>161.6</ele>
        <time>2026-03-26T10:44:40.965Z</time>
      </trkpt>
      <trkpt lat="46.77515" lon="-0.84518">
        <ele>161.8</ele>
        <time>2026-03-26T10:44:42.023Z</time>
      </trkpt>
      <trkpt lat="46.77522" lon="-0.84518">
        <ele>162.2</ele>
        <time>2026-03-26T10:44:44.168Z</time>
      </trkpt>
      <trkpt lat="46.77528" lon="-0.84522">
        <ele>162.5</ele>
        <time>2026-03-26T10:44:45.909Z</time>
      </trkpt>
      <trkpt lat="46.77531" lon="-0.84531">
        <ele>162.6</ele>
        <time>2026-03-26T10:44:47.179Z</time>
      </trkpt>
      <trkpt lat="46.7753" lon="-0.84542">
        <ele>162.4</ele>
        <time>2026-03-26T10:44:48.146Z</time>
      </trkpt>
      <trkpt lat="46.77528" lon="-0.84548">
        <ele>162.3</ele>
        <time>2026-03-26T10:44:48.749Z</time>
      </trkpt>
      <trkpt lat="46.77625" lon="-0.84663">
        <ele>162.6</ele>
        <time>2026-03-26T10:45:09.225Z</time>
        <extensions>
          <visugpx:TrkExtension xmlns:visugpx="https://www.visugpx.com/editgpx/">
            <visugpx:node>27</visugpx:node>
            </visugpx:TrkExtension>
        </extensions>
      </trkpt>
      <trkpt lat="46.77655" lon="-0.84699">
        <ele>162.1</ele>
        <time>2026-03-26T10:45:14.755Z</time>
      </trkpt>
      <trkpt lat="46.77728" lon="-0.84825">
        <ele>159.4</ele>
        <time>2026-03-26T10:45:29.426Z</time>
      </trkpt>
      <trkpt lat="46.77738" lon="-0.8484">
        <ele>159.3</ele>
        <time>2026-03-26T10:45:31.578Z</time>
      </trkpt>
      <trkpt lat="46.77739" lon="-0.84829">
        <ele>159.7</ele>
        <time>2026-03-26T10:45:33.774Z</time>
      </trkpt>
      <trkpt lat="46.77744" lon="-0.84823">
        <ele>160</ele>
        <time>2026-03-26T10:45:35.501Z</time>
      </trkpt>
      <trkpt lat="46.77748" lon="-0.84822">
        <ele>160.2</ele>
        <time>2026-03-26T10:45:36.624Z</time>
      </trkpt>
      <trkpt lat="46.77752" lon="-0.84823">
        <ele>160.3</ele>
        <time>2026-03-26T10:45:37.462Z</time>
      </trkpt>
      <trkpt lat="46.77758" lon="-0.8483">
        <ele>160.4</ele>
        <time>2026-03-26T10:45:38.862Z</time>
      </trkpt>
      <trkpt lat="46.77758" lon="-0.84844">
        <ele>159.9</ele>
        <time>2026-03-26T10:45:39.872Z</time>
      </trkpt>
      <trkpt lat="46.77755" lon="-0.84848">
        <ele>159.7</ele>
        <time>2026-03-26T10:45:40.309Z</time>
      </trkpt>
      <trkpt lat="46.77749" lon="-0.84852">
        <ele>159.3</ele>
        <time>2026-03-26T10:45:40.966Z</time>
      </trkpt>
      <trkpt lat="46.77758" lon="-0.84891">
        <ele>158.3</ele>
        <time>2026-03-26T10:45:44.308Z</time>
      </trkpt>
      <trkpt lat="46.7777" lon="-0.84904">
        <ele>158.4</ele>
        <time>2026-03-26T10:45:46.862Z</time>
      </trkpt>
      <trkpt lat="46.77799" lon="-0.84972">
        <ele>156.7</ele>
        <time>2026-03-26T10:45:53.594Z</time>
      </trkpt>
      <trkpt lat="46.77821" lon="-0.85005">
        <ele>156.2</ele>
        <time>2026-03-26T10:45:57.971Z</time>
      </trkpt>
      <trkpt lat="46.77847" lon="-0.85026">
        <ele>155.2</ele>
        <time>2026-03-26T10:46:01.543Z</time>
      </trkpt>
      <trkpt lat="46.77878" lon="-0.85034">
        <ele>152.9</ele>
        <time>2026-03-26T10:46:04.568Z</time>
      </trkpt>
      <trkpt lat="46.779" lon="-0.85042">
        <ele>151.1</ele>
        <time>2026-03-26T10:46:06.747Z</time>
        <extensions>
          <visugpx:TrkExtension xmlns:visugpx="https://www.visugpx.com/editgpx/">
            <visugpx:node>28</visugpx:node>
            </visugpx:TrkExtension>
        </extensions>
      </trkpt>
      <trkpt lat="46.77923" lon="-0.85051">
        <ele>149.4</ele>
        <time>2026-03-26T10:46:09.035Z</time>
      </trkpt>
      <trkpt lat="46.77935" lon="-0.85052">
        <ele>149</ele>
        <time>2026-03-26T10:46:10.484Z</time>
      </trkpt>
      <trkpt lat="46.77945" lon="-0.85051">
        <ele>148.7</ele>
        <time>2026-03-26T10:46:11.724Z</time>
      </trkpt>
      <trkpt lat="46.77959" lon="-0.85044">
        <ele>148.6</ele>
        <time>2026-03-26T10:46:13.950Z</time>
      </trkpt>
      <trkpt lat="46.77975" lon="-0.85033">
        <ele>148.8</ele>
        <time>2026-03-26T10:46:17.116Z</time>
      </trkpt>
      <trkpt lat="46.78031" lon="-0.8498">
        <ele>149.6</ele>
        <time>2026-03-26T10:46:29.148Z</time>
      </trkpt>
      <trkpt lat="46.78041" lon="-0.84976">
        <ele>149.4</ele>
        <time>2026-03-26T10:46:30.546Z</time>
      </trkpt>
      <trkpt lat="46.78047" lon="-0.84975">
        <ele>149.1</ele>
        <time>2026-03-26T10:46:31.193Z</time>
      </trkpt>
      <trkpt lat="46.78057" lon="-0.84975">
        <ele>148.7</ele>
        <time>2026-03-26T10:46:32.340Z</time>
      </trkpt>
      <trkpt lat="46.78067" lon="-0.84981">
        <ele>147.9</ele>
        <time>2026-03-26T10:46:33.379Z</time>
      </trkpt>
      <trkpt lat="46.78079" lon="-0.84993">
        <ele>146.6</ele>
        <time>2026-03-26T10:46:34.776Z</time>
      </trkpt>
      <trkpt lat="46.78093" lon="-0.85026">
        <ele>144.4</ele>
        <time>2026-03-26T10:46:37.331Z</time>
      </trkpt>
      <trkpt lat="46.78129" lon="-0.8514">
        <ele>139.5</ele>
        <time>2026-03-26T10:46:46.107Z</time>
      </trkpt>
      <trkpt lat="46.78146" lon="-0.85248">
        <ele>140.7</ele>
        <time>2026-03-26T10:47:00.344Z</time>
      </trkpt>
      <trkpt lat="46.78151" lon="-0.85266">
        <ele>141.7</ele>
        <time>2026-03-26T10:47:05.539Z</time>
      </trkpt>
      <trkpt lat="46.78174" lon="-0.8532">
        <ele>145.8</ele>
        <time>2026-03-26T10:47:27.449Z</time>
      </trkpt>
      <trkpt lat="46.78195" lon="-0.85398">
        <ele>149.6</ele>
        <time>2026-03-26T10:47:47.292Z</time>
      </trkpt>
      <trkpt lat="46.78214" lon="-0.85479">
        <ele>153.5</ele>
        <time>2026-03-26T10:48:07.648Z</time>
      </trkpt>
      <trkpt lat="46.78226" lon="-0.85566">
        <ele>156.5</ele>
        <time>2026-03-26T10:48:24.489Z</time>
      </trkpt>
      <trkpt lat="46.78229" lon="-0.85602">
        <ele>156.7</ele>
        <time>2026-03-26T10:48:28.792Z</time>
      </trkpt>
      <trkpt lat="46.78244" lon="-0.85727">
        <ele>156.8</ele>
        <time>2026-03-26T10:48:42.863Z</time>
      </trkpt>
      <trkpt lat="46.78245" lon="-0.85759">
        <ele>156.6</ele>
        <time>2026-03-26T10:48:46.092Z</time>
      </trkpt>
      <trkpt lat="46.78245" lon="-0.85781">
        <ele>156.6</ele>
        <time>2026-03-26T10:48:48.505Z</time>
      </trkpt>
      <trkpt lat="46.78223" lon="-0.85919">
        <ele>154.3</ele>
        <time>2026-03-26T10:49:01.118Z</time>
      </trkpt>
      <trkpt lat="46.78219" lon="-0.86015">
        <ele>152.3</ele>
        <time>2026-03-26T10:49:09.238Z</time>
      </trkpt>
      <trkpt lat="46.78232" lon="-0.86132">
        <ele>149.6</ele>
        <time>2026-03-26T10:49:19.025Z</time>
      </trkpt>
      <trkpt lat="46.78245" lon="-0.86179">
        <ele>147.8</ele>
        <time>2026-03-26T10:49:22.690Z</time>
      </trkpt>
      <trkpt lat="46.78351" lon="-0.86404">
        <ele>148.5</ele>
        <time>2026-03-26T10:49:53.739Z</time>
        <extensions>
          <visugpx:TrkExtension xmlns:visugpx="https://www.visugpx.com/editgpx/">
            <visugpx:node>29</visugpx:node>
            </visugpx:TrkExtension>
        </extensions>
      </trkpt>
      <trkpt lat="46.78482" lon="-0.86689">
        <ele>149.8</ele>
        <time>2026-03-26T10:50:33.453Z</time>
      </trkpt>
      <trkpt lat="46.78492" lon="-0.8671">
        <ele>149.3</ele>
        <time>2026-03-26T10:50:35.643Z</time>
      </trkpt>
      <trkpt lat="46.78499" lon="-0.86717">
        <ele>149.5</ele>
        <time>2026-03-26T10:50:37.374Z</time>
      </trkpt>
      <trkpt lat="46.78486" lon="-0.8673">
        <ele>147.8</ele>
        <time>2026-03-26T10:50:38.888Z</time>
      </trkpt>
      <trkpt lat="46.78465" lon="-0.86745">
        <ele>144.9</ele>
        <time>2026-03-26T10:50:41.134Z</time>
      </trkpt>
      <trkpt lat="46.78451" lon="-0.86765">
        <ele>142.2</ele>
        <time>2026-03-26T10:50:43.016Z</time>
      </trkpt>
      <trkpt lat="46.7844" lon="-0.86785">
        <ele>139.9</ele>
        <time>2026-03-26T10:50:44.704Z</time>
      </trkpt>
      <trkpt lat="46.78464" lon="-0.8682">
        <ele>139.4</ele>
        <time>2026-03-26T10:50:49.457Z</time>
      </trkpt>
      <trkpt lat="46.78484" lon="-0.86863">
        <ele>137.6</ele>
        <time>2026-03-26T10:50:53.248Z</time>
      </trkpt>
      <trkpt lat="46.78509" lon="-0.86905">
        <ele>135.4</ele>
        <time>2026-03-26T10:50:57.119Z</time>
      </trkpt>
      <trkpt lat="46.78514" lon="-0.86922">
        <ele>134.7</ele>
        <time>2026-03-26T10:50:58.427Z</time>
      </trkpt>
      <trkpt lat="46.78518" lon="-0.86952">
        <ele>135.1</ele>
        <time>2026-03-26T10:51:02.494Z</time>
      </trkpt>
      <trkpt lat="46.78521" lon="-0.87013">
        <ele>136.3</ele>
        <time>2026-03-26T10:51:11.536Z</time>
      </trkpt>
      <trkpt lat="46.78535" lon="-0.87095">
        <ele>140.6</ele>
        <time>2026-03-26T10:51:33.869Z</time>
      </trkpt>
      <trkpt lat="46.78548" lon="-0.87189">
        <ele>145.8</ele>
        <time>2026-03-26T10:52:00.954Z</time>
      </trkpt>
      <trkpt lat="46.78554" lon="-0.87212">
        <ele>146.5</ele>
        <time>2026-03-26T10:52:05.191Z</time>
      </trkpt>
      <trkpt lat="46.78577" lon="-0.87251">
        <ele>149.3</ele>
        <time>2026-03-26T10:52:19.779Z</time>
      </trkpt>
      <trkpt lat="46.78601" lon="-0.87306">
        <ele>150.8</ele>
        <time>2026-03-26T10:52:29.987Z</time>
      </trkpt>
      <trkpt lat="46.78653" lon="-0.87433">
        <ele>154.5</ele>
        <time>2026-03-26T10:52:53.961Z</time>
      </trkpt>
      <trkpt lat="46.78664" lon="-0.87467">
        <ele>154.6</ele>
        <time>2026-03-26T10:52:58.242Z</time>
      </trkpt>
      <trkpt lat="46.78702" lon="-0.87554">
        <ele>154.5</ele>
        <time>2026-03-26T10:53:09.407Z</time>
      </trkpt>
      <trkpt lat="46.78708" lon="-0.87575">
        <ele>153.9</ele>
        <time>2026-03-26T10:53:11.214Z</time>
      </trkpt>
      <trkpt lat="46.78718" lon="-0.87574">
        <ele>154.8</ele>
        <time>2026-03-26T10:53:15.980Z</time>
      </trkpt>
      <trkpt lat="46.78773" lon="-0.87581">
        <ele>158.5</ele>
        <time>2026-03-26T10:53:35.277Z</time>
      </trkpt>
      <trkpt lat="46.78842" lon="-0.87591">
        <ele>162.1</ele>
        <time>2026-03-26T10:53:55.131Z</time>
        <extensions>
          <visugpx:TrkExtension xmlns:visugpx="https://www.visugpx.com/editgpx/">
            <visugpx:node>30</visugpx:node>
            </visugpx:TrkExtension>
        </extensions>
      </trkpt>
      <trkpt lat="46.78862" lon="-0.87593">
        <ele>163.1</ele>
        <time>2026-03-26T10:54:00.723Z</time>
      </trkpt>
      <trkpt lat="46.78895" lon="-0.87588">
        <ele>165.4</ele>
        <time>2026-03-26T10:54:12.687Z</time>
      </trkpt>
      <trkpt lat="46.78932" lon="-0.8757">
        <ele>168.7</ele>
        <time>2026-03-26T10:54:30.001Z</time>
      </trkpt>
      <trkpt lat="46.78966" lon="-0.87548">
        <ele>171.7</ele>
        <time>2026-03-26T10:54:45.652Z</time>
      </trkpt>
      <trkpt lat="46.79016" lon="-0.87522">
        <ele>174.9</ele>
        <time>2026-03-26T10:55:02.605Z</time>
      </trkpt>
      <trkpt lat="46.79039" lon="-0.87513">
        <ele>175.6</ele>
        <time>2026-03-26T10:55:07.790Z</time>
      </trkpt>
      <trkpt lat="46.79063" lon="-0.87508">
        <ele>176.3</ele>
        <time>2026-03-26T10:55:13.038Z</time>
      </trkpt>
      <trkpt lat="46.79116" lon="-0.87511">
        <ele>177</ele>
        <time>2026-03-26T10:55:22.721Z</time>
      </trkpt>
      <trkpt lat="46.79135" lon="-0.87509">
        <ele>177.3</ele>
        <time>2026-03-26T10:55:26.293Z</time>
      </trkpt>
      <trkpt lat="46.79161" lon="-0.87503">
        <ele>177.8</ele>
        <time>2026-03-26T10:55:31.401Z</time>
      </trkpt>
      <trkpt lat="46.79285" lon="-0.87453">
        <ele>180.3</ele>
        <time>2026-03-26T10:55:56.484Z</time>
      </trkpt>
      <trkpt lat="46.79294" lon="-0.87448">
        <ele>180.5</ele>
        <time>2026-03-26T10:55:58.389Z</time>
      </trkpt>
      <trkpt lat="46.79303" lon="-0.87462">
        <ele>180.3</ele>
        <time>2026-03-26T10:56:00.224Z</time>
      </trkpt>
      <trkpt lat="46.79342" lon="-0.8749">
        <ele>180.2</ele>
        <time>2026-03-26T10:56:07.034Z</time>
      </trkpt>
      <trkpt lat="46.79355" lon="-0.87506">
        <ele>179.9</ele>
        <time>2026-03-26T10:56:09.358Z</time>
      </trkpt>
      <trkpt lat="46.79362" lon="-0.87518">
        <ele>179.6</ele>
        <time>2026-03-26T10:56:10.716Z</time>
      </trkpt>
      <trkpt lat="46.79373" lon="-0.87558">
        <ele>178.9</ele>
        <time>2026-03-26T10:56:14.551Z</time>
      </trkpt>
      <trkpt lat="46.79386" lon="-0.87582">
        <ele>178.9</ele>
        <time>2026-03-26T10:56:17.907Z</time>
      </trkpt>
      <trkpt lat="46.7941" lon="-0.87618">
        <ele>178.9</ele>
        <time>2026-03-26T10:56:23.416Z</time>
      </trkpt>
      <trkpt lat="46.79414" lon="-0.8763">
        <ele>178.8</ele>
        <time>2026-03-26T10:56:24.740Z</time>
      </trkpt>
      <trkpt lat="46.79419" lon="-0.87684">
        <ele>177.3</ele>
        <time>2026-03-26T10:56:29.012Z</time>
      </trkpt>
      <trkpt lat="46.79424" lon="-0.87704">
        <ele>176.4</ele>
        <time>2026-03-26T10:56:30.456Z</time>
      </trkpt>
      <trkpt lat="46.7943" lon="-0.87724">
        <ele>175.3</ele>
        <time>2026-03-26T10:56:31.893Z</time>
      </trkpt>
      <trkpt lat="46.79434" lon="-0.87732">
        <ele>174.9</ele>
        <time>2026-03-26T10:56:32.576Z</time>
      </trkpt>
      <trkpt lat="46.79449" lon="-0.8775">
        <ele>173.4</ele>
        <time>2026-03-26T10:56:34.442Z</time>
      </trkpt>
      <trkpt lat="46.79458" lon="-0.87757">
        <ele>172.4</ele>
        <time>2026-03-26T10:56:35.421Z</time>
      </trkpt>
      <trkpt lat="46.79484" lon="-0.8777">
        <ele>170</ele>
        <time>2026-03-26T10:56:38.062Z</time>
        <extensions>
          <visugpx:TrkExtension xmlns:visugpx="https://www.visugpx.com/editgpx/">
            <visugpx:node>31</visugpx:node>
            </visugpx:TrkExtension>
        </extensions>
      </trkpt>
      <trkpt lat="46.79501" lon="-0.87782">
        <ele>168.3</ele>
        <time>2026-03-26T10:56:39.876Z</time>
      </trkpt>
      <trkpt lat="46.79516" lon="-0.87796">
        <ele>166.8</ele>
        <time>2026-03-26T10:56:41.587Z</time>
      </trkpt>
      <trkpt lat="46.79484" lon="-0.87891">
        <ele>161.2</ele>
        <time>2026-03-26T10:56:48.552Z</time>
      </trkpt>
      <trkpt lat="46.79444" lon="-0.87992">
        <ele>156.9</ele>
        <time>2026-03-26T10:56:56.877Z</time>
      </trkpt>
      <trkpt lat="46.79398" lon="-0.88089">
        <ele>152.2</ele>
        <time>2026-03-26T10:57:05.061Z</time>
      </trkpt>
      <trkpt lat="46.7939" lon="-0.88112">
        <ele>151.2</ele>
        <time>2026-03-26T10:57:06.869Z</time>
      </trkpt>
      <trkpt lat="46.79385" lon="-0.88142">
        <ele>149.7</ele>
        <time>2026-03-26T10:57:08.900Z</time>
      </trkpt>
      <trkpt lat="46.79383" lon="-0.88173">
        <ele>148.2</ele>
        <time>2026-03-26T10:57:10.949Z</time>
      </trkpt>
      <trkpt lat="46.79381" lon="-0.88213">
        <ele>147</ele>
        <time>2026-03-26T10:57:14.015Z</time>
      </trkpt>
      <trkpt lat="46.794" lon="-0.88304">
        <ele>145.1</ele>
        <time>2026-03-26T10:57:22.121Z</time>
      </trkpt>
      <trkpt lat="46.79403" lon="-0.88341">
        <ele>144.5</ele>
        <time>2026-03-26T10:57:25.442Z</time>
      </trkpt>
      <trkpt lat="46.79403" lon="-0.88405">
        <ele>142.5</ele>
        <time>2026-03-26T10:57:30.269Z</time>
      </trkpt>
      <trkpt lat="46.79397" lon="-0.88508">
        <ele>139.4</ele>
        <time>2026-03-26T10:57:38.167Z</time>
      </trkpt>
      <trkpt lat="46.79383" lon="-0.88613">
        <ele>138.2</ele>
        <time>2026-03-26T10:57:48.286Z</time>
      </trkpt>
      <trkpt lat="46.79382" lon="-0.88645">
        <ele>137.7</ele>
        <time>2026-03-26T10:57:51.158Z</time>
      </trkpt>
      <trkpt lat="46.79388" lon="-0.88693">
        <ele>135.4</ele>
        <time>2026-03-26T10:57:54.368Z</time>
      </trkpt>
      <trkpt lat="46.79397" lon="-0.88724">
        <ele>132.8</ele>
        <time>2026-03-26T10:57:56.583Z</time>
      </trkpt>
      <trkpt lat="46.79425" lon="-0.88809">
        <ele>129.8</ele>
        <time>2026-03-26T10:58:03.657Z</time>
      </trkpt>
      <trkpt lat="46.79436" lon="-0.88829">
        <ele>128.8</ele>
        <time>2026-03-26T10:58:05.451Z</time>
      </trkpt>
      <trkpt lat="46.79455" lon="-0.88857">
        <ele>126.2</ele>
        <time>2026-03-26T10:58:08.045Z</time>
      </trkpt>
      <trkpt lat="46.79495" lon="-0.88902">
        <ele>119.9</ele>
        <time>2026-03-26T10:58:12.896Z</time>
      </trkpt>
      <trkpt lat="46.7952" lon="-0.88925">
        <ele>117.4</ele>
        <time>2026-03-26T10:58:15.735Z</time>
      </trkpt>
      <trkpt lat="46.79528" lon="-0.88925">
        <ele>116.9</ele>
        <time>2026-03-26T10:58:16.524Z</time>
      </trkpt>
      <trkpt lat="46.79563" lon="-0.88909">
        <ele>114.5</ele>
        <time>2026-03-26T10:58:20.075Z</time>
      </trkpt>
      <trkpt lat="46.79569" lon="-0.88908">
        <ele>114.1</ele>
        <time>2026-03-26T10:58:20.657Z</time>
      </trkpt>
      <trkpt lat="46.79579" lon="-0.88911">
        <ele>113.4</ele>
        <time>2026-03-26T10:58:21.638Z</time>
      </trkpt>
      <trkpt lat="46.79589" lon="-0.88919">
        <ele>113.4</ele>
        <time>2026-03-26T10:58:23.464Z</time>
      </trkpt>
      <trkpt lat="46.79646" lon="-0.88986">
        <ele>118.4</ele>
        <time>2026-03-26T10:58:49.498Z</time>
      </trkpt>
      <trkpt lat="46.79708" lon="-0.89067">
        <ele>123.5</ele>
        <time>2026-03-26T10:59:16.430Z</time>
      </trkpt>
      <trkpt lat="46.79755" lon="-0.89143">
        <ele>124.6</ele>
        <time>2026-03-26T10:59:29.567Z</time>
      </trkpt>
      <trkpt lat="46.7981" lon="-0.89246">
        <ele>122.1</ele>
        <time>2026-03-26T10:59:40.803Z</time>
      </trkpt>
      <trkpt lat="46.79827" lon="-0.89234">
        <ele>122.4</ele>
        <time>2026-03-26T10:59:44.348Z</time>
      </trkpt>
      <trkpt lat="46.79841" lon="-0.89232">
        <ele>122.7</ele>
        <time>2026-03-26T10:59:47.148Z</time>
      </trkpt>
      <trkpt lat="46.7986" lon="-0.89233">
        <ele>123.5</ele>
        <time>2026-03-26T10:59:51.959Z</time>
      </trkpt>
      <trkpt lat="46.79881" lon="-0.89239">
        <ele>124</ele>
        <time>2026-03-26T10:59:56.313Z</time>
      </trkpt>
      <trkpt lat="46.79899" lon="-0.89241">
        <ele>124.7</ele>
        <time>2026-03-26T11:00:00.702Z</time>
      </trkpt>
      <trkpt lat="46.79925" lon="-0.89239">
        <ele>125.8</ele>
        <time>2026-03-26T11:00:07.304Z</time>
      </trkpt>
      <trkpt lat="46.79951" lon="-0.89232">
        <ele>127.4</ele>
        <time>2026-03-26T11:00:15.774Z</time>
      </trkpt>
      <trkpt lat="46.79968" lon="-0.89223">
        <ele>128.6</ele>
        <time>2026-03-26T11:00:22.039Z</time>
      </trkpt>
      <trkpt lat="46.79977" lon="-0.89214">
        <ele>129.5</ele>
        <time>2026-03-26T11:00:26.746Z</time>
      </trkpt>
      <trkpt lat="46.79998" lon="-0.89282">
        <ele>126.6</ele>
        <time>2026-03-26T11:00:31.966Z</time>
      </trkpt>
      <trkpt lat="46.80012" lon="-0.89307">
        <ele>125.1</ele>
        <time>2026-03-26T11:00:34.090Z</time>
      </trkpt>
      <trkpt lat="46.80025" lon="-0.89319">
        <ele>124.6</ele>
        <time>2026-03-26T11:00:35.955Z</time>
      </trkpt>
      <trkpt lat="46.80038" lon="-0.89328">
        <ele>124.3</ele>
        <time>2026-03-26T11:00:37.870Z</time>
      </trkpt>
      <trkpt lat="46.80069" lon="-0.89355">
        <ele>123.6</ele>
        <time>2026-03-26T11:00:42.731Z</time>
      </trkpt>
      <trkpt lat="46.80082" lon="-0.89371">
        <ele>123.2</ele>
        <time>2026-03-26T11:00:44.944Z</time>
      </trkpt>
      <trkpt lat="46.80109" lon="-0.89413">
        <ele>121.5</ele>
        <time>2026-03-26T11:00:49.367Z</time>
      </trkpt>
      <trkpt lat="46.80147" lon="-0.89464">
        <ele>119.5</ele>
        <time>2026-03-26T11:00:55.339Z</time>
      </trkpt>
      <trkpt lat="46.80175" lon="-0.89497">
        <ele>118.2</ele>
        <time>2026-03-26T11:00:59.585Z</time>
      </trkpt>
      <trkpt lat="46.80195" lon="-0.89516">
        <ele>117.7</ele>
        <time>2026-03-26T11:01:02.756Z</time>
      </trkpt>
      <trkpt lat="46.80217" lon="-0.89529">
        <ele>117.5</ele>
        <time>2026-03-26T11:01:06.272Z</time>
      </trkpt>
      <trkpt lat="46.80237" lon="-0.89539">
        <ele>117.5</ele>
        <time>2026-03-26T11:01:09.658Z</time>
      </trkpt>
      <trkpt lat="46.80264" lon="-0.89548">
        <ele>117.5</ele>
        <time>2026-03-26T11:01:14.093Z</time>
      </trkpt>
      <trkpt lat="46.80405" lon="-0.89575">
        <ele>120.8</ele>
        <time>2026-03-26T11:01:42.983Z</time>
      </trkpt>
      <trkpt lat="46.80405" lon="-0.89589">
        <ele>120.7</ele>
        <time>2026-03-26T11:01:44.377Z</time>
      </trkpt>
      <trkpt lat="46.80466" lon="-0.89755">
        <ele>123.7</ele>
        <time>2026-03-26T11:02:10.594Z</time>
      </trkpt>
      <trkpt lat="46.80471" lon="-0.89774">
        <ele>123.9</ele>
        <time>2026-03-26T11:02:13.168Z</time>
        <extensions>
          <visugpx:TrkExtension xmlns:visugpx="https://www.visugpx.com/editgpx/">
            <visugpx:node>32</visugpx:node>
            </visugpx:TrkExtension>
        </extensions>
      </trkpt>
      <trkpt lat="46.80488" lon="-0.89839">
        <ele>124.2</ele>
        <time>2026-03-26T11:02:21.277Z</time>
      </trkpt>
      <trkpt lat="46.80493" lon="-0.89875">
        <ele>123.2</ele>
        <time>2026-03-26T11:02:24.165Z</time>
      </trkpt>
      <trkpt lat="46.80502" lon="-0.89961">
        <ele>119.9</ele>
        <time>2026-03-26T11:02:30.307Z</time>
      </trkpt>
      <trkpt lat="46.8051" lon="-0.89996">
        <ele>118.4</ele>
        <time>2026-03-26T11:02:32.846Z</time>
      </trkpt>
      <trkpt lat="46.80518" lon="-0.9004">
        <ele>119.8</ele>
        <time>2026-03-26T11:02:41.014Z</time>
      </trkpt>
      <trkpt lat="46.80525" lon="-0.90065">
        <ele>120.7</ele>
        <time>2026-03-26T11:02:46.093Z</time>
      </trkpt>
      <trkpt lat="46.80543" lon="-0.90095">
        <ele>122.1</ele>
        <time>2026-03-26T11:02:53.847Z</time>
      </trkpt>
      <trkpt lat="46.80583" lon="-0.90151">
        <ele>125.2</ele>
        <time>2026-03-26T11:03:10.561Z</time>
      </trkpt>
      <trkpt lat="46.80623" lon="-0.90215">
        <ele>128.4</ele>
        <time>2026-03-26T11:03:27.995Z</time>
      </trkpt>
      <trkpt lat="46.80637" lon="-0.90245">
        <ele>129.8</ele>
        <time>2026-03-26T11:03:35.530Z</time>
      </trkpt>
      <trkpt lat="46.80667" lon="-0.90316">
        <ele>132.6</ele>
        <time>2026-03-26T11:03:51.290Z</time>
      </trkpt>
      <trkpt lat="46.80693" lon="-0.9038">
        <ele>134.1</ele>
        <time>2026-03-26T11:04:02.389Z</time>
      </trkpt>
      <trkpt lat="46.80701" lon="-0.90405">
        <ele>134.3</ele>
        <time>2026-03-26T11:04:05.746Z</time>
      </trkpt>
      <trkpt lat="46.80731" lon="-0.90474">
        <ele>134.1</ele>
        <time>2026-03-26T11:04:14.411Z</time>
      </trkpt>
      <trkpt lat="46.80762" lon="-0.9054">
        <ele>133.3</ele>
        <time>2026-03-26T11:04:22.097Z</time>
      </trkpt>
      <trkpt lat="46.80773" lon="-0.90551">
        <ele>133.3</ele>
        <time>2026-03-26T11:04:24.232Z</time>
      </trkpt>
      <trkpt lat="46.80921" lon="-0.90633">
        <ele>138.8</ele>
        <time>2026-03-26T11:05:00.908Z</time>
      </trkpt>
      <trkpt lat="46.81" lon="-0.90678">
        <ele>142</ele>
        <time>2026-03-26T11:05:21.266Z</time>
      </trkpt>
      <trkpt lat="46.81009" lon="-0.90687">
        <ele>142.4</ele>
        <time>2026-03-26T11:05:23.851Z</time>
        <extensions>
          <visugpx:TrkExtension xmlns:visugpx="https://www.visugpx.com/editgpx/">
            <visugpx:node>33</visugpx:node>
            </visugpx:TrkExtension>
        </extensions>
      </trkpt>
      <trkpt lat="46.81004" lon="-0.90706">
        <ele>142.2</ele>
        <time>2026-03-26T11:05:25.810Z</time>
      </trkpt>
      <trkpt lat="46.80962" lon="-0.90774">
        <ele>141.3</ele>
        <time>2026-03-26T11:05:34.623Z</time>
      </trkpt>
      <trkpt lat="46.80937" lon="-0.90829">
        <ele>142.3</ele>
        <time>2026-03-26T11:05:43.696Z</time>
      </trkpt>
      <trkpt lat="46.80852" lon="-0.91063">
        <ele>146</ele>
        <time>2026-03-26T11:06:19.423Z</time>
      </trkpt>
      <trkpt lat="46.80839" lon="-0.91136">
        <ele>147.9</ele>
        <time>2026-03-26T11:06:31.680Z</time>
      </trkpt>
      <trkpt lat="46.8084" lon="-0.91189">
        <ele>148.6</ele>
        <time>2026-03-26T11:06:38.745Z</time>
      </trkpt>
      <trkpt lat="46.80849" lon="-0.91286">
        <ele>147.8</ele>
        <time>2026-03-26T11:06:48.365Z</time>
      </trkpt>
      <trkpt lat="46.80847" lon="-0.91325">
        <ele>147.6</ele>
        <time>2026-03-26T11:06:52.365Z</time>
      </trkpt>
      <trkpt lat="46.80844" lon="-0.91351">
        <ele>147.5</ele>
        <time>2026-03-26T11:06:55.109Z</time>
        <extensions>
          <visugpx:TrkExtension xmlns:visugpx="https://www.visugpx.com/editgpx/">
            <visugpx:node>34</visugpx:node>
            </visugpx:TrkExtension>
        </extensions>
      </trkpt>
      <trkpt lat="46.80853" lon="-0.91354">
        <ele>147.8</ele>
        <time>2026-03-26T11:06:57.193Z</time>
      </trkpt>
      <trkpt lat="46.80861" lon="-0.9136">
        <ele>148</ele>
        <time>2026-03-26T11:06:59.000Z</time>
      </trkpt>
      <trkpt lat="46.80872" lon="-0.91373">
        <ele>148.2</ele>
        <time>2026-03-26T11:07:01.609Z</time>
      </trkpt>
      <trkpt lat="46.80897" lon="-0.91408">
        <ele>148.1</ele>
        <time>2026-03-26T11:07:07.005Z</time>
      </trkpt>
      <trkpt lat="46.80916" lon="-0.9144">
        <ele>147.7</ele>
        <time>2026-03-26T11:07:11.101Z</time>
      </trkpt>
      <trkpt lat="46.80937" lon="-0.91488">
        <ele>146.9</ele>
        <time>2026-03-26T11:07:16.304Z</time>
      </trkpt>
      <trkpt lat="46.80945" lon="-0.91537">
        <ele>146.1</ele>
        <time>2026-03-26T11:07:20.804Z</time>
      </trkpt>
      <trkpt lat="46.8096" lon="-0.91565">
        <ele>145.7</ele>
        <time>2026-03-26T11:07:24.165Z</time>
      </trkpt>
      <trkpt lat="46.80971" lon="-0.91577">
        <ele>145.7</ele>
        <time>2026-03-26T11:07:26.364Z</time>
      </trkpt>
      <trkpt lat="46.81004" lon="-0.91607">
        <ele>145.1</ele>
        <time>2026-03-26T11:07:31.778Z</time>
      </trkpt>
      <trkpt lat="46.81017" lon="-0.91614">
        <ele>144.6</ele>
        <time>2026-03-26T11:07:33.413Z</time>
      </trkpt>
      <trkpt lat="46.81031" lon="-0.91618">
        <ele>144.2</ele>
        <time>2026-03-26T11:07:35.204Z</time>
      </trkpt>
      <trkpt lat="46.81066" lon="-0.91624">
        <ele>143.3</ele>
        <time>2026-03-26T11:07:39.718Z</time>
      </trkpt>
      <trkpt lat="46.81121" lon="-0.91637">
        <ele>141.3</ele>
        <time>2026-03-26T11:07:46.304Z</time>
      </trkpt>
      <trkpt lat="46.81144" lon="-0.91653">
        <ele>140.5</ele>
        <time>2026-03-26T11:07:49.419Z</time>
      </trkpt>
      <trkpt lat="46.81167" lon="-0.91677">
        <ele>140.1</ele>
        <time>2026-03-26T11:07:53.400Z</time>
      </trkpt>
      <trkpt lat="46.81212" lon="-0.91728">
        <ele>138.1</ele>
        <time>2026-03-26T11:08:00.171Z</time>
      </trkpt>
      <trkpt lat="46.81228" lon="-0.91744">
        <ele>137.3</ele>
        <time>2026-03-26T11:08:02.375Z</time>
      </trkpt>
      <trkpt lat="46.81242" lon="-0.91752">
        <ele>136.5</ele>
        <time>2026-03-26T11:08:03.948Z</time>
      </trkpt>
      <trkpt lat="46.81271" lon="-0.91759">
        <ele>136</ele>
        <time>2026-03-26T11:08:07.987Z</time>
      </trkpt>
      <trkpt lat="46.81448" lon="-0.9177">
        <ele>142</ele>
        <time>2026-03-26T11:08:48.615Z</time>
      </trkpt>
      <trkpt lat="46.81465" lon="-0.91775">
        <ele>142.1</ele>
        <time>2026-03-26T11:08:51.551Z</time>
      </trkpt>
      <trkpt lat="46.81468" lon="-0.91777">
        <ele>142.1</ele>
        <time>2026-03-26T11:08:52.080Z</time>
        <extensions>
          <visugpx:TrkExtension xmlns:visugpx="https://www.visugpx.com/editgpx/">
            <visugpx:node>35</visugpx:node>
            </visugpx:TrkExtension>
        </extensions>
      </trkpt>
      <trkpt lat="46.81473" lon="-0.91782">
        <ele>142</ele>
        <time>2026-03-26T11:08:52.916Z</time>
      </trkpt>
      <trkpt lat="46.81497" lon="-0.9182">
        <ele>141.3</ele>
        <time>2026-03-26T11:08:57.667Z</time>
      </trkpt>
      <trkpt lat="46.81502" lon="-0.91811">
        <ele>141.6</ele>
        <time>2026-03-26T11:08:59.573Z</time>
      </trkpt>
      <trkpt lat="46.81668" lon="-0.9164">
        <ele>148.3</ele>
        <time>2026-03-26T11:09:45.674Z</time>
      </trkpt>
      <trkpt lat="46.81716" lon="-0.91595">
        <ele>149.3</ele>
        <time>2026-03-26T11:09:56.570Z</time>
      </trkpt>
      <trkpt lat="46.81729" lon="-0.9159">
        <ele>149.6</ele>
        <time>2026-03-26T11:09:59.274Z</time>
      </trkpt>
      <trkpt lat="46.81732" lon="-0.9161">
        <ele>149</ele>
        <time>2026-03-26T11:10:00.849Z</time>
      </trkpt>
      <trkpt lat="46.81757" lon="-0.91668">
        <ele>146.8</ele>
        <time>2026-03-26T11:10:05.972Z</time>
      </trkpt>
      <trkpt lat="46.81787" lon="-0.91757">
        <ele>142</ele>
        <time>2026-03-26T11:10:12.496Z</time>
      </trkpt>
      <trkpt lat="46.81824" lon="-0.91884">
        <ele>135.8</ele>
        <time>2026-03-26T11:10:21.632Z</time>
      </trkpt>
      <trkpt lat="46.8183" lon="-0.91911">
        <ele>134.3</ele>
        <time>2026-03-26T11:10:23.498Z</time>
      </trkpt>
      <trkpt lat="46.8184" lon="-0.91964">
        <ele>135.3</ele>
        <time>2026-03-26T11:10:31.434Z</time>
      </trkpt>
      <trkpt lat="46.81862" lon="-0.92021">
        <ele>137</ele>
        <time>2026-03-26T11:10:42.214Z</time>
      </trkpt>
      <trkpt lat="46.81894" lon="-0.92085">
        <ele>138.4</ele>
        <time>2026-03-26T11:10:53.557Z</time>
      </trkpt>
      <trkpt lat="46.81912" lon="-0.92103">
        <ele>138.9</ele>
        <time>2026-03-26T11:10:57.974Z</time>
      </trkpt>
      <trkpt lat="46.82046" lon="-0.9219">
        <ele>139.6</ele>
        <time>2026-03-26T11:11:22.565Z</time>
      </trkpt>
      <trkpt lat="46.82064" lon="-0.92205">
        <ele>140.3</ele>
        <time>2026-03-26T11:11:27.312Z</time>
      </trkpt>
      <trkpt lat="46.82079" lon="-0.92224">
        <ele>140.8</ele>
        <time>2026-03-26T11:11:31.435Z</time>
      </trkpt>
      <trkpt lat="46.82089" lon="-0.92247">
        <ele>140.9</ele>
        <time>2026-03-26T11:11:34.580Z</time>
        <extensions>
          <visugpx:TrkExtension xmlns:visugpx="https://www.visugpx.com/editgpx/">
            <visugpx:node>36</visugpx:node>
            </visugpx:TrkExtension>
        </extensions>
      </trkpt>
      <trkpt lat="46.82095" lon="-0.9227">
        <ele>140.1</ele>
        <time>2026-03-26T11:11:36.412Z</time>
      </trkpt>
      <trkpt lat="46.82098" lon="-0.92307">
        <ele>138.8</ele>
        <time>2026-03-26T11:11:39.120Z</time>
      </trkpt>
      <trkpt lat="46.82098" lon="-0.92355">
        <ele>137.6</ele>
        <time>2026-03-26T11:11:42.984Z</time>
      </trkpt>
      <trkpt lat="46.82097" lon="-0.92373">
        <ele>137.3</ele>
        <time>2026-03-26T11:11:44.583Z</time>
      </trkpt>
      <trkpt lat="46.82087" lon="-0.92441">
        <ele>136.1</ele>
        <time>2026-03-26T11:11:50.695Z</time>
      </trkpt>
      <trkpt lat="46.82088" lon="-0.9245">
        <ele>136.2</ele>
        <time>2026-03-26T11:11:51.868Z</time>
      </trkpt>
      <trkpt lat="46.82101" lon="-0.92495">
        <ele>136.8</ele>
        <time>2026-03-26T11:11:58.283Z</time>
      </trkpt>
      <trkpt lat="46.82198" lon="-0.92732">
        <ele>141.1</ele>
        <time>2026-03-26T11:12:36.483Z</time>
      </trkpt>
      <trkpt lat="46.82087" lon="-0.92823">
        <ele>138.9</ele>
        <time>2026-03-26T11:12:53.933Z</time>
      </trkpt>
      <trkpt lat="46.82058" lon="-0.92856">
        <ele>139.3</ele>
        <time>2026-03-26T11:13:00.486Z</time>
      </trkpt>
      <trkpt lat="46.82035" lon="-0.92885">
        <ele>139.6</ele>
        <time>2026-03-26T11:13:05.846Z</time>
      </trkpt>
      <trkpt lat="46.8199" lon="-0.92947">
        <ele>139.4</ele>
        <time>2026-03-26T11:13:15.454Z</time>
        <extensions>
          <visugpx:TrkExtension xmlns:visugpx="https://www.visugpx.com/editgpx/">
            <visugpx:node>37</visugpx:node>
            </visugpx:TrkExtension>
        </extensions>
      </trkpt>
      <trkpt lat="46.81978" lon="-0.92974">
        <ele>138.9</ele>
        <time>2026-03-26T11:13:18.342Z</time>
      </trkpt>
      <trkpt lat="46.81995" lon="-0.92983">
        <ele>138.5</ele>
        <time>2026-03-26T11:13:20.723Z</time>
      </trkpt>
      <trkpt lat="46.82009" lon="-0.92992">
        <ele>138.2</ele>
        <time>2026-03-26T11:13:22.779Z</time>
      </trkpt>
      <trkpt lat="46.82063" lon="-0.93046">
        <ele>135.5</ele>
        <time>2026-03-26T11:13:30.215Z</time>
      </trkpt>
      <trkpt lat="46.82098" lon="-0.93086">
        <ele>132.6</ele>
        <time>2026-03-26T11:13:34.522Z</time>
      </trkpt>
      <trkpt lat="46.8213" lon="-0.93111">
        <ele>130.7</ele>
        <time>2026-03-26T11:13:38.341Z</time>
      </trkpt>
      <trkpt lat="46.82149" lon="-0.93122">
        <ele>129.7</ele>
        <time>2026-03-26T11:13:40.542Z</time>
      </trkpt>
      <trkpt lat="46.82214" lon="-0.93144">
        <ele>127.4</ele>
        <time>2026-03-26T11:13:48.513Z</time>
      </trkpt>
      <trkpt lat="46.82251" lon="-0.93149">
        <ele>126.6</ele>
        <time>2026-03-26T11:13:53.430Z</time>
      </trkpt>
      <trkpt lat="46.82274" lon="-0.9315">
        <ele>126.4</ele>
        <time>2026-03-26T11:13:56.831Z</time>
      </trkpt>
      <trkpt lat="46.82294" lon="-0.93148">
        <ele>126.3</ele>
        <time>2026-03-26T11:13:59.895Z</time>
      </trkpt>
      <trkpt lat="46.82329" lon="-0.93142">
        <ele>126</ele>
        <time>2026-03-26T11:14:05.112Z</time>
      </trkpt>
      <trkpt lat="46.82389" lon="-0.9312">
        <ele>125</ele>
        <time>2026-03-26T11:14:13.674Z</time>
      </trkpt>
      <trkpt lat="46.82418" lon="-0.93116">
        <ele>124.4</ele>
        <time>2026-03-26T11:14:17.559Z</time>
      </trkpt>
      <trkpt lat="46.8263" lon="-0.93133">
        <ele>135</ele>
        <time>2026-03-26T11:15:16.820Z</time>
      </trkpt>
      <trkpt lat="46.82687" lon="-0.93142">
        <ele>136.6</ele>
        <time>2026-03-26T11:15:29.095Z</time>
      </trkpt>
      <trkpt lat="46.82748" lon="-0.93162">
        <ele>135.2</ele>
        <time>2026-03-26T11:15:37.309Z</time>
        <extensions>
          <visugpx:TrkExtension xmlns:visugpx="https://www.visugpx.com/editgpx/">
            <visugpx:node>38</visugpx:node>
            </visugpx:TrkExtension>
        </extensions>
      </trkpt>
      <trkpt lat="46.82771" lon="-0.93174">
        <ele>134.5</ele>
        <time>2026-03-26T11:15:40.360Z</time>
      </trkpt>
      <trkpt lat="46.82804" lon="-0.93195">
        <ele>133.3</ele>
        <time>2026-03-26T11:15:44.698Z</time>
      </trkpt>
      <trkpt lat="46.82871" lon="-0.93249">
        <ele>132.8</ele>
        <time>2026-03-26T11:15:56.228Z</time>
      </trkpt>
      <trkpt lat="46.82885" lon="-0.93258">
        <ele>133.4</ele>
        <time>2026-03-26T11:15:59.967Z</time>
      </trkpt>
      <trkpt lat="46.82914" lon="-0.9327">
        <ele>134.6</ele>
        <time>2026-03-26T11:16:07.386Z</time>
      </trkpt>
      <trkpt lat="46.82939" lon="-0.93275">
        <ele>135.6</ele>
        <time>2026-03-26T11:16:13.584Z</time>
      </trkpt>
      <trkpt lat="46.832" lon="-0.93281">
        <ele>146.8</ele>
        <time>2026-03-26T11:17:20.312Z</time>
      </trkpt>
      <trkpt lat="46.83282" lon="-0.93285">
        <ele>150.9</ele>
        <time>2026-03-26T11:17:43.226Z</time>
      </trkpt>
      <trkpt lat="46.83299" lon="-0.93284">
        <ele>151.8</ele>
        <time>2026-03-26T11:17:48.159Z</time>
      </trkpt>
      <trkpt lat="46.83312" lon="-0.93282">
        <ele>152.3</ele>
        <time>2026-03-26T11:17:51.317Z</time>
      </trkpt>
      <trkpt lat="46.83329" lon="-0.93277">
        <ele>153.1</ele>
        <time>2026-03-26T11:17:55.931Z</time>
      </trkpt>
      <trkpt lat="46.83343" lon="-0.93275">
        <ele>153.6</ele>
        <time>2026-03-26T11:17:59.221Z</time>
      </trkpt>
      <trkpt lat="46.83356" lon="-0.93275">
        <ele>154.1</ele>
        <time>2026-03-26T11:18:02.369Z</time>
      </trkpt>
      <trkpt lat="46.83398" lon="-0.93281">
        <ele>155.7</ele>
        <time>2026-03-26T11:18:12.522Z</time>
      </trkpt>
      <trkpt lat="46.83408" lon="-0.93281">
        <ele>156.1</ele>
        <time>2026-03-26T11:18:14.989Z</time>
      </trkpt>
      <trkpt lat="46.83463" lon="-0.93275">
        <ele>156.9</ele>
        <time>2026-03-26T11:18:25.196Z</time>
      </trkpt>
      <trkpt lat="46.83509" lon="-0.93265">
        <ele>157.5</ele>
        <time>2026-03-26T11:18:33.661Z</time>
      </trkpt>
      <trkpt lat="46.83523" lon="-0.93263">
        <ele>157.8</ele>
        <time>2026-03-26T11:18:36.460Z</time>
      </trkpt>
      <trkpt lat="46.83537" lon="-0.93263">
        <ele>158.2</ele>
        <time>2026-03-26T11:18:39.480Z</time>
      </trkpt>
      <trkpt lat="46.8357" lon="-0.9327">
        <ele>159.5</ele>
        <time>2026-03-26T11:18:47.607Z</time>
      </trkpt>
      <trkpt lat="46.83661" lon="-0.93306">
        <ele>163.2</ele>
        <time>2026-03-26T11:19:10.655Z</time>
      </trkpt>
      <trkpt lat="46.83722" lon="-0.93318">
        <ele>164</ele>
        <time>2026-03-26T11:19:21.869Z</time>
      </trkpt>
      <trkpt lat="46.83779" lon="-0.93326">
        <ele>163.8</ele>
        <time>2026-03-26T11:19:30.744Z</time>
      </trkpt>
      <trkpt lat="46.8379" lon="-0.93326">
        <ele>163.7</ele>
        <time>2026-03-26T11:19:32.363Z</time>
      </trkpt>
      <trkpt lat="46.83816" lon="-0.93323">
        <ele>163.5</ele>
        <time>2026-03-26T11:19:36.254Z</time>
      </trkpt>
      <trkpt lat="46.83887" lon="-0.93309">
        <ele>164.1</ele>
        <time>2026-03-26T11:19:48.706Z</time>
      </trkpt>
      <trkpt lat="46.83911" lon="-0.93306">
        <ele>164.3</ele>
        <time>2026-03-26T11:19:52.889Z</time>
      </trkpt>
      <trkpt lat="46.8397" lon="-0.93282">
        <ele>165</ele>
        <time>2026-03-26T11:20:03.869Z</time>
      </trkpt>
      <trkpt lat="46.83987" lon="-0.93279">
        <ele>165.2</ele>
        <time>2026-03-26T11:20:06.946Z</time>
      </trkpt>
      <trkpt lat="46.84009" lon="-0.93282">
        <ele>165.2</ele>
        <time>2026-03-26T11:20:10.485Z</time>
      </trkpt>
      <trkpt lat="46.8404" lon="-0.93296">
        <ele>164.9</ele>
        <time>2026-03-26T11:20:15.256Z</time>
      </trkpt>
      <trkpt lat="46.84102" lon="-0.93329">
        <ele>164.5</ele>
        <time>2026-03-26T11:20:25.243Z</time>
      </trkpt>
      <trkpt lat="46.84134" lon="-0.93341">
        <ele>165</ele>
        <time>2026-03-26T11:20:31.397Z</time>
      </trkpt>
      <trkpt lat="46.84238" lon="-0.93361">
        <ele>164.4</ele>
        <time>2026-03-26T11:20:47.323Z</time>
      </trkpt>
      <trkpt lat="46.84297" lon="-0.93369">
        <ele>164.5</ele>
        <time>2026-03-26T11:20:56.967Z</time>
      </trkpt>
      <trkpt lat="46.84312" lon="-0.93368">
        <ele>164.6</ele>
        <time>2026-03-26T11:20:59.532Z</time>
      </trkpt>
      <trkpt lat="46.84326" lon="-0.93365">
        <ele>164.8</ele>
        <time>2026-03-26T11:21:02.141Z</time>
      </trkpt>
      <trkpt lat="46.84361" lon="-0.93348">
        <ele>164.8</ele>
        <time>2026-03-26T11:21:08.048Z</time>
      </trkpt>
      <trkpt lat="46.84409" lon="-0.93321">
        <ele>164.8</ele>
        <time>2026-03-26T11:21:16.284Z</time>
      </trkpt>
      <trkpt lat="46.84533" lon="-0.93244">
        <ele>168.9</ele>
        <time>2026-03-26T11:21:45.972Z</time>
      </trkpt>
      <trkpt lat="46.84643" lon="-0.93174">
        <ele>168.4</ele>
        <time>2026-03-26T11:22:04.449Z</time>
      </trkpt>
      <trkpt lat="46.84748" lon="-0.93117">
        <ele>169.5</ele>
        <time>2026-03-26T11:22:24.202Z</time>
      </trkpt>
      <trkpt lat="46.84776" lon="-0.93107">
        <ele>169.1</ele>
        <time>2026-03-26T11:22:28.271Z</time>
      </trkpt>
      <trkpt lat="46.84792" lon="-0.93103">
        <ele>168.9</ele>
        <time>2026-03-26T11:22:30.594Z</time>
      </trkpt>
      <trkpt lat="46.84828" lon="-0.93097">
        <ele>168.3</ele>
        <time>2026-03-26T11:22:35.593Z</time>
      </trkpt>
      <trkpt lat="46.8486" lon="-0.93094">
        <ele>168.7</ele>
        <time>2026-03-26T11:22:41.403Z</time>
      </trkpt>
      <trkpt lat="46.84883" lon="-0.93095">
        <ele>169</ele>
        <time>2026-03-26T11:22:45.597Z</time>
      </trkpt>
      <trkpt lat="46.84912" lon="-0.93106">
        <ele>168.8</ele>
        <time>2026-03-26T11:22:50.106Z</time>
      </trkpt>
      <trkpt lat="46.84971" lon="-0.93142">
        <ele>168.8</ele>
        <time>2026-03-26T11:23:00.345Z</time>
        <extensions>
          <visugpx:TrkExtension xmlns:visugpx="https://www.visugpx.com/editgpx/">
            <visugpx:node>40</visugpx:node>
            </visugpx:TrkExtension>
        </extensions>
      </trkpt>
      <trkpt lat="46.84956" lon="-0.93133">
        <ele>168.2</ele>
        <time>2026-03-26T11:23:02.258Z</time>
      </trkpt>
      <trkpt lat="46.84987" lon="-0.93148">
        <ele>169.4</ele>
        <time>2026-03-26T11:23:09.998Z</time>
      </trkpt>
      <trkpt lat="46.84988" lon="-0.93149">
        <ele>169.4</ele>
        <time>2026-03-26T11:23:10.198Z</time>
      </trkpt>
      <trkpt lat="46.85012" lon="-0.93159">
        <ele>170.3</ele>
        <time>2026-03-26T11:23:16.084Z</time>
      </trkpt>
      <trkpt lat="46.8502" lon="-0.93159">
        <ele>170.8</ele>
        <time>2026-03-26T11:23:18.705Z</time>
      </trkpt>
      <trkpt lat="46.85026" lon="-0.93155">
        <ele>171.3</ele>
        <time>2026-03-26T11:23:21.302Z</time>
      </trkpt>
      <trkpt lat="46.8503" lon="-0.93153">
        <ele>171.5</ele>
        <time>2026-03-26T11:23:22.443Z</time>
      </trkpt>
      <trkpt lat="46.85037" lon="-0.93149">
        <ele>171.8</ele>
        <time>2026-03-26T11:23:24.203Z</time>
      </trkpt>
      <trkpt lat="46.85042" lon="-0.9315">
        <ele>171.9</ele>
        <time>2026-03-26T11:23:25.218Z</time>
      </trkpt>
      <trkpt lat="46.85054" lon="-0.93156">
        <ele>171.7</ele>
        <time>2026-03-26T11:23:26.990Z</time>
      </trkpt>
      <trkpt lat="46.85068" lon="-0.93171">
        <ele>170.7</ele>
        <time>2026-03-26T11:23:28.744Z</time>
      </trkpt>
      <trkpt lat="46.85097" lon="-0.93193">
        <ele>169.1</ele>
        <time>2026-03-26T11:23:32.308Z</time>
      </trkpt>
      <trkpt lat="46.85113" lon="-0.93202">
        <ele>168.5</ele>
        <time>2026-03-26T11:23:34.346Z</time>
      </trkpt>
      <trkpt lat="46.85134" lon="-0.93208">
        <ele>168.4</ele>
        <time>2026-03-26T11:23:37.621Z</time>
      </trkpt>
      <trkpt lat="46.85184" lon="-0.9322">
        <ele>168.5</ele>
        <time>2026-03-26T11:23:45.782Z</time>
      </trkpt>
      <trkpt lat="46.85202" lon="-0.93222">
        <ele>167.5</ele>
        <time>2026-03-26T11:23:47.661Z</time>
      </trkpt>
      <trkpt lat="46.85208" lon="-0.93222">
        <ele>167</ele>
        <time>2026-03-26T11:23:48.276Z</time>
      </trkpt>
      <trkpt lat="46.85219" lon="-0.9322">
        <ele>166.4</ele>
        <time>2026-03-26T11:23:49.355Z</time>
      </trkpt>
      <trkpt lat="46.85233" lon="-0.93215">
        <ele>165.8</ele>
        <time>2026-03-26T11:23:51.127Z</time>
      </trkpt>
      <trkpt lat="46.8525" lon="-0.93205">
        <ele>164.6</ele>
        <time>2026-03-26T11:23:52.878Z</time>
      </trkpt>
      <trkpt lat="46.85373" lon="-0.93123">
        <ele>156.7</ele>
        <time>2026-03-26T11:24:06.551Z</time>
      </trkpt>
      <trkpt lat="46.85392" lon="-0.93109">
        <ele>156</ele>
        <time>2026-03-26T11:24:09.157Z</time>
      </trkpt>
      <trkpt lat="46.85406" lon="-0.93097">
        <ele>155.9</ele>
        <time>2026-03-26T11:24:11.492Z</time>
      </trkpt>
      <trkpt lat="46.85416" lon="-0.93086">
        <ele>155.9</ele>
        <time>2026-03-26T11:24:13.503Z</time>
      </trkpt>
      <trkpt lat="46.85426" lon="-0.93074">
        <ele>155.2</ele>
        <time>2026-03-26T11:24:14.882Z</time>
      </trkpt>
      <trkpt lat="46.85435" lon="-0.9306">
        <ele>155.1</ele>
        <time>2026-03-26T11:24:16.908Z</time>
      </trkpt>
      <trkpt lat="46.85455" lon="-0.93026">
        <ele>155.4</ele>
        <time>2026-03-26T11:24:22.240Z</time>
      </trkpt>
      <trkpt lat="46.85485" lon="-0.92967">
        <ele>156.4</ele>
        <time>2026-03-26T11:24:32.107Z</time>
      </trkpt>
      <trkpt lat="46.85496" lon="-0.92945">
        <ele>156.9</ele>
        <time>2026-03-26T11:24:36.019Z</time>
      </trkpt>
      <trkpt lat="46.85506" lon="-0.9293">
        <ele>157.1</ele>
        <time>2026-03-26T11:24:38.690Z</time>
      </trkpt>
      <trkpt lat="46.85528" lon="-0.92904">
        <ele>157</ele>
        <time>2026-03-26T11:24:43.072Z</time>
      </trkpt>
      <trkpt lat="46.85548" lon="-0.92884">
        <ele>156.3</ele>
        <time>2026-03-26T11:24:46.069Z</time>
      </trkpt>
      <trkpt lat="46.85563" lon="-0.92871">
        <ele>155.4</ele>
        <time>2026-03-26T11:24:47.873Z</time>
      </trkpt>
      <trkpt lat="46.85576" lon="-0.92862">
        <ele>153.9</ele>
        <time>2026-03-26T11:24:49.267Z</time>
      </trkpt>
      <trkpt lat="46.85589" lon="-0.92856">
        <ele>152.8</ele>
        <time>2026-03-26T11:24:50.582Z</time>
      </trkpt>
      <trkpt lat="46.85611" lon="-0.92848">
        <ele>152</ele>
        <time>2026-03-26T11:24:53.260Z</time>
      </trkpt>
      <trkpt lat="46.85653" lon="-0.92836">
        <ele>148.1</ele>
        <time>2026-03-26T11:24:57.406Z</time>
      </trkpt>
      <trkpt lat="46.85669" lon="-0.9283">
        <ele>146.9</ele>
        <time>2026-03-26T11:24:59.032Z</time>
      </trkpt>
      <trkpt lat="46.85686" lon="-0.92823">
        <ele>146</ele>
        <time>2026-03-26T11:25:00.853Z</time>
      </trkpt>
      <trkpt lat="46.85698" lon="-0.92816">
        <ele>145.2</ele>
        <time>2026-03-26T11:25:02.144Z</time>
      </trkpt>
      <trkpt lat="46.85708" lon="-0.9281">
        <ele>144.6</ele>
        <time>2026-03-26T11:25:03.249Z</time>
      </trkpt>
      <trkpt lat="46.85723" lon="-0.92798">
        <ele>144</ele>
        <time>2026-03-26T11:25:05.304Z</time>
      </trkpt>
      <trkpt lat="46.85735" lon="-0.92788">
        <ele>143.5</ele>
        <time>2026-03-26T11:25:06.871Z</time>
      </trkpt>
      <trkpt lat="46.85749" lon="-0.92773">
        <ele>143</ele>
        <time>2026-03-26T11:25:09.074Z</time>
      </trkpt>
      <trkpt lat="46.85778" lon="-0.92735">
        <ele>142.5</ele>
        <time>2026-03-26T11:25:14.628Z</time>
      </trkpt>
      <trkpt lat="46.85789" lon="-0.92726">
        <ele>142</ele>
        <time>2026-03-26T11:25:16.059Z</time>
      </trkpt>
      <trkpt lat="46.85799" lon="-0.9272">
        <ele>141.7</ele>
        <time>2026-03-26T11:25:17.383Z</time>
      </trkpt>
      <trkpt lat="46.85808" lon="-0.92718">
        <ele>141.6</ele>
        <time>2026-03-26T11:25:18.779Z</time>
      </trkpt>
      <trkpt lat="46.85819" lon="-0.92716">
        <ele>141.5</ele>
        <time>2026-03-26T11:25:20.436Z</time>
      </trkpt>
      <trkpt lat="46.85835" lon="-0.92717">
        <ele>140.9</ele>
        <time>2026-03-26T11:25:22.261Z</time>
      </trkpt>
      <trkpt lat="46.8585" lon="-0.9272">
        <ele>139.7</ele>
        <time>2026-03-26T11:25:23.738Z</time>
      </trkpt>
      <trkpt lat="46.85865" lon="-0.92726">
        <ele>138.7</ele>
        <time>2026-03-26T11:25:25.206Z</time>
      </trkpt>
      <trkpt lat="46.85886" lon="-0.92737">
        <ele>138</ele>
        <time>2026-03-26T11:25:27.885Z</time>
      </trkpt>
      <trkpt lat="46.85898" lon="-0.92745">
        <ele>137.3</ele>
        <time>2026-03-26T11:25:29.300Z</time>
      </trkpt>
      <trkpt lat="46.85902" lon="-0.92748">
        <ele>137.1</ele>
        <time>2026-03-26T11:25:29.804Z</time>
      </trkpt>
      <trkpt lat="46.85917" lon="-0.92758">
        <ele>136.4</ele>
        <time>2026-03-26T11:25:31.629Z</time>
      </trkpt>
      <trkpt lat="46.85927" lon="-0.92766">
        <ele>135.9</ele>
        <time>2026-03-26T11:25:33.023Z</time>
      </trkpt>
      <trkpt lat="46.85939" lon="-0.92774">
        <ele>134.8</ele>
        <time>2026-03-26T11:25:34.238Z</time>
      </trkpt>
      <trkpt lat="46.8595" lon="-0.92779">
        <ele>133.6</ele>
        <time>2026-03-26T11:25:35.338Z</time>
      </trkpt>
      <trkpt lat="46.85961" lon="-0.92781">
        <ele>132.8</ele>
        <time>2026-03-26T11:25:36.429Z</time>
      </trkpt>
      <trkpt lat="46.85969" lon="-0.92781">
        <ele>132.2</ele>
        <time>2026-03-26T11:25:37.178Z</time>
      </trkpt>
      <trkpt lat="46.8598" lon="-0.92779">
        <ele>131.7</ele>
        <time>2026-03-26T11:25:38.375Z</time>
      </trkpt>
      <trkpt lat="46.8599" lon="-0.92774">
        <ele>131.6</ele>
        <time>2026-03-26T11:25:39.961Z</time>
      </trkpt>
      <trkpt lat="46.86002" lon="-0.92767">
        <ele>130.9</ele>
        <time>2026-03-26T11:25:41.324Z</time>
      </trkpt>
      <trkpt lat="46.86014" lon="-0.92758">
        <ele>130.3</ele>
        <time>2026-03-26T11:25:42.844Z</time>
      </trkpt>
      <trkpt lat="46.86024" lon="-0.92748">
        <ele>130.1</ele>
        <time>2026-03-26T11:25:44.529Z</time>
      </trkpt>
      <trkpt lat="46.86033" lon="-0.92739">
        <ele>130</ele>
        <time>2026-03-26T11:25:46.081Z</time>
      </trkpt>
      <trkpt lat="46.86043" lon="-0.92723">
        <ele>131.1</ele>
        <time>2026-03-26T11:25:51.794Z</time>
      </trkpt>
      <trkpt lat="46.86052" lon="-0.92705">
        <ele>132</ele>
        <time>2026-03-26T11:25:56.599Z</time>
      </trkpt>
      <trkpt lat="46.86057" lon="-0.92688">
        <ele>132.5</ele>
        <time>2026-03-26T11:25:59.671Z</time>
      </trkpt>
      <trkpt lat="46.86068" lon="-0.92646">
        <ele>135.9</ele>
        <time>2026-03-26T11:26:18.312Z</time>
      </trkpt>
      <trkpt lat="46.86076" lon="-0.92611">
        <ele>138.3</ele>
        <time>2026-03-26T11:26:31.176Z</time>
      </trkpt>
      <trkpt lat="46.86081" lon="-0.92612">
        <ele>138.1</ele>
        <time>2026-03-26T11:26:31.709Z</time>
      </trkpt>
      <trkpt lat="46.86159" lon="-0.92655">
        <ele>137.4</ele>
        <time>2026-03-26T11:26:44.031Z</time>
      </trkpt>
      <trkpt lat="46.86168" lon="-0.92653">
        <ele>137.6</ele>
        <time>2026-03-26T11:26:45.923Z</time>
      </trkpt>
      <trkpt lat="46.86183" lon="-0.92626">
        <ele>139.3</ele>
        <time>2026-03-26T11:26:54.759Z</time>
      </trkpt>
      <trkpt lat="46.86195" lon="-0.92617">
        <ele>139.8</ele>
        <time>2026-03-26T11:26:58.015Z</time>
      </trkpt>
      <trkpt lat="46.86216" lon="-0.92603">
        <ele>140.9</ele>
        <time>2026-03-26T11:27:04.227Z</time>
      </trkpt>
      <trkpt lat="46.86237" lon="-0.92597">
        <ele>141</ele>
        <time>2026-03-26T11:27:07.776Z</time>
      </trkpt>
      <trkpt lat="46.86246" lon="-0.92588">
        <ele>141</ele>
        <time>2026-03-26T11:27:09.491Z</time>
      </trkpt>
      <trkpt lat="46.86246" lon="-0.92583">
        <ele>141</ele>
        <time>2026-03-26T11:27:10.010Z</time>
      </trkpt>
      <trkpt lat="46.86257" lon="-0.92608">
        <ele>140.8</ele>
        <time>2026-03-26T11:27:12.911Z</time>
      </trkpt>
      <trkpt lat="46.86259" lon="-0.92612">
        <ele>140.6</ele>
        <time>2026-03-26T11:27:13.272Z</time>
      </trkpt>
      <trkpt lat="46.86259" lon="-0.92618">
        <ele>140.5</ele>
        <time>2026-03-26T11:27:13.762Z</time>
      </trkpt>
      <trkpt lat="46.86258" lon="-0.92629">
        <ele>140.2</ele>
        <time>2026-03-26T11:27:14.700Z</time>
      </trkpt>
      <trkpt lat="46.86258" lon="-0.92635">
        <ele>140.1</ele>
        <time>2026-03-26T11:27:15.158Z</time>
      </trkpt>
      <trkpt lat="46.86263" lon="-0.92667">
        <ele>140</ele>
        <time>2026-03-26T11:27:18.693Z</time>
      </trkpt>
      <trkpt lat="46.86268" lon="-0.92711">
        <ele>138.8</ele>
        <time>2026-03-26T11:27:22.152Z</time>
      </trkpt>
      <trkpt lat="46.8627" lon="-0.92744">
        <ele>137.2</ele>
        <time>2026-03-26T11:27:24.356Z</time>
      </trkpt>
      <trkpt lat="46.86272" lon="-0.92753">
        <ele>136.7</ele>
        <time>2026-03-26T11:27:24.962Z</time>
      </trkpt>
      <trkpt lat="46.86286" lon="-0.92772">
        <ele>136.8</ele>
        <time>2026-03-26T11:27:28.180Z</time>
      </trkpt>
      <trkpt lat="46.86303" lon="-0.92791">
        <ele>136.5</ele>
        <time>2026-03-26T11:27:31.152Z</time>
      </trkpt>
      <trkpt lat="46.86326" lon="-0.92808">
        <ele>134.1</ele>
        <time>2026-03-26T11:27:33.681Z</time>
      </trkpt>
      <trkpt lat="46.86329" lon="-0.9281">
        <ele>134</ele>
        <time>2026-03-26T11:27:33.966Z</time>
      </trkpt>
      <trkpt lat="46.86378" lon="-0.92837">
        <ele>130.4</ele>
        <time>2026-03-26T11:27:39.029Z</time>
      </trkpt>
      <trkpt lat="46.86412" lon="-0.92854">
        <ele>127.9</ele>
        <time>2026-03-26T11:27:42.471Z</time>
      </trkpt>
      <trkpt lat="46.86434" lon="-0.92863">
        <ele>126.3</ele>
        <time>2026-03-26T11:27:44.661Z</time>
      </trkpt>
      <trkpt lat="46.8644" lon="-0.92865">
        <ele>125.9</ele>
        <time>2026-03-26T11:27:45.269Z</time>
      </trkpt>
      <trkpt lat="46.86484" lon="-0.9288">
        <ele>123.4</ele>
        <time>2026-03-26T11:27:49.895Z</time>
      </trkpt>
      <trkpt lat="46.86499" lon="-0.92882">
        <ele>122.6</ele>
        <time>2026-03-26T11:27:51.555Z</time>
      </trkpt>
      <trkpt lat="46.86514" lon="-0.9288">
        <ele>122.3</ele>
        <time>2026-03-26T11:27:53.539Z</time>
      </trkpt>
      <trkpt lat="46.8654" lon="-0.92873">
        <ele>121.6</ele>
        <time>2026-03-26T11:27:56.915Z</time>
      </trkpt>
      <trkpt lat="46.8656" lon="-0.92865">
        <ele>121.1</ele>
        <time>2026-03-26T11:27:59.556Z</time>
        <extensions>
          <visugpx:TrkExtension xmlns:visugpx="https://www.visugpx.com/editgpx/">
            <visugpx:node>41</visugpx:node>
            </visugpx:TrkExtension>
        </extensions>
      </trkpt>
      <trkpt lat="46.86562" lon="-0.92864">
        <ele>121.2</ele>
        <time>2026-03-26T11:28:00.147Z</time>
      </trkpt>
      <trkpt lat="46.86578" lon="-0.9286">
        <ele>121.8</ele>
        <time>2026-03-26T11:28:04.051Z</time>
      </trkpt>
      <trkpt lat="46.86595" lon="-0.92861">
        <ele>122.9</ele>
        <time>2026-03-26T11:28:09.826Z</time>
      </trkpt>
      <trkpt lat="46.86613" lon="-0.92865">
        <ele>124.3</ele>
        <time>2026-03-26T11:28:17.108Z</time>
      </trkpt>
      <trkpt lat="46.8662" lon="-0.92866">
        <ele>124.8</ele>
        <time>2026-03-26T11:28:19.705Z</time>
      </trkpt>
      <trkpt lat="46.86687" lon="-0.92884">
        <ele>128.9</ele>
        <time>2026-03-26T11:28:41.414Z</time>
      </trkpt>
      <trkpt lat="46.86712" lon="-0.92893">
        <ele>128.8</ele>
        <time>2026-03-26T11:28:45.441Z</time>
      </trkpt>
      <trkpt lat="46.86743" lon="-0.92901">
        <ele>127.4</ele>
        <time>2026-03-26T11:28:48.927Z</time>
      </trkpt>
      <trkpt lat="46.86762" lon="-0.92904">
        <ele>126.7</ele>
        <time>2026-03-26T11:28:51.142Z</time>
      </trkpt>
      <trkpt lat="46.86779" lon="-0.92902">
        <ele>126.4</ele>
        <time>2026-03-26T11:28:53.580Z</time>
      </trkpt>
      <trkpt lat="46.86795" lon="-0.92898">
        <ele>125.3</ele>
        <time>2026-03-26T11:28:55.152Z</time>
      </trkpt>
      <trkpt lat="46.86814" lon="-0.92888">
        <ele>124.2</ele>
        <time>2026-03-26T11:28:57.162Z</time>
      </trkpt>
      <trkpt lat="46.86839" lon="-0.9287">
        <ele>123.3</ele>
        <time>2026-03-26T11:29:00.605Z</time>
      </trkpt>
      <trkpt lat="46.86851" lon="-0.92862">
        <ele>123.4</ele>
        <time>2026-03-26T11:29:02.807Z</time>
      </trkpt>
      <trkpt lat="46.86856" lon="-0.92859">
        <ele>123.3</ele>
        <time>2026-03-26T11:29:03.645Z</time>
      </trkpt>
      <trkpt lat="46.86861" lon="-0.92859">
        <ele>123.1</ele>
        <time>2026-03-26T11:29:04.145Z</time>
      </trkpt>
      <trkpt lat="46.86869" lon="-0.92861">
        <ele>123.3</ele>
        <time>2026-03-26T11:29:05.902Z</time>
      </trkpt>
      <trkpt lat="46.86877" lon="-0.92871">
        <ele>123.8</ele>
        <time>2026-03-26T11:29:08.677Z</time>
      </trkpt>
      <trkpt lat="46.8688" lon="-0.92879">
        <ele>124.1</ele>
        <time>2026-03-26T11:29:10.419Z</time>
      </trkpt>
      <trkpt lat="46.86883" lon="-0.92891">
        <ele>124.6</ele>
        <time>2026-03-26T11:29:13.087Z</time>
      </trkpt>
      <trkpt lat="46.86885" lon="-0.92913">
        <ele>124.7</ele>
        <time>2026-03-26T11:29:15.740Z</time>
      </trkpt>
      <trkpt lat="46.86889" lon="-0.93065">
        <ele>129.4</ele>
        <time>2026-03-26T11:29:43.082Z</time>
      </trkpt>
      <trkpt lat="46.8689" lon="-0.93099">
        <ele>130.6</ele>
        <time>2026-03-26T11:29:49.681Z</time>
      </trkpt>
      <trkpt lat="46.8689" lon="-0.9319">
        <ele>133.9</ele>
        <time>2026-03-26T11:30:07.742Z</time>
      </trkpt>
      <trkpt lat="46.86886" lon="-0.93247">
        <ele>134.7</ele>
        <time>2026-03-26T11:30:15.481Z</time>
      </trkpt>
      <trkpt lat="46.86882" lon="-0.93307">
        <ele>133.5</ele>
        <time>2026-03-26T11:30:20.599Z</time>
      </trkpt>
      <trkpt lat="46.86871" lon="-0.93401">
        <ele>130.3</ele>
        <time>2026-03-26T11:30:27.636Z</time>
      </trkpt>
      <trkpt lat="46.8687" lon="-0.9342">
        <ele>129.6</ele>
        <time>2026-03-26T11:30:29.006Z</time>
      </trkpt>
      <trkpt lat="46.86871" lon="-0.93439">
        <ele>129.4</ele>
        <time>2026-03-26T11:30:30.841Z</time>
      </trkpt>
      <trkpt lat="46.86893" lon="-0.93549">
        <ele>125.2</ele>
        <time>2026-03-26T11:30:39.048Z</time>
      </trkpt>
      <trkpt lat="46.86904" lon="-0.93608">
        <ele>124.5</ele>
        <time>2026-03-26T11:30:44.739Z</time>
      </trkpt>
      <trkpt lat="46.86929" lon="-0.93769">
        <ele>126.5</ele>
        <time>2026-03-26T11:31:06.358Z</time>
      </trkpt>
      <trkpt lat="46.86936" lon="-0.93858">
        <ele>127</ele>
        <time>2026-03-26T11:31:17.051Z</time>
      </trkpt>
      <trkpt lat="46.86938" lon="-0.93876">
        <ele>127.3</ele>
        <time>2026-03-26T11:31:19.581Z</time>
      </trkpt>
      <trkpt lat="46.8695" lon="-0.93927">
        <ele>128.7</ele>
        <time>2026-03-26T11:31:28.463Z</time>
      </trkpt>
      <trkpt lat="46.86981" lon="-0.94008">
        <ele>130.4</ele>
        <time>2026-03-26T11:31:41.851Z</time>
      </trkpt>
      <trkpt lat="46.87013" lon="-0.9407">
        <ele>128.3</ele>
        <time>2026-03-26T11:31:47.975Z</time>
        <extensions>
          <visugpx:TrkExtension xmlns:visugpx="https://www.visugpx.com/editgpx/">
            <visugpx:node>42</visugpx:node>
            </visugpx:TrkExtension>
        </extensions>
      </trkpt>
      <trkpt lat="46.87032" lon="-0.94107">
        <ele>126.9</ele>
        <time>2026-03-26T11:31:51.477Z</time>
      </trkpt>
      <trkpt lat="46.87116" lon="-0.94267">
        <ele>122.5</ele>
        <time>2026-03-26T11:32:08.292Z</time>
      </trkpt>
      <trkpt lat="46.87121" lon="-0.94276">
        <ele>122.4</ele>
        <time>2026-03-26T11:32:09.421Z</time>
      </trkpt>
      <trkpt lat="46.87147" lon="-0.94318">
        <ele>123.3</ele>
        <time>2026-03-26T11:32:17.283Z</time>
      </trkpt>
      <trkpt lat="46.87163" lon="-0.94338">
        <ele>124</ele>
        <time>2026-03-26T11:32:22.034Z</time>
      </trkpt>
      <trkpt lat="46.87188" lon="-0.94366">
        <ele>125.8</ele>
        <time>2026-03-26T11:32:31.720Z</time>
      </trkpt>
      <trkpt lat="46.87231" lon="-0.94412">
        <ele>128.2</ele>
        <time>2026-03-26T11:32:45.695Z</time>
      </trkpt>
      <trkpt lat="46.87236" lon="-0.9442">
        <ele>128.2</ele>
        <time>2026-03-26T11:32:46.939Z</time>
      </trkpt>
      <trkpt lat="46.87241" lon="-0.94431">
        <ele>127.6</ele>
        <time>2026-03-26T11:32:47.780Z</time>
      </trkpt>
      <trkpt lat="46.87243" lon="-0.94449">
        <ele>126.6</ele>
        <time>2026-03-26T11:32:48.981Z</time>
      </trkpt>
      <trkpt lat="46.87242" lon="-0.9447">
        <ele>125.8</ele>
        <time>2026-03-26T11:32:50.460Z</time>
      </trkpt>
      <trkpt lat="46.87226" lon="-0.9455">
        <ele>119.5</ele>
        <time>2026-03-26T11:32:55.952Z</time>
      </trkpt>
      <trkpt lat="46.87223" lon="-0.94561">
        <ele>119</ele>
        <time>2026-03-26T11:32:56.704Z</time>
      </trkpt>
      <trkpt lat="46.8717" lon="-0.9484">
        <ele>130.1</ele>
        <time>2026-03-26T11:33:56.526Z</time>
      </trkpt>
      <trkpt lat="46.87162" lon="-0.94897">
        <ele>132.5</ele>
        <time>2026-03-26T11:34:09.248Z</time>
      </trkpt>
      <trkpt lat="46.87159" lon="-0.94959">
        <ele>134.8</ele>
        <time>2026-03-26T11:34:21.748Z</time>
      </trkpt>
      <trkpt lat="46.87161" lon="-0.95002">
        <ele>136.3</ele>
        <time>2026-03-26T11:34:30.044Z</time>
      </trkpt>
      <trkpt lat="46.87164" lon="-0.95045">
        <ele>138.6</ele>
        <time>2026-03-26T11:34:41.998Z</time>
      </trkpt>
      <trkpt lat="46.87171" lon="-0.95095">
        <ele>140.7</ele>
        <time>2026-03-26T11:34:53.093Z</time>
      </trkpt>
      <trkpt lat="46.8718" lon="-0.95142">
        <ele>143</ele>
        <time>2026-03-26T11:35:05.063Z</time>
      </trkpt>
      <trkpt lat="46.87193" lon="-0.95186">
        <ele>143.9</ele>
        <time>2026-03-26T11:35:12.067Z</time>
      </trkpt>
      <trkpt lat="46.87245" lon="-0.95344">
        <ele>148.9</ele>
        <time>2026-03-26T11:35:42.263Z</time>
      </trkpt>
      <trkpt lat="46.87254" lon="-0.95377">
        <ele>150.3</ele>
        <time>2026-03-26T11:35:49.750Z</time>
      </trkpt>
      <trkpt lat="46.87258" lon="-0.95404">
        <ele>151</ele>
        <time>2026-03-26T11:35:54.310Z</time>
      </trkpt>
      <trkpt lat="46.87264" lon="-0.95491">
        <ele>151.3</ele>
        <time>2026-03-26T11:36:04.299Z</time>
      </trkpt>
      <trkpt lat="46.87262" lon="-0.95512">
        <ele>150.8</ele>
        <time>2026-03-26T11:36:06.037Z</time>
      </trkpt>
      <trkpt lat="46.87256" lon="-0.95541">
        <ele>150</ele>
        <time>2026-03-26T11:36:08.445Z</time>
      </trkpt>
      <trkpt lat="46.87256" lon="-0.95551">
        <ele>149.6</ele>
        <time>2026-03-26T11:36:09.099Z</time>
      </trkpt>
      <trkpt lat="46.87257" lon="-0.95559">
        <ele>149.4</ele>
        <time>2026-03-26T11:36:09.758Z</time>
      </trkpt>
      <trkpt lat="46.87261" lon="-0.95566">
        <ele>149.2</ele>
        <time>2026-03-26T11:36:10.504Z</time>
      </trkpt>
      <trkpt lat="46.87266" lon="-0.95571">
        <ele>149.3</ele>
        <time>2026-03-26T11:36:11.612Z</time>
      </trkpt>
      <trkpt lat="46.87273" lon="-0.95573">
        <ele>149.5</ele>
        <time>2026-03-26T11:36:13.180Z</time>
      </trkpt>
      <trkpt lat="46.87295" lon="-0.95571">
        <ele>150.8</ele>
        <time>2026-03-26T11:36:20.072Z</time>
      </trkpt>
      <trkpt lat="46.87297" lon="-0.9557">
        <ele>151</ele>
        <time>2026-03-26T11:36:21.153Z</time>
      </trkpt>
      <trkpt lat="46.87304" lon="-0.9557">
        <ele>151.4</ele>
        <time>2026-03-26T11:36:23.324Z</time>
      </trkpt>
      <trkpt lat="46.87307" lon="-0.9557">
        <ele>151.5</ele>
        <time>2026-03-26T11:36:23.994Z</time>
      </trkpt>
      <trkpt lat="46.8732" lon="-0.95568">
        <ele>151.5</ele>
        <time>2026-03-26T11:36:26.082Z</time>
      </trkpt>
      <trkpt lat="46.87334" lon="-0.9557">
        <ele>151.5</ele>
        <time>2026-03-26T11:36:28.301Z</time>
      </trkpt>
      <trkpt lat="46.8734" lon="-0.95588">
        <ele>151.1</ele>
        <time>2026-03-26T11:36:30.004Z</time>
      </trkpt>
      <trkpt lat="46.87331" lon="-0.95763">
        <ele>152.8</ele>
        <time>2026-03-26T11:36:52.073Z</time>
      </trkpt>
      <trkpt lat="46.8733" lon="-0.95815">
        <ele>155.6</ele>
        <time>2026-03-26T11:37:06.648Z</time>
      </trkpt>
      <trkpt lat="46.87326" lon="-0.95844">
        <ele>154.5</ele>
        <time>2026-03-26T11:37:08.800Z</time>
      </trkpt>
      <trkpt lat="46.87319" lon="-0.9587">
        <ele>152.1</ele>
        <time>2026-03-26T11:37:10.654Z</time>
      </trkpt>
      <trkpt lat="46.8731" lon="-0.9589">
        <ele>150.2</ele>
        <time>2026-03-26T11:37:12.169Z</time>
        <extensions>
          <visugpx:TrkExtension xmlns:visugpx="https://www.visugpx.com/editgpx/">
            <visugpx:node>43</visugpx:node>
            </visugpx:TrkExtension>
        </extensions>
      </trkpt>
      <trkpt lat="46.87294" lon="-0.95921">
        <ele>150.1</ele>
        <time>2026-03-26T11:37:16.267Z</time>
      </trkpt>
      <trkpt lat="46.87289" lon="-0.95935">
        <ele>149.4</ele>
        <time>2026-03-26T11:37:17.320Z</time>
      </trkpt>
      <trkpt lat="46.87284" lon="-0.95951">
        <ele>148.7</ele>
        <time>2026-03-26T11:37:18.602Z</time>
      </trkpt>
      <trkpt lat="46.87277" lon="-0.95988">
        <ele>149.1</ele>
        <time>2026-03-26T11:37:23.489Z</time>
      </trkpt>
      <trkpt lat="46.87265" lon="-0.96038">
        <ele>148.1</ele>
        <time>2026-03-26T11:37:28.015Z</time>
      </trkpt>
      <trkpt lat="46.87254" lon="-0.96073">
        <ele>146.9</ele>
        <time>2026-03-26T11:37:30.954Z</time>
      </trkpt>
      <trkpt lat="46.87245" lon="-0.96117">
        <ele>145.8</ele>
        <time>2026-03-26T11:37:34.701Z</time>
      </trkpt>
      <trkpt lat="46.87239" lon="-0.96134">
        <ele>145.7</ele>
        <time>2026-03-26T11:37:36.614Z</time>
      </trkpt>
      <trkpt lat="46.87187" lon="-0.96263">
        <ele>143.7</ele>
        <time>2026-03-26T11:37:50.324Z</time>
      </trkpt>
      <trkpt lat="46.87073" lon="-0.96556">
        <ele>144.2</ele>
        <time>2026-03-26T11:38:28.040Z</time>
      </trkpt>
      <trkpt lat="46.87041" lon="-0.96675">
        <ele>145</ele>
        <time>2026-03-26T11:38:43.350Z</time>
      </trkpt>
      <trkpt lat="46.87027" lon="-0.96747">
        <ele>145</ele>
        <time>2026-03-26T11:38:51.598Z</time>
      </trkpt>
      <trkpt lat="46.87015" lon="-0.96876">
        <ele>146.1</ele>
        <time>2026-03-26T11:39:07.701Z</time>
      </trkpt>
      <trkpt lat="46.87003" lon="-0.97131">
        <ele>145.9</ele>
        <time>2026-03-26T11:39:35.337Z</time>
      </trkpt>
      <trkpt lat="46.86998" lon="-0.97184">
        <ele>145.1</ele>
        <time>2026-03-26T11:39:40.214Z</time>
      </trkpt>
      <trkpt lat="46.86993" lon="-0.97251">
        <ele>145</ele>
        <time>2026-03-26T11:39:47.361Z</time>
      </trkpt>
      <trkpt lat="46.86994" lon="-0.97267">
        <ele>144.4</ele>
        <time>2026-03-26T11:39:48.538Z</time>
      </trkpt>
      <trkpt lat="46.86997" lon="-0.97279">
        <ele>144</ele>
        <time>2026-03-26T11:39:49.509Z</time>
      </trkpt>
      <trkpt lat="46.87002" lon="-0.97293">
        <ele>143.9</ele>
        <time>2026-03-26T11:39:51.070Z</time>
      </trkpt>
      <trkpt lat="46.87009" lon="-0.97312">
        <ele>143.2</ele>
        <time>2026-03-26T11:39:52.750Z</time>
      </trkpt>
      <trkpt lat="46.8701" lon="-0.97322">
        <ele>142.9</ele>
        <time>2026-03-26T11:39:53.467Z</time>
      </trkpt>
      <trkpt lat="46.87006" lon="-0.9733">
        <ele>142.9</ele>
        <time>2026-03-26T11:39:54.571Z</time>
      </trkpt>
      <trkpt lat="46.87002" lon="-0.97333">
        <ele>142.9</ele>
        <time>2026-03-26T11:39:55.287Z</time>
      </trkpt>
      <trkpt lat="46.86996" lon="-0.97337">
        <ele>142.9</ele>
        <time>2026-03-26T11:39:56.357Z</time>
      </trkpt>
      <trkpt lat="46.86989" lon="-0.97339">
        <ele>143.1</ele>
        <time>2026-03-26T11:39:57.915Z</time>
      </trkpt>
      <trkpt lat="46.86989" lon="-0.97347">
        <ele>142.6</ele>
        <time>2026-03-26T11:39:58.434Z</time>
      </trkpt>
      <trkpt lat="46.86988" lon="-0.97354">
        <ele>142.3</ele>
        <time>2026-03-26T11:39:58.979Z</time>
      </trkpt>
      <trkpt lat="46.86985" lon="-0.97361">
        <ele>142.1</ele>
        <time>2026-03-26T11:39:59.615Z</time>
      </trkpt>
      <trkpt lat="46.86981" lon="-0.97366">
        <ele>142.2</ele>
        <time>2026-03-26T11:40:00.646Z</time>
      </trkpt>
      <trkpt lat="46.86976" lon="-0.9737">
        <ele>142.4</ele>
        <time>2026-03-26T11:40:01.923Z</time>
      </trkpt>
      <trkpt lat="46.86971" lon="-0.97371">
        <ele>142.7</ele>
        <time>2026-03-26T11:40:03.542Z</time>
      </trkpt>
      <trkpt lat="46.86965" lon="-0.97376">
        <ele>142.6</ele>
        <time>2026-03-26T11:40:04.435Z</time>
      </trkpt>
      <trkpt lat="46.8696" lon="-0.97383">
        <ele>142.6</ele>
        <time>2026-03-26T11:40:05.490Z</time>
      </trkpt>
      <trkpt lat="46.86946" lon="-0.97416">
        <ele>142</ele>
        <time>2026-03-26T11:40:09.041Z</time>
      </trkpt>
      <trkpt lat="46.8694" lon="-0.9743">
        <ele>141.6</ele>
        <time>2026-03-26T11:40:10.373Z</time>
      </trkpt>
      <trkpt lat="46.86918" lon="-0.97487">
        <ele>140.9</ele>
        <time>2026-03-26T11:40:16.605Z</time>
      </trkpt>
      <trkpt lat="46.86837" lon="-0.97682">
        <ele>140.8</ele>
        <time>2026-03-26T11:40:41.383Z</time>
      </trkpt>
      <trkpt lat="46.86793" lon="-0.97788">
        <ele>142.9</ele>
        <time>2026-03-26T11:40:58.910Z</time>
        <extensions>
          <visugpx:TrkExtension xmlns:visugpx="https://www.visugpx.com/editgpx/">
            <visugpx:node>44</visugpx:node>
            </visugpx:TrkExtension>
        </extensions>
      </trkpt>
      <trkpt lat="46.86758" lon="-0.97872">
        <ele>143.7</ele>
        <time>2026-03-26T11:41:11.072Z</time>
      </trkpt>
      <trkpt lat="46.86738" lon="-0.97922">
        <ele>143.6</ele>
        <time>2026-03-26T11:41:17.225Z</time>
      </trkpt>
      <trkpt lat="46.86693" lon="-0.98032">
        <ele>144.2</ele>
        <time>2026-03-26T11:41:32.271Z</time>
      </trkpt>
      <trkpt lat="46.86677" lon="-0.98081">
        <ele>145.3</ele>
        <time>2026-03-26T11:41:40.428Z</time>
      </trkpt>
      <trkpt lat="46.86668" lon="-0.98105">
        <ele>146.6</ele>
        <time>2026-03-26T11:41:47.185Z</time>
      </trkpt>
      <trkpt lat="46.86661" lon="-0.98125">
        <ele>147</ele>
        <time>2026-03-26T11:41:50.412Z</time>
      </trkpt>
      <trkpt lat="46.86655" lon="-0.98135">
        <ele>147.3</ele>
        <time>2026-03-26T11:41:52.414Z</time>
      </trkpt>
      <trkpt lat="46.86649" lon="-0.98144">
        <ele>147.6</ele>
        <time>2026-03-26T11:41:54.422Z</time>
      </trkpt>
      <trkpt lat="46.86639" lon="-0.98154">
        <ele>148.4</ele>
        <time>2026-03-26T11:41:58.602Z</time>
      </trkpt>
      <trkpt lat="46.86631" lon="-0.98158">
        <ele>149.1</ele>
        <time>2026-03-26T11:42:02.260Z</time>
      </trkpt>
      <trkpt lat="46.86629" lon="-0.98159">
        <ele>149.3</ele>
        <time>2026-03-26T11:42:03.328Z</time>
      </trkpt>
      <trkpt lat="46.86632" lon="-0.9823">
        <ele>145.9</ele>
        <time>2026-03-26T11:42:08.006Z</time>
      </trkpt>
      <trkpt lat="46.86634" lon="-0.98421">
        <ele>141.6</ele>
        <time>2026-03-26T11:42:23.795Z</time>
      </trkpt>
      <trkpt lat="46.86634" lon="-0.98433">
        <ele>141.5</ele>
        <time>2026-03-26T11:42:25.036Z</time>
      </trkpt>
      <trkpt lat="46.86634" lon="-0.98452">
        <ele>141.6</ele>
        <time>2026-03-26T11:42:27.235Z</time>
      </trkpt>
      <trkpt lat="46.86634" lon="-0.98461">
        <ele>141.6</ele>
        <time>2026-03-26T11:42:28.177Z</time>
      </trkpt>
      <trkpt lat="46.86634" lon="-0.98473">
        <ele>141.7</ele>
        <time>2026-03-26T11:42:29.692Z</time>
      </trkpt>
      <trkpt lat="46.86635" lon="-0.98532">
        <ele>141.1</ele>
        <time>2026-03-26T11:42:35.317Z</time>
      </trkpt>
      <trkpt lat="46.86637" lon="-0.98555">
        <ele>140.5</ele>
        <time>2026-03-26T11:42:37.235Z</time>
      </trkpt>
      <trkpt lat="46.86642" lon="-0.98591">
        <ele>138.9</ele>
        <time>2026-03-26T11:42:39.636Z</time>
      </trkpt>
      <trkpt lat="46.86645" lon="-0.98615">
        <ele>138.9</ele>
        <time>2026-03-26T11:42:42.352Z</time>
      </trkpt>
      <trkpt lat="46.86651" lon="-0.98656">
        <ele>137.7</ele>
        <time>2026-03-26T11:42:45.547Z</time>
      </trkpt>
      <trkpt lat="46.86664" lon="-0.98742">
        <ele>137.2</ele>
        <time>2026-03-26T11:42:54.453Z</time>
      </trkpt>
      <trkpt lat="46.86673" lon="-0.98802">
        <ele>135.3</ele>
        <time>2026-03-26T11:42:59.181Z</time>
      </trkpt>
      <trkpt lat="46.86676" lon="-0.98827">
        <ele>134.5</ele>
        <time>2026-03-26T11:43:01.042Z</time>
      </trkpt>
      <trkpt lat="46.86677" lon="-0.98834">
        <ele>134.3</ele>
        <time>2026-03-26T11:43:01.574Z</time>
      </trkpt>
      <trkpt lat="46.86677" lon="-0.98837">
        <ele>134.1</ele>
        <time>2026-03-26T11:43:01.817Z</time>
        <extensions>
          <visugpx:TrkExtension xmlns:visugpx="https://www.visugpx.com/editgpx/">
            <visugpx:node>45</visugpx:node>
            </visugpx:TrkExtension>
        </extensions>
      </trkpt>
      <trkpt lat="46.86677" lon="-0.98841">
        <ele>134</ele>
        <time>2026-03-26T11:43:02.129Z</time>
      </trkpt>
      <trkpt lat="46.86679" lon="-0.98853">
        <ele>133.4</ele>
        <time>2026-03-26T11:43:02.919Z</time>
      </trkpt>
      <trkpt lat="46.86681" lon="-0.9887">
        <ele>133</ele>
        <time>2026-03-26T11:43:04.392Z</time>
      </trkpt>
      <trkpt lat="46.86684" lon="-0.98883">
        <ele>132.7</ele>
        <time>2026-03-26T11:43:05.461Z</time>
      </trkpt>
      <trkpt lat="46.86686" lon="-0.98893">
        <ele>132.6</ele>
        <time>2026-03-26T11:43:06.517Z</time>
      </trkpt>
      <trkpt lat="46.86696" lon="-0.98962">
        <ele>129.2</ele>
        <time>2026-03-26T11:43:11.162Z</time>
      </trkpt>
      <trkpt lat="46.8671" lon="-0.99051">
        <ele>126.5</ele>
        <time>2026-03-26T11:43:18.090Z</time>
      </trkpt>
      <trkpt lat="46.86713" lon="-0.99073">
        <ele>126.2</ele>
        <time>2026-03-26T11:43:20.156Z</time>
      </trkpt>
      <trkpt lat="46.86715" lon="-0.99086">
        <ele>126.3</ele>
        <time>2026-03-26T11:43:21.813Z</time>
      </trkpt>
      <trkpt lat="46.86723" lon="-0.99141">
        <ele>127</ele>
        <time>2026-03-26T11:43:29.171Z</time>
      </trkpt>
      <trkpt lat="46.86725" lon="-0.99155">
        <ele>127.3</ele>
        <time>2026-03-26T11:43:31.383Z</time>
      </trkpt>
      <trkpt lat="46.8673" lon="-0.99182">
        <ele>127.1</ele>
        <time>2026-03-26T11:43:34.171Z</time>
      </trkpt>
      <trkpt lat="46.86736" lon="-0.99219">
        <ele>127.4</ele>
        <time>2026-03-26T11:43:38.848Z</time>
      </trkpt>
      <trkpt lat="46.86749" lon="-0.99304">
        <ele>127.2</ele>
        <time>2026-03-26T11:43:48.045Z</time>
      </trkpt>
      <trkpt lat="46.86752" lon="-0.99335">
        <ele>126.8</ele>
        <time>2026-03-26T11:43:50.982Z</time>
      </trkpt>
      <trkpt lat="46.86755" lon="-0.99359">
        <ele>126.4</ele>
        <time>2026-03-26T11:43:53.119Z</time>
      </trkpt>
      <trkpt lat="46.86794" lon="-0.99621">
        <ele>125.2</ele>
        <time>2026-03-26T11:44:20.748Z</time>
      </trkpt>
      <trkpt lat="46.86805" lon="-0.99692">
        <ele>124.2</ele>
        <time>2026-03-26T11:44:27.379Z</time>
      </trkpt>
      <trkpt lat="46.86821" lon="-0.99809">
        <ele>122.1</ele>
        <time>2026-03-26T11:44:37.824Z</time>
      </trkpt>
      <trkpt lat="46.8683" lon="-0.99868">
        <ele>121.7</ele>
        <time>2026-03-26T11:44:43.909Z</time>
      </trkpt>
      <trkpt lat="46.86831" lon="-0.99902">
        <ele>121.5</ele>
        <time>2026-03-26T11:44:47.382Z</time>
      </trkpt>
      <trkpt lat="46.86831" lon="-0.9992">
        <ele>121.4</ele>
        <time>2026-03-26T11:44:49.126Z</time>
      </trkpt>
      <trkpt lat="46.86834" lon="-0.99921">
        <ele>120.9</ele>
        <time>2026-03-26T11:44:49.413Z</time>
      </trkpt>
      <trkpt lat="46.86837" lon="-0.99923">
        <ele>120.8</ele>
        <time>2026-03-26T11:44:49.762Z</time>
      </trkpt>
      <trkpt lat="46.86839" lon="-0.99926">
        <ele>120.6</ele>
        <time>2026-03-26T11:44:50.040Z</time>
      </trkpt>
      <trkpt lat="46.8684" lon="-0.9993">
        <ele>120.5</ele>
        <time>2026-03-26T11:44:50.400Z</time>
      </trkpt>
      <trkpt lat="46.8684" lon="-0.99934">
        <ele>120.5</ele>
        <time>2026-03-26T11:44:50.840Z</time>
      </trkpt>
      <trkpt lat="46.86839" lon="-0.99938">
        <ele>120.6</ele>
        <time>2026-03-26T11:44:51.496Z</time>
      </trkpt>
      <trkpt lat="46.86838" lon="-0.99942">
        <ele>120.7</ele>
        <time>2026-03-26T11:44:52.142Z</time>
      </trkpt>
      <trkpt lat="46.86836" lon="-0.99944">
        <ele>120.8</ele>
        <time>2026-03-26T11:44:52.801Z</time>
      </trkpt>
      <trkpt lat="46.86834" lon="-0.99946">
        <ele>120.9</ele>
        <time>2026-03-26T11:44:53.447Z</time>
      </trkpt>
      <trkpt lat="46.86839" lon="-0.99963">
        <ele>120.1</ele>
        <time>2026-03-26T11:44:54.683Z</time>
      </trkpt>
      <trkpt lat="46.86844" lon="-0.9998">
        <ele>119.8</ele>
        <time>2026-03-26T11:44:56.324Z</time>
      </trkpt>
      <trkpt lat="46.86848" lon="-0.99996">
        <ele>119.9</ele>
        <time>2026-03-26T11:44:58.322Z</time>
      </trkpt>
      <trkpt lat="46.8686" lon="-1.0007">
        <ele>118.3</ele>
        <time>2026-03-26T11:45:04.699Z</time>
      </trkpt>
      <trkpt lat="46.86894" lon="-1.00304">
        <ele>115.3</ele>
        <time>2026-03-26T11:45:26.945Z</time>
      </trkpt>
      <trkpt lat="46.86902" lon="-1.00363">
        <ele>114.1</ele>
        <time>2026-03-26T11:45:32.111Z</time>
      </trkpt>
      <trkpt lat="46.86904" lon="-1.00371">
        <ele>114.1</ele>
        <time>2026-03-26T11:45:32.995Z</time>
      </trkpt>
      <trkpt lat="46.86906" lon="-1.0038">
        <ele>114.2</ele>
        <time>2026-03-26T11:45:34.197Z</time>
      </trkpt>
      <trkpt lat="46.86906" lon="-1.00384">
        <ele>114.3</ele>
        <time>2026-03-26T11:45:34.893Z</time>
      </trkpt>
      <trkpt lat="46.86914" lon="-1.00438">
        <ele>113.2</ele>
        <time>2026-03-26T11:45:39.519Z</time>
      </trkpt>
      <trkpt lat="46.86914" lon="-1.00443">
        <ele>113.2</ele>
        <time>2026-03-26T11:45:40.056Z</time>
      </trkpt>
      <trkpt lat="46.86914" lon="-1.00447">
        <ele>113.1</ele>
        <time>2026-03-26T11:45:40.409Z</time>
      </trkpt>
      <trkpt lat="46.86919" lon="-1.00481">
        <ele>111.8</ele>
        <time>2026-03-26T11:45:42.851Z</time>
      </trkpt>
      <trkpt lat="46.86937" lon="-1.00598">
        <ele>110.5</ele>
        <time>2026-03-26T11:45:54.265Z</time>
      </trkpt>
      <trkpt lat="46.86942" lon="-1.00631">
        <ele>109.5</ele>
        <time>2026-03-26T11:45:56.805Z</time>
      </trkpt>
      <trkpt lat="46.86943" lon="-1.00633">
        <ele>109.4</ele>
        <time>2026-03-26T11:45:57.003Z</time>
      </trkpt>
      <trkpt lat="46.86946" lon="-1.00656">
        <ele>108.9</ele>
        <time>2026-03-26T11:45:58.972Z</time>
      </trkpt>
      <trkpt lat="46.86937" lon="-1.00659">
        <ele>109.4</ele>
        <time>2026-03-26T11:46:01.689Z</time>
      </trkpt>
      <trkpt lat="46.86928" lon="-1.00658">
        <ele>109.9</ele>
        <time>2026-03-26T11:46:04.384Z</time>
      </trkpt>
      <trkpt lat="46.869" lon="-1.0065">
        <ele>111.1</ele>
        <time>2026-03-26T11:46:11.612Z</time>
      </trkpt>
      <trkpt lat="46.86854" lon="-1.00633">
        <ele>111.2</ele>
        <time>2026-03-26T11:46:19.490Z</time>
      </trkpt>
      <trkpt lat="46.86845" lon="-1.00632">
        <ele>111.2</ele>
        <time>2026-03-26T11:46:20.787Z</time>
      </trkpt>
      <trkpt lat="46.86837" lon="-1.00634">
        <ele>111.2</ele>
        <time>2026-03-26T11:46:22.189Z</time>
      </trkpt>
      <trkpt lat="46.86766" lon="-1.00655">
        <ele>110</ele>
        <time>2026-03-26T11:46:32.148Z</time>
      </trkpt>
      <trkpt lat="46.86751" lon="-1.0066">
        <ele>110</ele>
        <time>2026-03-26T11:46:34.673Z</time>
      </trkpt>
      <trkpt lat="46.86732" lon="-1.00665">
        <ele>110</ele>
        <time>2026-03-26T11:46:37.722Z</time>
      </trkpt>
      <trkpt lat="46.86724" lon="-1.00668">
        <ele>110</ele>
        <time>2026-03-26T11:46:38.971Z</time>
      </trkpt>
      <trkpt lat="46.86716" lon="-1.00673">
        <ele>110</ele>
        <time>2026-03-26T11:46:40.453Z</time>
      </trkpt>
      <trkpt lat="46.86714" lon="-1.00668">
        <ele>110</ele>
        <time>2026-03-26T11:46:41.021Z</time>
      </trkpt>
      <trkpt lat="46.86704" lon="-1.00658">
        <ele>110</ele>
        <time>2026-03-26T11:46:42.999Z</time>
      </trkpt>
      <trkpt lat="46.86685" lon="-1.00653">
        <ele>110.3</ele>
        <time>2026-03-26T11:46:46.622Z</time>
      </trkpt>
      <trkpt lat="46.86637" lon="-1.00639">
        <ele>111.1</ele>
        <time>2026-03-26T11:46:55.876Z</time>
      </trkpt>
      <trkpt lat="46.86635" lon="-1.00638">
        <ele>111.1</ele>
        <time>2026-03-26T11:46:56.170Z</time>
        <extensions>
          <visugpx:TrkExtension xmlns:visugpx="https://www.visugpx.com/editgpx/">
            <visugpx:node>46</visugpx:node>
            </visugpx:TrkExtension>
        </extensions>
      </trkpt>
      <trkpt lat="46.86608" lon="-1.00631">
        <ele>112.2</ele>
        <time>2026-03-26T11:47:02.917Z</time>
      </trkpt>
      <trkpt lat="46.8659" lon="-1.00625">
        <ele>113.2</ele>
        <time>2026-03-26T11:47:08.400Z</time>
      </trkpt>
      <trkpt lat="46.86579" lon="-1.00619">
        <ele>113.6</ele>
        <time>2026-03-26T11:47:11.156Z</time>
      </trkpt>
      <trkpt lat="46.86569" lon="-1.00612">
        <ele>114</ele>
        <time>2026-03-26T11:47:13.628Z</time>
      </trkpt>
      <trkpt lat="46.86556" lon="-1.00602">
        <ele>114.7</ele>
        <time>2026-03-26T11:47:17.708Z</time>
      </trkpt>
      <trkpt lat="46.86535" lon="-1.00588">
        <ele>114.4</ele>
        <time>2026-03-26T11:47:20.957Z</time>
      </trkpt>
      <trkpt lat="46.8652" lon="-1.00578">
        <ele>115</ele>
        <time>2026-03-26T11:47:24.852Z</time>
      </trkpt>
      <trkpt lat="46.86496" lon="-1.00567">
        <ele>117.2</ele>
        <time>2026-03-26T11:47:36.428Z</time>
      </trkpt>
      <trkpt lat="46.86481" lon="-1.00563">
        <ele>117.3</ele>
        <time>2026-03-26T11:47:38.997Z</time>
      </trkpt>
      <trkpt lat="46.8647" lon="-1.00561">
        <ele>117.3</ele>
        <time>2026-03-26T11:47:40.659Z</time>
      </trkpt>
      <trkpt lat="46.86453" lon="-1.00561">
        <ele>117.9</ele>
        <time>2026-03-26T11:47:44.637Z</time>
      </trkpt>
      <trkpt lat="46.86422" lon="-1.00563">
        <ele>119.1</ele>
        <time>2026-03-26T11:47:52.208Z</time>
      </trkpt>
      <trkpt lat="46.86414" lon="-1.00561">
        <ele>119.2</ele>
        <time>2026-03-26T11:47:53.603Z</time>
      </trkpt>
      <trkpt lat="46.86407" lon="-1.00559">
        <ele>119.1</ele>
        <time>2026-03-26T11:47:54.751Z</time>
      </trkpt>
      <trkpt lat="46.86396" lon="-1.00556">
        <ele>119</ele>
        <time>2026-03-26T11:47:56.324Z</time>
      </trkpt>
      <trkpt lat="46.86387" lon="-1.00558">
        <ele>119.1</ele>
        <time>2026-03-26T11:47:57.894Z</time>
      </trkpt>
      <trkpt lat="46.86382" lon="-1.00563">
        <ele>119.2</ele>
        <time>2026-03-26T11:47:59.016Z</time>
      </trkpt>
      <trkpt lat="46.86369" lon="-1.00579">
        <ele>119.2</ele>
        <time>2026-03-26T11:48:01.783Z</time>
        <extensions>
          <visugpx:TrkExtension xmlns:visugpx="https://www.visugpx.com/editgpx/">
            <visugpx:node>47</visugpx:node>
            </visugpx:TrkExtension>
        </extensions>
      </trkpt>
      <trkpt lat="46.86368" lon="-1.0058">
        <ele>119.2</ele>
        <time>2026-03-26T11:48:02.055Z</time>
      </trkpt>
      <trkpt lat="46.86352" lon="-1.00597">
        <ele>119</ele>
        <time>2026-03-26T11:48:04.857Z</time>
      </trkpt>
      <trkpt lat="46.86326" lon="-1.00624">
        <ele>118.2</ele>
        <time>2026-03-26T11:48:08.931Z</time>
      </trkpt>
      <trkpt lat="46.86324" lon="-1.00626">
        <ele>118.2</ele>
        <time>2026-03-26T11:48:09.374Z</time>
      </trkpt>
      <trkpt lat="46.86316" lon="-1.00633">
        <ele>117.8</ele>
        <time>2026-03-26T11:48:10.355Z</time>
      </trkpt>
      <trkpt lat="46.86272" lon="-1.00663">
        <ele>117.4</ele>
        <time>2026-03-26T11:48:17.679Z</time>
      </trkpt>
      <trkpt lat="46.86236" lon="-1.0068">
        <ele>116.2</ele>
        <time>2026-03-26T11:48:22.250Z</time>
      </trkpt>
      <trkpt lat="46.86192" lon="-1.007">
        <ele>115.4</ele>
        <time>2026-03-26T11:48:28.579Z</time>
      </trkpt>
      <trkpt lat="46.86183" lon="-1.00704">
        <ele>115.6</ele>
        <time>2026-03-26T11:48:30.394Z</time>
      </trkpt>
      <trkpt lat="46.86147" lon="-1.00725">
        <ele>115.4</ele>
        <time>2026-03-26T11:48:36.319Z</time>
        <extensions>
          <visugpx:TrkExtension xmlns:visugpx="https://www.visugpx.com/editgpx/">
            <visugpx:node>48</visugpx:node>
            </visugpx:TrkExtension>
        </extensions>
      </trkpt>
      <trkpt lat="46.86142" lon="-1.00728">
        <ele>115.3</ele>
        <time>2026-03-26T11:48:37.078Z</time>
      </trkpt>
      <trkpt lat="46.86138" lon="-1.00731">
        <ele>115.3</ele>
        <time>2026-03-26T11:48:37.799Z</time>
        <extensions>
          <visugpx:TrkExtension xmlns:visugpx="https://www.visugpx.com/editgpx/">
            <visugpx:node>49</visugpx:node>
            </visugpx:TrkExtension>
        </extensions>
      </trkpt>
    </trkseg>
  </trk>
</gpx>